GFSNW_850_rhum_000.txt.gz
RH
40 50 50 39 29 31 38 52 56 47 46 58 59 73 58 53 55 51 51 51 48 49 50 49 47 59 59 51 47 50 53 53 60 51 38 37 31 31 30 42 39 38 41 43
55 41 48 38 34 31 52 51 45 50 46 67 69 59 59 57 56 59 51 56 51 45 56 63 57 63 54 52 60 60 51 52 67 64 50 43 47 36 33 39 42 53 46 40
85 62 42 41 34 33 48 50 54 48 45 44 51 52 55 62 56 56 51 53 47 47 57 53 64 61 61 58 56 51 50 50 52 53 46 40 49 46 42 45 52 46 43 38
96 83 57 42 33 33 49 47 57 54 62 56 49 46 42 51 56 52 46 51 46 44 56 56 57 54 57 49 49 48 52 50 44 43 38 35 38 41 40 50 45 51 35 35
91 93 75 42 35 36 52 56 45 43 46 43 34 40 48 46 47 50 50 56 46 43 54 50 56 49 43 49 45 44 50 51 41 41 31 27 34 32 29 34 37 38 37 37
88 90 88 76 33 39 55 52 45 44 50 44 38 51 49 51 42 48 51 47 47 58 49 40 38 40 43 44 44 45 46 44 43 44 33 38 49 38 38 36 33 33 39 32
88 89 92 87 48 41 42 45 54 47 49 38 43 44 41 46 47 45 44 41 42 49 38 34 33 32 31 30 34 35 48 48 48 56 48 68 38 31 32 38 33 32 33 33
84 91 94 93 83 56 45 45 53 53 48 39 43 43 45 42 42 49 46 47 49 42 36 43 45 44 43 40 52 48 34 46 54 69 65 51 44 36 37 38 42 34 38 36
84 88 97 95 92 85 71 67 64 60 56 52 38 38 37 44 46 49 51 44 43 40 44 49 71 76 52 56 66 54 52 43 57 98 82 86 40 40 36 35 60 45 41 42
89 90 95 98 96 94 90 82 81 78 71 60 54 58 55 46 48 53 52 49 47 46 52 65 83 70 47 63 54 77 72 66 72 68 76 65 41 42 36 58 58 47 46 44
90 90 97 100 100 98 92 88 87 83 86 76 64 66 66 56 56 68 61 63 63 60 63 65 67 67 57 57 46 53 71 84 83 71 71 82 35 42 50 45 39 43 50 48
90 92 94 98 99 100 100 99 95 91 87 93 81 75 72 61 62 66 58 68 57 56 75 66 69 69 64 57 70 41 65 52 60 67 74 45 37 38 41 44 45 47 46 45
76 90 91 92 93 99 99 99 100 100 98 95 90 86 83 83 71 68 66 63 60 57 66 68 78 83 70 81 74 65 54 41 58 56 41 42 40 40 50 51 50 48 46 47
61 77 99 99 99 100 96 96 98 99 96 99 95 89 82 80 81 79 71 76 66 64 66 80 89 89 70 86 77 76 59 59 61 62 54 48 45 49 57 60 61 59 56 55
61 66 90 99 98 99 100 96 97 100 100 99 97 86 87 76 73 79 84 80 78 73 79 90 94 85 85 89 89 86 64 66 74 69 49 55 54 54 56 59 65 67 67 69
68 73 92 98 97 96 100 100 99 100 100 98 99 93 87 84 82 90 97 94 84 82 85 91 87 82 81 98 98 70 53 52 50 53 52 56 57 56 62 66 71 74 73 78
71 80 99 98 98 99 99 99 99 99 100 99 98 97 95 92 98 98 94 99 98 93 92 98 94 93 88 98 86 55 50 54 55 54 56 59 59 64 66 69 75 76 80 86
79 99 99 98 96 95 100 100 97 100 100 97 100 98 91 95 94 99 96 100 97 98 96 97 98 96 98 98 74 58 57 59 58 57 59 65 69 72 73 78 82 89 97 99
99 97 99 99 98 94 91 90 95 99 98 100 100 100 97 94 90 95 96 91 97 98 99 96 96 96 98 80 73 68 64 63 66 70 73 73 76 75 78 88 93 99 99 88
98 99 94 100 97 94 86 90 94 99 100 100 99 98 96 88 86 91 88 89 90 99 90 88 99 94 69 56 55 59 66 68 72 73 76 87 99 98 100 99 100 97 62 39
100 96 96 99 100 95 97 99 98 100 100 98 99 98 93 90 93 96 93 97 95 96 96 93 91 89 78 55 62 67 67 60 52 50 62 80 90 90 94 95 89 83 30 18
94 82 98 98 99 96 99 95 99 100 97 98 98 96 97 95 86 94 100 99 95 94 85 95 82 82 56 54 48 43 37 32 30 33 50 75 89 97 99 95 82 21 21 25
94 93 99 96 98 96 98 99 98 99 98 99 100 100 96 95 95 100 99 100 95 76 94 83 85 68 56 46 39 29 25 30 43 65 79 86 92 94 72 37 19 24 26 30
86 97 99 97 99 94 92 93 96 94 96 98 95 97 90 96 99 97 98 98 89 91 97 89 88 54 55 48 31 28 31 45 64 77 84 84 69 34 14 21 27 29 30 32
85 96 92 95 84 94 92 82 83 81 89 94 98 94 84 92 96 92 93 99 96 86 87 89 57 42 38 34 29 32 39 52 68 77 76 58 26 14 20 27 32 34 35 36
93 97 97 93 94 98 90 83 85 77 95 93 89 87 89 90 89 98 94 93 90 85 90 55 55 55 44 32 30 32 41 54 69 73 67 50 26 23 28 39 38 39 41 39
100 99 81 87 89 97 86 82 86 81 84 98 92 96 92 90 92 98 89 92 88 67 56 50 46 42 33 36 39 36 37 50 69 78 72 61 39 32 37 40 42 47 46 43

GFSNW_850_rhum_003.txt.gz
RH
92 51 47 42 33 30 44 54 58 49 56 74 83 87 67 58 66 61 56 59 63 68 71 55 73 76 66 54 52 57 54 61 70 56 39 38 35 36 36 48 45 49 49 45
96 75 57 44 38 32 49 52 48 44 46 87 87 66 67 66 66 65 60 62 55 53 58 70 68 68 59 56 59 57 52 60 77 62 48 45 48 42 38 44 50 53 49 45
93 93 76 43 37 40 54 53 61 42 44 52 68 68 66 71 59 59 55 56 50 56 64 61 70 68 62 56 55 50 48 50 52 60 48 49 54 48 44 48 59 52 53 42
88 89 80 50 34 48 54 48 59 58 69 55 55 52 55 62 65 54 50 54 50 54 64 60 65 64 60 50 49 47 50 49 45 41 38 34 38 42 44 56 53 51 32 37
87 86 85 75 34 45 50 52 53 47 55 45 51 60 55 56 56 56 57 63 60 58 65 59 61 58 54 54 46 49 50 53 39 37 33 33 34 34 36 39 42 49 47 44
86 86 87 85 35 43 48 50 53 40 50 51 56 57 53 53 55 49 49 51 60 61 50 41 39 42 47 50 49 51 50 46 47 43 44 44 49 42 41 39 34 34 43 34
84 86 87 89 47 42 49 51 55 48 57 56 58 50 52 51 50 52 45 45 54 48 36 34 31 30 32 33 42 41 55 52 56 60 52 68 39 36 34 41 40 38 37 37
85 86 89 91 84 50 42 48 53 49 60 54 51 51 53 46 45 53 54 49 48 38 36 51 51 57 50 55 64 61 46 55 60 71 74 59 46 47 42 41 45 42 41 47
86 86 88 93 93 79 60 62 64 59 57 55 40 46 42 53 56 54 49 43 41 41 51 60 74 79 62 62 68 60 55 57 62 92 82 78 54 42 38 39 56 47 46 48
84 84 84 91 96 91 86 78 76 75 67 50 43 57 51 45 56 65 52 46 43 46 59 75 86 76 52 69 66 78 76 73 75 79 82 71 52 42 38 53 55 46 49 48
78 87 90 98 99 90 86 84 81 77 82 67 62 62 54 52 52 71 59 62 61 64 68 78 77 75 67 61 56 75 79 89 86 80 82 84 43 44 50 53 53 52 50 49
71 82 89 97 97 99 91 83 82 82 77 89 76 68 66 60 62 62 60 71 63 58 82 78 79 74 74 70 74 49 62 64 77 76 73 48 47 48 50 50 50 51 49 49
55 74 84 91 100 97 98 94 92 91 88 88 85 85 84 76 66 66 60 64 58 58 67 73 81 76 80 84 83 62 58 52 67 60 51 51 53 57 54 57 58 59 59 57
51 61 74 84 95 100 100 100 95 96 93 94 98 92 84 86 80 68 70 63 64 63 63 83 88 85 72 89 82 84 68 65 71 74 59 51 50 52 55 61 62 62 64 66
53 57 76 98 90 96 100 100 100 100 90 97 98 90 87 81 77 84 77 72 66 66 75 89 93 87 81 87 93 99 69 73 86 87 60 62 58 55 57 59 62 66 71 71
66 62 84 100 95 84 93 97 87 100 98 81 98 97 92 90 88 88 91 80 78 78 81 89 86 79 75 97 88 72 63 60 58 64 56 54 58 61 65 70 74 76 76 77
68 76 99 99 96 94 98 97 96 99 99 84 98 100 96 96 95 93 96 95 89 84 86 91 91 85 84 98 98 63 57 58 53 56 58 61 62 66 67 68 73 77 82 84
68 92 99 98 97 98 100 97 96 100 96 97 100 100 92 92 98 99 99 100 96 96 93 97 97 96 93 98 82 66 61 59 62 64 63 65 69 70 68 70 76 81 85 89
92 97 97 98 98 90 97 100 100 100 95 99 99 100 100 94 97 97 96 94 97 98 99 97 91 97 98 85 78 68 63 61 64 65 67 65 58 58 70 85 92 90 92 91
98 97 95 100 92 92 93 97 93 98 92 97 99 96 98 87 94 97 93 87 92 99 91 93 99 98 76 64 62 64 65 67 70 67 55 39 39 58 73 84 88 91 95 93
100 96 92 99 100 94 96 98 93 98 100 99 99 98 97 95 92 96 88 95 99 96 91 80 93 94 78 49 51 55 61 59 50 40 40 48 62 76 86 88 92 97 79 58
91 80 98 99 96 96 95 91 97 99 89 100 98 98 96 96 89 95 99 91 97 92 93 96 89 83 57 58 55 48 40 35 31 32 36 51 74 81 91 99 95 94 43 21
76 80 98 94 100 99 94 92 88 99 99 100 100 100 93 95 94 99 98 97 95 84 96 90 86 61 61 59 47 38 28 26 27 30 33 46 64 75 87 85 63 19 20 22
96 92 99 93 96 94 94 92 93 92 95 97 94 98 94 98 99 97 95 99 90 97 99 90 85 54 52 53 40 30 29 29 31 30 37 47 65 75 66 33 15 20 24 26
98 95 91 99 85 98 99 94 89 92 95 91 94 92 87 96 94 91 96 99 97 92 87 86 56 46 42 38 34 33 31 32 33 36 44 55 67 64 36 16 20 26 30 33
96 97 98 96 92 100 86 90 93 96 94 93 86 91 93 93 92 98 94 95 92 83 90 54 52 44 45 45 39 35 40 44 42 38 47 58 62 58 34 23 25 31 38 42
99 98 76 79 91 87 83 82 83 96 86 99 92 96 86 95 96 100 94 94 86 61 53 53 52 55 58 54 42 44 56 60 53 46 56 64 66 61 47 37 31 41 47 53

GFSNW_850_rhum_006.txt.gz
RH
90 86 72 58 42 38 52 60 62 68 84 85 87 92 90 88 90 93 83 53 57 70 72 64 77 77 68 58 52 56 54 63 70 53 40 37 38 40 38 48 45 54 52 46
89 88 89 61 43 40 55 55 58 76 77 83 87 67 73 88 90 78 68 79 68 59 68 75 71 71 61 58 56 58 53 68 80 60 52 47 50 42 40 47 52 56 55 49
88 89 90 70 44 42 57 57 58 51 70 66 73 70 68 74 77 73 62 62 62 66 67 65 72 71 62 55 54 52 47 54 59 63 54 55 58 55 47 45 59 49 57 40
88 88 86 86 47 44 57 50 59 60 57 58 59 56 60 66 65 62 60 58 54 59 65 63 71 66 57 50 48 47 44 49 45 42 39 39 45 49 56 57 50 46 39 44
88 86 84 86 52 43 56 51 55 53 60 50 56 62 55 61 62 58 62 65 54 54 62 59 65 62 56 53 47 50 48 51 37 36 35 36 36 35 37 44 48 52 47 43
86 86 85 85 56 43 52 55 52 47 59 56 55 59 56 54 58 50 52 54 49 51 46 41 46 50 49 50 49 51 47 43 41 38 48 44 45 44 44 38 36 34 36 31
84 85 87 89 70 45 56 58 54 47 60 60 59 54 50 51 49 54 50 48 50 46 40 37 32 35 45 49 56 50 53 55 58 56 51 60 38 40 39 40 39 37 39 42
83 84 87 92 88 49 47 54 54 47 68 64 58 52 56 48 48 56 52 50 47 38 38 54 56 61 50 57 68 63 52 58 68 69 70 56 46 44 42 41 52 50 51 48
82 85 87 90 94 80 61 65 61 54 62 56 48 52 47 56 57 53 48 44 41 42 56 67 70 76 60 64 66 62 58 60 60 90 80 69 47 42 40 37 54 52 52 52
81 84 85 91 96 96 86 78 71 70 55 58 46 52 55 47 60 68 52 43 43 47 69 79 85 78 58 70 71 71 69 70 72 81 81 72 53 47 41 54 50 60 55 53
78 83 82 88 97 97 95 86 80 73 71 63 63 60 50 54 54 75 58 63 60 66 74 79 80 78 70 64 66 75 74 87 82 83 81 80 48 47 52 55 57 51 49 50
74 80 83 90 100 100 93 87 82 76 72 76 70 68 59 60 63 56 58 70 65 60 83 84 82 77 77 75 74 58 68 72 80 72 72 54 47 50 50 50 52 53 54 53
61 76 81 81 97 100 100 93 86 79 80 90 84 83 77 69 68 61 60 64 60 62 62 79 84 74 82 83 82 66 59 58 69 62 57 65 53 52 53 56 58 58 59 58
53 64 78 81 95 99 99 99 94 84 82 93 98 92 87 84 72 68 65 60 60 63 65 81 85 81 74 87 80 80 67 65 73 78 66 57 59 59 60 62 62 62 62 64
51 60 81 86 90 98 100 99 96 91 83 95 99 92 86 81 84 74 69 64 64 66 77 86 90 90 86 93 92 99 79 77 82 83 65 62 61 57 55 60 66 69 70 70
50 58 88 100 97 99 90 80 80 89 77 76 99 97 91 89 86 92 80 75 72 76 78 91 88 82 76 97 85 70 69 67 62 63 62 58 56 58 61 64 65 66 72 75
60 61 89 99 92 85 80 84 93 80 80 74 100 99 97 100 96 98 93 84 84 79 88 93 87 79 76 96 90 70 64 65 63 56 56 62 61 61 64 72 79 83 85 88
67 90 99 97 92 95 90 95 100 100 89 84 99 100 94 96 99 99 100 99 90 91 97 94 94 92 92 98 83 67 64 64 60 60 62 65 67 69 73 74 78 96 99 97
89 98 97 92 90 83 95 97 100 99 90 99 99 99 99 95 99 99 96 91 97 99 98 95 91 98 98 84 78 70 66 65 59 63 65 68 62 49 48 51 59 82 89 94
99 94 97 96 87 88 96 99 99 99 99 95 98 92 98 92 98 98 92 90 99 100 95 96 100 98 77 67 71 70 68 63 65 70 69 54 34 36 44 62 77 87 88 93
100 98 92 99 97 86 86 98 93 93 100 99 99 93 97 93 94 98 84 97 99 97 92 91 92 96 83 64 60 64 65 64 56 40 30 33 36 45 62 70 83 92 91 90
97 83 98 99 93 94 89 92 93 99 90 99 98 98 90 97 90 93 94 89 95 90 90 90 94 84 61 63 58 51 43 35 30 30 33 36 41 55 68 74 85 90 87 58
86 78 90 89 97 99 93 98 86 96 97 100 100 100 94 95 97 97 97 95 94 91 97 92 90 60 60 59 51 39 29 29 31 40 41 37 41 55 73 81 80 78 40 21
99 99 99 95 95 91 93 90 92 84 98 100 94 100 94 100 98 97 96 98 89 97 99 92 84 54 51 53 48 34 31 31 38 47 43 38 45 58 70 69 52 23 20 24
100 99 93 98 83 94 92 99 100 100 95 89 90 92 87 98 97 92 97 98 97 89 87 86 54 45 42 42 40 38 36 34 42 52 53 42 43 54 64 61 35 19 21 24
100 99 97 98 96 100 100 98 100 99 86 82 81 90 95 95 93 94 94 91 90 85 92 52 50 45 45 51 53 50 45 36 40 59 62 54 49 57 60 58 37 25 22 25
100 98 93 87 82 93 86 91 98 91 81 100 90 94 84 92 92 100 95 91 89 63 48 47 49 51 52 59 61 58 54 46 51 64 67 57 56 69 66 60 55 43 38 39

GFSNW_850_rhum_009.txt.gz
RH
95 89 96 97 68 39 56 73 75 100 95 100 96 95 94 64 67 93 87 65 61 68 67 72 79 85 69 59 56 62 52 61 63 50 44 40 39 40 40 53 48 57 58 50
90 89 92 97 72 40 55 68 94 100 100 93 94 96 96 88 92 86 73 60 59 64 70 83 78 75 63 60 56 60 57 68 80 63 56 51 50 44 40 50 54 60 57 48
88 88 89 95 86 43 49 71 78 100 100 90 77 76 94 95 90 73 70 72 66 64 68 68 79 76 63 56 55 52 47 62 60 57 59 60 60 55 48 47 62 55 58 43
83 87 88 90 91 43 50 65 60 66 84 74 64 62 75 90 85 77 74 71 67 64 71 68 78 68 60 51 49 48 42 50 47 46 46 52 54 58 57 52 47 48 40 50
81 86 86 86 90 41 54 63 61 57 66 54 57 59 60 67 67 73 80 72 67 64 61 60 71 64 59 55 49 47 46 54 39 38 40 36 35 37 60 57 52 51 50 46
83 85 85 88 90 44 56 56 59 52 64 58 57 61 63 60 56 54 62 56 61 64 49 45 50 51 51 52 51 52 44 45 40 38 47 42 41 46 42 37 39 39 36 30
82 85 86 90 92 47 52 57 64 48 57 63 58 58 52 64 51 56 56 49 48 44 38 38 39 38 47 54 59 49 51 52 54 51 50 53 34 43 40 40 44 37 49 49
79 85 85 91 95 60 50 54 61 48 69 68 56 54 59 51 50 53 52 51 51 39 37 51 58 62 48 54 69 59 51 56 68 64 61 48 49 44 48 47 59 52 52 51
78 86 85 91 98 87 53 65 61 55 68 60 51 53 50 57 57 52 49 47 43 41 63 66 64 70 58 68 68 56 54 56 57 87 76 64 46 42 41 37 74 59 56 61
71 84 87 92 98 98 75 76 68 66 54 62 49 52 52 48 60 65 51 44 44 49 75 83 88 79 60 76 76 67 61 65 68 75 73 66 50 45 43 56 50 61 54 55
68 80 88 89 96 98 96 84 80 74 60 68 62 57 50 54 55 71 55 60 60 70 77 80 82 76 66 68 71 67 65 77 77 81 77 70 51 50 57 58 59 53 53 52
65 73 85 89 96 99 100 90 82 80 72 69 68 62 62 61 62 53 58 71 66 62 87 85 86 80 79 75 76 66 73 66 70 68 68 57 53 51 50 50 51 53 52 53
64 65 80 90 99 99 100 92 85 80 80 90 80 80 70 68 66 56 62 66 62 66 59 82 84 71 82 81 80 69 60 63 69 66 65 61 53 53 52 55 56 57 58 59
62 60 75 84 94 98 99 96 88 80 78 93 97 93 90 81 69 67 63 57 60 61 66 80 87 81 77 86 76 78 69 70 76 75 67 66 60 57 57 59 61 63 63 64
60 60 65 79 99 98 99 99 94 84 75 96 99 92 88 84 86 71 66 61 59 65 78 86 89 92 85 96 92 96 82 78 82 80 64 62 64 60 61 63 64 68 68 68
58 66 71 84 100 99 100 89 94 84 70 74 99 96 95 91 93 74 70 70 71 76 79 92 89 82 74 95 94 72 70 72 67 64 61 58 58 61 58 59 61 62 65 70
58 83 98 100 100 99 74 74 84 90 69 60 100 95 98 100 96 90 86 82 84 80 89 92 87 86 78 94 94 68 65 68 66 60 59 65 64 65 64 65 64 58 64 76
78 99 99 100 91 81 76 78 90 90 66 63 99 99 96 97 99 99 100 94 92 95 97 94 90 88 88 86 81 74 70 66 62 62 61 62 64 64 64 49 39 38 46 66
100 99 98 95 91 81 83 89 97 88 74 99 99 100 98 94 100 99 94 93 97 100 98 94 85 99 97 80 78 73 68 66 60 63 65 63 64 45 34 35 38 42 60 80
98 98 86 90 82 84 88 98 97 83 89 93 97 89 100 92 97 99 90 92 99 100 98 96 99 99 81 80 71 68 66 66 62 62 65 61 36 34 37 41 49 64 78 86
99 94 94 99 100 89 82 96 94 99 98 100 96 92 97 95 95 98 85 98 98 97 90 95 94 95 85 67 62 61 70 70 65 48 34 34 37 38 39 49 61 73 79 84
91 84 98 97 83 88 90 94 97 99 94 98 98 95 88 96 86 95 88 90 93 79 93 93 90 88 65 63 68 65 57 44 31 37 42 43 43 40 41 49 62 74 86 87
96 96 98 91 99 99 95 98 99 94 94 99 100 99 92 95 91 96 92 95 81 86 94 90 90 66 69 64 50 40 31 31 35 43 47 49 47 42 40 48 67 78 80 80
100 99 98 97 99 94 91 91 91 78 97 100 99 100 98 100 98 98 96 98 95 98 100 95 92 58 55 56 46 34 32 33 36 42 48 55 57 52 44 43 59 66 59 39
100 100 97 98 90 97 92 98 99 100 100 92 89 90 89 100 98 90 97 98 95 86 90 90 56 55 50 43 39 38 39 39 38 37 41 54 62 60 55 52 58 62 44 23
100 99 99 99 94 99 100 100 99 100 90 75 74 97 97 98 95 98 93 93 94 86 93 52 51 44 44 42 42 45 48 49 50 45 39 48 63 66 61 60 60 60 46 28
99 99 98 86 88 92 98 99 99 90 79 98 92 97 95 92 95 100 93 90 85 68 56 48 43 44 43 48 48 50 56 56 55 54 54 54 66 71 61 58 64 63 51 40

GFSNW_850_rhum_012.txt.gz
RH
99 96 99 96 100 75 55 81 89 99 97 98 93 96 90 80 77 80 82 66 64 68 79 78 87 87 76 54 56 56 47 60 65 49 45 40 38 42 44 60 56 63 62 54
99 100 100 97 100 82 52 79 99 100 99 100 99 93 89 76 83 87 81 66 58 55 71 87 86 88 66 60 58 61 57 65 81 65 55 54 49 45 43 52 56 64 60 51
100 100 99 99 100 93 51 81 98 100 100 100 95 95 91 90 95 89 72 69 60 67 73 76 88 86 64 60 56 51 46 64 59 65 55 60 63 55 49 49 64 62 60 43
100 100 99 98 100 96 54 78 71 80 98 96 83 73 89 94 93 80 70 70 62 65 78 78 82 71 67 55 54 52 44 57 51 48 53 55 56 57 56 53 48 53 46 51
100 100 94 94 100 92 57 68 67 70 70 60 71 63 85 88 68 77 74 77 71 66 68 65 80 69 63 62 52 50 48 55 42 42 42 38 44 53 60 54 54 44 50 50
99 99 94 93 100 90 65 61 62 57 66 60 59 62 72 64 60 81 64 64 68 61 54 51 54 53 55 55 51 52 46 47 47 50 45 41 38 44 67 58 52 55 61 47
88 93 92 94 99 98 58 61 67 57 59 61 57 57 57 64 55 72 56 62 66 50 44 44 39 43 52 54 58 47 47 48 49 53 49 46 32 44 40 45 45 38 50 50
80 91 88 95 99 99 54 60 66 53 66 68 58 59 62 53 53 68 54 52 69 42 42 62 81 68 55 58 62 58 51 55 67 58 56 45 49 51 52 49 60 52 60 61
76 94 87 95 97 100 58 69 68 57 70 66 52 57 52 58 58 54 56 53 47 43 64 58 88 93 78 56 60 50 55 56 52 85 75 58 45 46 41 44 70 59 59 64
77 98 88 96 96 100 85 76 80 68 56 64 51 56 56 49 58 64 50 46 47 53 76 81 85 78 61 64 64 59 65 71 64 73 70 63 46 46 41 56 55 66 58 56
89 98 89 99 96 96 100 88 85 81 59 73 63 56 48 52 53 58 50 55 54 72 75 79 86 78 71 70 68 62 61 75 78 81 73 68 51 51 54 57 60 51 51 52
96 90 87 94 88 100 100 99 88 82 62 79 69 65 60 57 59 50 59 65 66 60 86 84 86 82 79 74 75 70 64 59 65 68 68 58 57 53 51 50 51 54 53 54
89 91 81 90 100 97 99 98 90 83 72 93 86 80 72 70 60 50 63 65 60 63 61 83 84 71 82 82 79 69 64 65 70 67 65 61 58 55 53 53 54 56 58 60
73 96 82 93 100 95 100 99 89 84 78 93 97 93 87 77 69 65 61 57 58 59 64 81 88 80 78 83 74 72 69 70 75 75 73 66 61 57 57 59 61 62 63 64
66 84 85 99 96 99 100 100 93 84 79 94 100 93 90 87 78 70 64 59 58 63 79 86 88 91 90 97 90 93 81 77 80 76 66 65 64 60 57 60 63 65 66 65
67 67 91 100 98 95 100 99 98 83 80 82 100 96 98 92 78 71 69 67 67 73 78 94 92 87 75 91 88 72 74 71 68 65 61 59 60 61 60 60 64 63 56 51
62 72 100 99 99 99 89 76 90 73 64 66 100 99 100 94 84 82 83 81 82 78 89 93 89 88 75 88 84 64 67 67 66 64 62 70 67 66 65 63 57 43 40 43
67 99 100 98 100 100 82 74 88 76 62 57 100 100 96 97 99 99 96 90 89 93 97 93 90 91 86 86 79 76 72 76 67 65 61 60 64 62 60 47 36 36 39 38
99 98 100 99 98 82 80 98 96 78 66 96 99 97 99 96 100 99 93 91 98 98 96 94 85 94 96 74 79 75 72 68 70 71 68 66 66 48 34 34 37 42 42 44
97 98 84 87 82 79 92 90 83 79 83 85 98 92 98 93 97 98 90 91 99 100 97 98 98 97 82 69 63 63 68 64 64 67 75 64 35 34 38 40 42 44 49 56
100 89 91 100 99 83 78 93 93 98 98 99 97 95 98 94 95 97 88 98 98 98 92 96 99 95 86 79 74 69 66 66 66 56 33 36 38 39 40 41 43 47 52 60
88 83 99 92 77 83 88 92 98 99 96 100 98 96 90 91 83 90 88 97 92 90 96 98 96 86 71 74 76 70 78 74 62 36 38 39 40 43 44 42 39 42 54 69
89 94 94 88 99 99 94 99 98 99 96 99 100 99 94 89 83 95 92 89 93 89 93 82 89 70 71 65 74 79 76 50 40 43 42 46 50 52 50 48 44 43 53 68
99 99 98 97 99 96 88 92 92 80 98 100 94 100 98 99 97 96 92 95 91 97 88 97 92 62 65 51 40 34 34 36 38 42 45 47 51 56 57 57 56 51 50 66
100 100 97 99 96 98 93 93 99 100 100 88 89 91 92 99 96 93 98 100 97 77 90 88 61 56 61 45 37 35 35 35 36 37 38 40 44 52 58 64 64 60 57 60
100 99 97 99 95 98 100 97 99 99 92 72 71 97 95 100 96 99 96 91 91 87 92 59 57 55 47 40 38 39 41 43 46 48 49 47 45 49 58 66 68 63 62 61
99 99 94 86 88 95 99 99 99 96 78 100 93 92 92 94 96 97 94 94 88 71 65 56 47 42 40 45 47 48 52 54 56 55 56 56 57 57 60 70 67 64 69 64

GFSNW_850_rhum_015.txt.gz
RH
94 95 94 90 93 100 74 87 92 99 98 97 94 97 87 83 84 73 69 66 76 79 63 80 86 90 78 62 62 54 45 59 75 56 47 45 43 49 47 58 60 62 57 49
97 97 95 93 97 100 74 88 99 100 99 99 97 88 90 85 83 71 83 75 61 64 73 90 84 79 63 67 65 60 52 66 79 64 52 57 50 44 44 51 53 61 56 48
98 98 96 98 99 100 83 93 99 100 100 99 99 94 91 92 87 89 88 68 61 72 81 76 88 84 72 66 58 49 43 61 64 70 61 61 60 52 49 44 58 57 53 41
98 98 99 99 100 100 90 85 86 94 97 97 97 97 92 88 95 87 89 72 62 68 93 90 86 82 70 61 58 51 48 55 53 49 50 52 56 57 53 49 43 44 45 49
98 98 99 99 100 100 98 82 77 80 76 70 98 96 95 88 92 88 78 74 63 66 80 76 86 75 69 65 57 55 49 57 45 45 51 53 58 59 50 46 52 49 48 49
96 98 99 100 100 100 82 72 70 65 61 62 73 70 84 91 89 87 70 62 68 74 59 53 56 52 54 56 54 55 51 50 54 58 45 42 50 50 62 50 56 43 52 39
95 100 100 100 100 100 98 71 75 68 59 66 62 58 73 83 73 84 62 62 63 68 50 46 47 49 50 48 53 47 58 46 50 56 46 54 42 44 51 52 49 49 44 46
96 100 100 100 100 100 100 70 78 70 61 64 60 61 62 61 74 81 75 69 64 49 50 74 79 78 54 61 64 56 51 51 62 62 57 45 50 52 54 50 55 47 64 68
91 97 98 100 98 100 100 66 77 76 69 65 56 61 54 62 64 82 78 77 65 59 76 68 94 98 85 68 63 52 53 64 71 82 63 47 39 47 42 46 56 61 60 66
91 91 100 100 95 100 100 76 82 84 61 64 54 62 58 50 58 69 68 73 78 72 81 77 80 81 66 69 67 70 66 67 60 72 64 58 47 48 42 54 47 65 59 61
90 96 100 100 99 100 100 93 89 92 66 75 68 56 51 54 48 59 56 63 55 85 88 81 81 78 71 70 63 60 61 70 72 77 70 56 50 49 52 56 64 57 54 53
88 98 100 100 99 100 100 100 94 97 71 82 76 67 60 58 57 43 59 60 60 55 82 85 87 79 81 74 73 68 62 57 66 63 63 62 58 56 56 57 53 54 51 52
88 97 100 100 94 100 100 100 95 88 79 91 86 81 75 68 55 43 56 67 58 62 62 83 85 71 83 81 78 71 67 67 73 61 64 64 64 58 52 51 52 54 53 56
92 98 100 100 91 100 100 100 96 88 77 93 91 92 84 74 67 59 58 55 58 58 61 82 86 77 78 81 72 72 70 68 77 79 74 66 62 57 56 56 56 58 60 61
95 97 100 100 94 99 100 100 98 90 83 93 99 92 92 85 72 68 61 61 59 64 80 85 86 88 89 97 86 84 81 75 75 74 66 65 62 61 61 58 61 63 62 64
95 99 99 100 95 100 100 100 100 95 81 83 100 97 97 85 77 70 66 65 65 71 77 95 94 90 78 91 88 70 68 64 56 65 64 60 60 62 61 58 60 60 53 45
88 99 100 100 100 100 99 90 98 90 78 75 100 100 99 89 82 81 80 78 77 74 88 92 89 91 75 86 82 61 66 70 68 62 60 74 68 67 61 54 54 51 42 41
94 100 100 100 100 100 94 94 94 85 67 66 100 100 98 96 98 99 94 89 87 89 94 93 89 96 88 90 76 70 67 73 73 67 60 58 60 61 60 59 44 37 40 43
100 98 97 100 100 93 88 92 95 79 70 96 94 99 100 98 100 98 90 89 97 98 95 94 90 92 95 77 79 76 76 68 73 72 65 64 58 61 54 36 38 43 44 43
99 100 96 91 88 89 84 91 80 70 78 76 98 90 99 93 96 98 90 93 99 100 99 97 99 95 76 68 60 59 70 69 67 72 79 70 61 37 36 38 40 40 42 45
100 89 85 96 100 82 72 94 88 95 97 95 96 92 97 94 94 96 89 98 97 98 93 96 96 98 90 78 74 71 70 66 64 56 53 52 33 36 37 38 40 41 43 49
92 81 99 95 76 78 84 93 99 94 95 99 98 96 91 90 77 87 88 98 91 90 93 99 99 86 71 79 80 77 74 68 62 41 36 36 35 37 41 42 42 42 46 54
89 90 90 85 97 98 92 98 93 100 99 100 100 99 94 83 78 97 90 89 94 91 99 94 89 74 72 71 71 80 77 72 38 40 37 37 40 46 49 50 50 51 50 50
97 99 99 96 99 97 90 92 92 81 95 100 97 99 99 94 94 92 88 93 88 94 95 88 91 64 71 82 86 82 83 60 42 41 40 43 48 53 57 59 60 61 59 56
100 99 98 99 97 98 89 94 98 99 100 86 91 95 91 97 95 90 97 99 87 80 90 88 63 63 59 59 73 72 52 44 43 42 43 42 44 48 54 59 63 66 66 62
100 99 97 97 96 100 100 95 99 99 89 68 69 98 96 100 95 98 96 89 89 86 91 60 63 64 46 39 38 37 36 37 39 42 47 49 48 49 53 59 66 70 68 64
99 98 93 86 91 96 98 92 99 96 78 97 94 88 88 96 97 94 93 92 88 70 62 61 62 47 42 40 40 44 47 50 54 54 55 56 56 58 61 65 70 69 68 70

GFSNW_850_rhum_018.txt.gz
RH
94 90 87 93 99 96 100 84 96 100 100 97 97 98 92 82 81 86 80 59 41 45 48 54 93 58 64 48 46 64 54 38 55 77 47 47 51 58 56 59 51 42 37 31
97 89 88 89 98 97 95 90 99 100 99 98 97 90 90 86 86 89 84 73 41 40 43 52 83 54 44 59 54 50 42 44 60 60 53 43 54 52 49 40 38 42 43 34
97 90 88 89 98 98 100 91 98 100 100 99 95 94 93 94 84 77 83 74 52 41 44 47 65 66 59 62 54 51 44 44 39 50 41 40 54 49 44 46 50 41 38 30
98 94 88 91 96 100 100 72 81 88 98 95 94 90 87 88 94 88 92 82 54 44 46 66 62 63 68 65 60 58 51 47 42 41 43 38 42 48 45 47 42 44 35 35
99 92 89 90 94 100 100 76 80 93 81 85 91 95 88 89 83 86 87 92 56 44 43 58 67 66 61 67 59 60 48 51 43 43 46 43 44 39 41 44 42 38 33 33
96 90 92 94 97 100 98 90 70 73 54 60 94 92 92 92 78 89 70 67 57 56 46 50 47 49 51 50 58 60 51 50 47 50 41 45 51 43 42 36 33 32 39 30
99 86 95 96 100 100 100 78 78 74 55 57 76 73 88 94 91 84 60 59 53 62 54 54 53 50 52 47 48 44 52 46 44 50 42 83 37 37 32 37 33 30 31 32
99 96 96 98 99 99 100 99 78 82 64 56 59 68 83 91 94 82 69 75 68 49 52 57 76 83 86 78 65 48 66 56 60 52 47 38 34 42 40 45 40 36 36 36
99 100 98 99 98 99 100 99 94 80 66 52 61 61 76 87 95 89 83 84 66 63 67 76 98 99 90 79 92 56 61 84 74 68 61 52 33 40 36 34 38 38 36 43
100 100 97 100 99 100 100 99 93 86 73 63 58 53 57 60 89 94 86 77 86 84 84 88 90 91 60 77 90 85 61 72 75 83 90 37 39 41 42 41 41 48 46 49
100 100 98 99 99 100 100 98 85 89 78 72 66 62 55 55 62 86 88 78 85 93 90 91 73 82 65 52 54 67 62 66 75 76 63 59 45 45 41 48 58 57 56 56
100 100 100 99 98 99 100 100 95 97 100 82 80 69 63 60 50 65 88 79 67 79 92 83 73 62 66 54 54 55 54 48 42 42 43 56 59 55 55 57 57 58 56 55
100 100 100 99 98 99 100 100 97 100 86 92 86 83 80 72 55 55 61 79 73 66 60 73 73 66 58 58 57 56 55 55 49 52 57 58 61 63 61 57 51 50 48 48
100 100 100 100 99 100 100 100 99 87 75 83 87 88 83 79 66 50 58 53 53 56 57 71 72 65 69 63 57 52 52 54 55 64 64 61 62 60 54 53 51 51 53 54
100 100 100 100 97 99 100 100 100 93 85 85 91 94 91 78 72 68 63 59 57 64 73 73 76 75 76 80 67 61 56 51 49 44 48 47 52 64 58 56 57 56 54 59
100 100 100 100 93 100 100 100 99 100 92 87 97 96 94 82 76 71 69 65 62 68 80 85 89 86 70 79 68 53 59 60 54 47 57 60 62 63 60 56 58 57 55 49
100 100 100 100 99 100 100 97 99 99 92 85 99 99 97 87 82 80 79 76 75 73 90 84 82 84 74 69 66 48 64 64 60 59 59 76 70 69 62 56 58 55 44 38
100 100 99 100 100 100 100 96 100 100 88 88 100 100 98 93 97 94 90 93 88 91 93 91 78 89 76 79 60 63 74 75 70 72 62 65 63 64 61 55 51 44 36 35
100 99 100 100 100 94 98 99 97 86 83 94 94 100 100 98 100 95 89 87 95 96 86 84 82 80 93 72 62 67 74 68 71 68 63 65 62 60 58 55 42 35 37 39
100 98 99 96 93 93 92 94 86 84 87 74 90 92 100 94 96 97 89 94 98 100 98 98 98 90 72 65 60 61 64 63 65 69 82 71 66 60 58 38 37 40 42 43
100 97 86 94 97 80 69 91 89 90 99 93 97 89 94 93 91 92 91 96 97 100 89 94 90 92 78 79 67 64 61 63 64 60 58 56 49 45 36 39 40 41 42 46
93 77 99 97 75 73 85 93 99 96 91 99 93 95 89 88 74 86 86 95 88 92 85 95 92 74 76 91 81 72 71 70 68 62 55 53 35 36 36 37 40 41 42 44
88 91 87 83 95 97 92 98 94 98 99 100 100 100 90 80 75 88 80 88 88 85 95 87 78 74 77 88 86 80 74 73 66 62 40 36 35 39 41 42 45 48 50 51
97 100 100 98 99 90 87 82 90 82 98 100 98 99 94 91 88 81 87 84 80 88 92 81 62 72 76 80 88 80 74 47 41 38 38 41 45 48 51 53 54 57 59 59
100 98 97 100 96 99 94 94 96 99 100 86 93 94 89 93 89 80 86 96 90 78 75 70 72 73 77 81 89 82 58 44 42 42 45 49 51 52 52 54 58 63 66 66
100 99 96 98 96 98 99 100 100 99 90 66 68 94 92 97 88 92 92 84 85 74 83 68 67 70 84 89 87 78 53 47 46 46 44 43 45 46 49 58 64 70 70 68
99 96 95 89 94 94 96 96 99 98 82 90 89 86 88 92 96 94 80 85 77 80 70 64 61 51 61 80 74 52 44 41 43 46 48 49 51 55 61 64 70 71 70 69

GFSNW_850_rhum_021.txt.gz
RH
99 100 99 90 85 98 100 100 96 98 98 98 96 97 95 87 82 90 90 78 54 39 34 42 52 49 42 37 45 86 74 81 100 93 62 48 57 54 48 47 49 35 33 32
100 100 100 90 87 100 99 94 90 100 98 98 97 94 94 91 90 88 91 86 57 32 35 45 54 52 32 48 49 57 58 57 99 99 83 67 63 59 54 42 39 40 36 34
100 100 100 88 86 100 100 89 98 100 100 91 89 96 95 96 84 86 82 64 44 37 37 34 48 57 43 47 39 47 46 46 42 54 55 66 67 63 50 46 48 41 35 30
100 100 100 85 87 99 100 90 87 76 97 94 93 90 87 95 94 86 77 87 53 42 40 39 43 46 47 47 50 46 52 48 37 31 34 40 47 52 53 54 45 44 33 31
100 100 96 82 88 99 100 89 69 90 86 77 84 92 93 95 89 89 94 93 59 40 33 35 51 49 48 57 55 50 50 49 40 42 38 36 37 37 41 42 40 36 32 31
99 100 97 86 91 100 99 96 76 70 50 62 85 83 89 87 83 80 75 76 70 45 29 28 42 44 40 44 54 57 56 56 46 48 38 42 50 37 36 36 34 33 39 31
99 98 100 89 94 92 99 98 88 79 57 39 50 83 91 90 91 82 81 80 69 46 46 48 53 47 45 45 44 44 54 52 52 61 43 74 36 30 30 33 30 30 32 28
97 100 98 98 98 96 100 99 82 78 59 39 57 81 92 95 98 90 66 66 68 53 50 50 80 85 76 74 57 50 47 58 63 58 50 36 32 33 33 36 36 28 28 26
100 100 97 99 99 98 100 99 100 87 64 42 56 53 85 96 97 93 75 76 68 60 58 66 98 99 92 98 93 61 77 60 72 59 58 59 34 34 30 29 41 25 27 29
98 100 97 100 99 99 100 99 100 98 72 54 58 50 74 88 97 96 71 69 80 86 74 78 86 96 70 96 98 92 91 92 97 90 74 56 35 34 34 39 44 35 32 32
98 100 99 99 99 99 100 98 100 96 75 70 68 72 56 69 85 94 82 80 88 88 88 80 74 81 61 64 72 69 77 91 95 94 94 84 37 40 38 47 46 41 40 42
97 99 99 100 99 99 100 100 99 99 97 98 81 74 63 59 75 87 90 91 81 88 95 84 61 67 65 48 74 49 71 47 54 54 57 48 48 48 51 48 48 49 50 54
98 100 100 100 98 99 100 99 100 100 99 95 93 88 79 72 60 78 89 89 82 77 76 88 90 67 52 62 52 50 46 43 40 41 46 48 49 57 56 52 53 53 55 56
98 100 100 99 99 99 100 99 99 99 91 80 84 86 87 81 66 70 72 86 87 85 79 85 84 71 60 55 50 45 45 45 46 48 54 54 55 54 55 56 57 57 56 55
98 100 99 100 98 99 100 100 100 99 95 79 82 94 87 77 74 60 65 62 66 66 75 74 76 67 67 65 56 52 48 41 44 40 39 39 45 56 60 60 59 53 49 56
98 100 100 100 99 100 100 99 98 99 100 95 88 96 95 81 82 80 72 71 68 76 70 75 76 82 66 76 64 46 44 46 48 40 45 49 54 60 60 62 62 58 55 49
98 100 100 100 99 100 100 97 98 91 100 89 99 86 96 89 89 83 86 80 79 84 83 77 72 73 72 65 63 46 48 52 57 57 56 58 62 64 66 61 57 56 51 46
96 100 100 100 99 100 100 92 95 100 100 89 100 100 97 89 88 85 89 86 87 93 85 84 70 77 66 72 53 47 54 60 61 62 60 60 62 70 73 61 56 50 41 38
100 100 100 100 100 100 97 94 100 100 98 97 99 100 100 97 99 96 89 92 84 95 79 74 79 69 89 69 61 57 62 63 64 71 66 67 71 73 65 58 54 42 39 39
100 100 98 99 97 93 92 99 96 96 91 89 91 91 100 94 93 96 86 92 97 100 94 93 92 83 64 66 62 58 66 70 64 71 91 81 77 68 63 56 47 39 37 36
99 99 91 100 96 92 86 98 98 92 98 91 88 80 93 92 89 91 90 97 98 100 89 92 87 78 69 80 76 66 70 64 64 59 55 63 61 61 58 43 38 38 34 35
98 82 99 94 75 73 95 99 99 95 90 92 86 86 80 84 71 87 86 98 92 98 75 93 86 67 75 81 80 80 75 71 69 62 65 67 60 54 37 37 35 34 37 40
97 87 90 82 93 98 100 98 94 92 96 100 97 98 84 82 74 89 82 98 90 77 87 87 74 74 84 89 87 84 83 75 70 67 61 57 42 38 33 32 37 40 43 46
98 99 100 99 100 88 88 78 92 87 99 100 98 93 86 80 87 76 98 79 75 88 90 78 57 69 80 94 94 84 79 71 63 56 41 37 34 36 40 43 46 48 51 54
100 99 100 100 95 100 99 99 96 98 100 92 96 92 82 89 94 73 83 93 90 77 71 69 76 77 84 94 83 75 69 61 44 39 36 38 41 44 47 51 53 55 58 59
100 99 97 96 96 98 99 99 99 99 89 69 72 97 97 96 86 90 86 82 81 76 91 81 79 82 88 94 73 53 45 39 38 39 41 43 46 48 49 53 57 59 61 64
99 97 89 94 94 91 92 95 99 96 81 99 94 95 94 81 91 87 73 81 84 89 86 83 80 82 91 91 61 46 43 43 44 42 41 44 46 48 52 56 59 64 68 69

GFSNW_850_rhum_024.txt.gz
RH
98 98 100 100 100 95 99 100 98 94 100 98 96 96 84 89 90 89 90 92 82 63 44 49 55 66 49 40 66 93 80 99 100 98 81 79 68 60 57 55 65 56 46 45
98 100 99 98 100 95 98 98 97 100 99 98 97 84 92 94 92 89 94 94 83 53 55 45 44 47 36 47 58 76 85 96 100 100 86 92 83 56 53 52 50 57 50 48
100 96 100 100 100 94 99 94 96 100 100 96 83 87 97 98 93 90 84 81 72 67 65 34 48 48 46 45 38 52 78 93 99 98 87 72 76 65 59 60 64 50 43 41
98 98 97 100 97 93 100 86 93 85 98 96 94 88 94 96 97 92 87 87 84 68 51 40 41 51 50 56 45 60 63 86 79 71 66 62 68 65 65 67 57 54 41 36
100 98 100 91 96 99 100 97 89 89 85 74 82 90 94 96 92 91 92 90 72 66 48 36 40 46 50 54 54 52 50 73 53 47 62 65 65 58 60 57 54 52 49 41
97 97 100 100 99 100 99 96 75 79 68 76 89 84 90 87 88 85 79 79 78 75 51 28 55 33 38 47 55 65 60 66 58 58 42 42 54 46 54 52 50 50 56 39
99 100 100 97 99 99 99 97 85 79 89 68 66 72 84 89 87 93 77 87 79 58 47 42 51 50 51 44 51 50 62 64 73 79 50 75 40 32 33 38 38 40 38 35
98 94 96 87 98 100 100 99 94 96 93 76 58 64 81 84 97 96 86 91 76 66 50 70 91 85 74 71 60 55 50 62 74 71 61 47 39 35 36 43 44 34 36 36
98 97 98 100 99 99 100 99 97 94 95 75 55 55 82 91 98 99 90 78 71 59 66 69 93 99 87 93 83 65 70 68 80 83 77 70 43 35 31 32 55 40 36 38
98 99 100 98 97 100 100 99 99 100 96 78 61 58 68 93 99 96 91 77 89 83 78 83 91 96 78 96 96 91 92 90 91 88 83 76 38 34 33 52 53 44 36 42
97 98 98 100 100 100 100 98 100 99 95 80 76 74 64 76 99 95 79 86 88 96 89 82 84 91 83 91 79 82 91 95 98 94 96 92 38 39 45 53 44 41 45 49
99 99 99 100 96 100 100 100 99 100 98 99 89 84 71 69 78 96 86 94 83 86 94 88 71 80 69 65 95 62 82 69 78 84 80 50 50 51 47 48 45 51 54 55
98 99 100 100 100 99 99 100 99 100 99 90 89 88 80 71 65 88 93 93 90 88 88 89 90 70 69 69 66 63 57 46 53 52 52 52 50 50 50 49 51 53 54 55
96 98 99 100 99 99 100 99 99 100 98 94 94 91 85 84 79 72 90 95 94 90 94 96 93 90 66 71 61 57 52 52 54 55 56 55 53 52 53 54 54 55 56 54
95 98 99 100 100 100 100 99 99 100 99 98 88 92 87 84 79 66 77 87 100 97 98 95 92 80 77 74 67 65 52 50 59 55 46 46 54 55 55 56 56 56 54 59
94 98 97 100 100 100 100 99 97 99 100 100 99 93 94 88 84 75 71 74 74 70 77 86 78 76 74 87 82 51 45 41 41 47 45 44 54 56 57 58 58 56 51 49
97 98 98 100 100 100 98 96 99 93 96 99 99 96 92 95 93 90 84 79 78 83 81 88 81 80 76 80 82 55 45 47 47 48 51 62 60 61 62 60 63 56 54 52
97 96 100 100 100 100 97 100 100 100 100 97 100 100 96 88 86 93 89 87 86 85 89 82 84 81 77 86 66 50 51 53 53 54 53 55 61 63 65 62 60 54 49 43
95 95 100 100 100 99 98 100 99 100 98 99 98 100 100 93 97 92 87 89 91 90 88 89 86 84 95 75 67 53 57 56 62 61 61 63 66 69 67 62 55 41 42 40
98 100 100 100 99 99 100 100 100 95 98 94 97 95 100 95 91 96 89 92 96 100 96 90 96 91 69 67 64 57 57 58 60 67 79 74 77 72 71 59 48 37 36 38
100 98 100 100 99 89 93 100 100 100 100 99 91 94 98 94 95 97 95 99 100 99 97 98 98 91 84 73 73 62 62 62 62 58 58 66 66 70 63 53 43 38 37 34
99 96 100 97 84 83 98 100 100 100 97 92 94 89 81 81 73 89 90 100 98 92 81 97 91 85 72 70 78 73 68 70 68 62 61 70 72 63 52 41 40 36 34 38
95 99 94 87 99 100 99 94 99 90 98 96 94 98 78 74 71 94 94 98 97 82 87 87 90 82 76 84 82 83 80 76 72 72 72 68 63 50 37 37 36 36 37 41
100 100 100 96 100 95 98 93 92 87 91 100 90 93 94 80 96 91 87 90 86 93 95 90 91 74 88 89 85 83 77 73 71 70 64 51 40 39 36 34 38 38 40 46
100 100 100 99 99 99 100 99 99 99 100 83 85 86 86 98 93 88 86 91 95 92 89 93 83 81 94 92 84 75 70 66 61 50 40 36 34 34 41 45 46 48 49 52
100 100 97 98 95 99 98 99 99 98 91 71 65 98 95 92 93 93 93 92 91 88 99 82 77 89 92 77 76 69 60 48 41 37 35 37 40 41 44 51 52 52 55 57
99 99 88 94 90 93 95 98 99 96 79 99 97 91 92 91 91 94 86 90 95 96 84 83 79 94 81 74 70 57 45 41 40 41 43 44 45 45 45 46 54 58 63 66

GFSNW_850_rhum_027.txt.gz
RH
99 98 99 98 99 100 100 100 94 100 100 98 96 100 85 74 79 82 89 92 95 93 77 86 77 85 66 51 63 85 92 99 99 93 79 69 71 75 78 86 100 86 60 51
99 99 98 98 99 96 98 98 99 100 100 98 98 86 77 80 82 93 95 95 90 72 72 87 60 54 47 59 69 85 93 99 100 99 96 91 94 82 74 87 82 69 64 52
99 98 98 100 99 98 96 96 98 100 100 95 90 91 90 95 92 93 90 90 85 87 84 72 73 51 52 63 59 66 84 98 100 100 91 86 97 94 86 77 81 71 60 56
99 98 99 96 100 94 96 93 94 87 98 98 90 86 93 97 99 94 94 95 91 83 89 75 66 54 51 61 53 70 89 99 96 92 81 72 74 74 76 83 77 65 51 50
98 98 99 99 96 100 100 96 97 86 89 81 96 95 96 95 94 93 95 96 82 83 84 67 48 55 60 66 60 62 73 98 89 92 65 66 68 65 71 70 66 58 57 50
97 100 99 97 94 100 99 94 86 83 87 84 94 95 94 84 86 86 83 86 85 84 76 64 56 50 52 50 62 59 65 79 88 84 68 65 72 69 67 65 57 56 62 48
94 99 100 98 100 98 98 87 80 85 94 87 88 83 79 86 87 91 81 86 87 71 66 58 49 46 59 69 64 59 74 71 79 83 58 73 46 38 52 64 54 54 49 40
97 98 98 99 100 100 99 92 83 81 94 82 81 86 76 89 85 88 85 85 81 72 64 78 88 86 71 72 68 72 58 70 81 76 76 58 42 38 40 47 48 44 51 46
98 98 98 100 100 99 100 99 96 86 91 88 79 74 86 90 92 99 94 92 88 74 73 82 98 100 91 91 79 73 68 69 84 89 83 74 45 38 34 36 56 47 42 54
98 99 98 98 100 94 100 99 98 91 93 83 85 73 83 84 94 97 96 93 92 77 87 91 87 90 79 96 97 93 88 90 96 87 91 76 46 37 37 46 47 53 48 50
98 98 96 98 100 99 100 98 99 99 98 86 90 79 73 83 86 98 93 96 98 96 94 84 94 82 83 88 82 88 86 92 95 88 95 91 40 37 39 48 47 57 61 57
98 93 97 97 100 100 99 100 98 100 98 95 97 86 81 79 74 87 91 99 88 85 88 90 86 90 86 84 96 74 93 79 86 83 74 55 51 49 50 49 50 63 59 63
98 96 98 99 100 100 100 100 99 100 100 94 94 85 79 82 72 79 95 94 95 92 81 90 88 76 78 86 83 78 69 63 70 72 58 54 52 49 50 48 48 55 54 57
96 94 95 99 100 100 100 99 99 95 98 97 88 95 94 86 80 76 96 100 94 89 90 95 92 88 71 80 65 72 68 60 61 59 60 55 53 50 54 54 54 56 58 56
96 89 97 98 100 100 100 99 98 96 98 99 95 92 91 89 85 79 82 94 100 99 98 94 94 91 80 79 70 71 55 59 62 66 50 46 50 53 55 55 56 56 53 57
89 88 97 100 100 100 100 100 98 87 100 99 100 95 91 89 85 84 83 88 100 91 94 95 95 87 78 84 77 58 47 42 42 46 44 46 50 57 55 55 56 54 50 49
88 90 98 98 100 100 99 93 93 79 92 100 100 98 89 89 92 89 84 84 83 86 85 91 88 83 78 88 90 59 50 46 45 45 48 64 59 62 57 56 57 54 54 52
88 95 100 100 100 99 100 99 100 98 99 100 100 100 97 90 93 90 91 87 87 87 91 83 90 82 84 88 72 56 52 55 56 53 47 52 58 61 62 59 59 58 60 60
97 96 100 100 100 100 99 100 98 100 100 99 99 100 100 96 96 90 88 92 96 92 93 93 90 90 94 74 71 58 56 54 61 58 56 62 63 65 65 62 59 51 54 48
99 100 100 98 100 96 97 98 98 100 100 96 97 97 99 95 92 97 91 94 98 100 96 88 98 95 74 74 68 57 54 50 58 66 79 71 71 69 70 61 50 41 42 41
100 100 100 100 99 92 88 100 100 100 100 100 94 92 97 94 94 96 96 99 100 97 94 92 98 98 87 73 70 62 58 57 58 52 56 62 62 67 62 54 46 40 38 34
100 100 100 100 92 92 98 100 100 96 96 99 97 96 90 94 89 93 97 98 96 89 87 96 96 86 73 71 76 69 65 64 62 59 61 66 69 65 54 46 44 39 34 36
100 100 99 96 100 99 96 98 99 99 100 93 94 98 76 85 83 94 94 100 97 84 90 93 90 84 79 81 81 81 79 74 66 72 73 74 67 56 44 41 38 36 38 42
100 100 99 96 99 95 88 82 91 79 89 99 82 94 91 80 92 92 88 94 87 96 99 89 93 78 89 87 84 82 82 77 77 79 78 66 55 45 40 36 37 36 40 52
100 100 99 98 98 100 100 99 99 98 93 81 82 86 81 97 91 87 88 93 97 90 85 89 81 85 89 84 82 79 77 78 76 71 62 51 45 40 42 45 45 43 46 52
99 100 99 99 96 99 98 99 100 99 91 68 65 94 92 95 92 96 93 89 88 79 94 79 81 94 90 80 75 75 75 72 65 53 44 41 41 40 46 54 53 54 53 52
99 98 94 91 94 96 94 98 99 95 77 93 94 83 74 93 99 100 92 89 87 98 86 76 83 92 82 78 72 70 65 53 46 43 42 44 45 45 48 49 59 57 59 58

GFSNW_850_rhum_030.txt.gz
RH
85 97 100 97 98 96 100 99 99 100 99 98 97 99 82 68 76 79 83 83 94 95 94 95 85 86 65 52 56 90 87 100 98 89 75 71 72 74 69 76 70 70 98 74
86 96 100 99 99 99 99 100 96 100 99 99 98 94 76 75 81 82 89 95 91 83 92 98 79 63 53 54 62 92 93 100 98 99 99 84 81 70 62 53 80 72 89 71
94 99 100 98 100 99 100 99 100 100 100 88 92 89 83 89 81 78 87 93 90 92 96 78 86 72 51 53 60 79 89 100 99 96 91 89 99 84 70 61 88 69 95 85
97 98 99 99 98 95 97 98 96 88 90 98 90 81 83 88 97 86 90 96 95 95 95 90 90 73 66 68 65 85 92 100 100 97 94 95 78 90 83 78 68 78 61 80
98 98 99 98 97 99 97 98 95 84 82 88 87 87 93 91 91 93 97 99 86 93 94 81 62 61 59 65 70 86 88 100 100 99 84 94 93 82 78 82 85 92 69 59
100 93 97 98 100 100 98 97 83 71 87 85 92 95 84 87 80 86 81 90 95 87 88 75 71 68 65 60 70 75 86 97 100 100 77 90 99 94 88 96 84 80 74 47
99 95 97 98 98 100 99 90 79 82 92 87 87 88 90 92 86 84 84 88 93 80 72 70 71 69 68 65 75 63 68 75 87 98 67 74 48 41 57 60 58 53 54 41
95 94 97 99 100 100 100 90 77 82 94 80 84 87 88 86 79 91 87 78 83 84 82 87 87 82 79 73 68 76 75 76 92 97 86 59 44 41 51 64 59 57 56 54
96 96 97 99 99 100 100 88 80 76 90 91 75 83 88 93 89 88 91 96 93 84 82 86 98 98 97 90 83 78 73 74 87 95 83 73 47 39 36 38 58 48 46 60
100 95 89 99 97 100 97 98 84 86 85 88 87 90 88 83 90 96 96 98 98 83 93 93 93 99 81 96 87 96 85 84 92 93 94 76 53 40 39 48 47 51 51 55
99 94 90 96 100 100 100 98 97 92 94 91 87 87 85 96 92 96 91 100 99 97 94 92 93 87 87 89 83 77 90 92 94 92 94 78 46 37 36 44 59 65 66 61
95 96 92 93 98 100 100 100 100 99 99 94 93 83 83 88 85 91 94 99 95 86 90 90 86 91 88 82 98 78 88 81 87 82 76 59 52 49 52 51 56 65 67 66
96 98 96 88 99 100 100 99 99 98 99 98 96 82 76 83 89 91 96 95 94 96 89 90 90 82 88 96 90 83 77 69 80 73 60 56 51 51 51 49 51 58 61 64
89 97 89 92 98 100 100 99 98 99 95 98 86 88 96 90 89 78 90 100 100 96 95 93 93 87 76 83 70 79 77 71 71 73 57 55 52 50 53 53 55 58 65 62
99 95 86 88 98 100 100 99 99 99 98 99 99 94 92 91 90 89 90 97 100 100 98 94 91 92 85 83 75 76 60 68 69 72 50 49 51 49 56 56 61 59 58 66
92 90 88 90 100 100 100 99 99 98 94 94 100 96 94 93 93 94 90 95 100 100 96 96 98 87 83 92 85 57 48 44 49 50 45 49 51 58 58 56 60 60 56 54
94 86 83 86 99 100 100 91 87 84 94 100 100 98 92 90 92 91 86 90 96 96 97 94 91 91 84 90 94 64 59 48 46 45 50 67 63 64 60 56 59 54 52 50
94 89 97 96 98 100 100 100 97 86 94 99 100 100 94 93 94 95 92 89 89 91 95 88 92 88 87 94 75 63 61 57 57 53 48 50 58 61 62 58 57 54 54 53
90 97 96 100 100 100 94 100 100 94 99 99 99 100 100 94 98 92 92 94 96 93 94 95 95 91 94 74 71 62 60 55 61 58 57 61 61 64 64 59 57 52 61 57
91 96 100 98 100 97 93 99 100 100 100 92 98 95 99 97 92 96 92 96 99 100 96 91 97 96 75 73 72 68 58 55 56 67 81 73 72 67 66 59 53 48 49 45
100 100 99 100 100 97 94 100 100 100 100 100 94 92 97 90 93 94 96 100 99 96 93 93 95 97 89 75 74 67 59 57 55 51 51 57 56 65 64 60 51 43 40 38
100 100 100 100 99 97 100 100 100 99 94 99 99 97 88 93 89 93 97 98 97 96 89 97 98 91 76 72 77 71 65 63 61 59 58 63 64 64 60 52 46 40 35 33
100 100 100 100 100 100 98 96 99 100 100 97 98 99 88 95 92 97 93 97 96 86 95 94 91 83 77 77 79 80 77 72 65 67 67 68 68 63 50 44 40 35 35 40
100 100 99 99 99 93 92 89 95 80 87 97 83 94 91 82 95 94 92 91 87 98 100 84 92 78 77 83 86 82 82 75 72 75 76 71 63 53 46 38 35 35 40 49
100 100 99 99 97 99 100 97 94 97 93 84 82 84 78 96 92 86 90 96 99 89 79 88 79 80 87 87 87 84 82 81 80 79 73 62 53 45 45 42 40 42 46 54
100 100 99 99 98 99 98 100 100 100 92 71 63 90 85 92 91 96 88 88 83 74 91 78 82 88 86 86 85 83 82 82 81 72 60 52 45 41 46 52 49 48 48 53
99 98 99 99 97 97 96 99 98 96 77 92 94 78 73 92 100 99 90 83 83 89 86 80 86 87 81 82 81 81 80 77 69 58 48 43 47 48 49 49 57 56 57 56

GFSNW_850_rhum_033.txt.gz
RH
86 94 100 96 98 99 98 97 99 100 100 100 98 98 84 67 88 80 85 78 77 86 81 86 91 89 66 57 65 91 74 99 97 82 81 68 69 81 78 77 88 74 95 69
84 96 95 95 99 99 100 99 97 100 99 99 100 89 80 75 89 87 81 85 76 75 95 99 86 77 57 56 66 82 88 100 97 95 96 97 100 96 95 69 62 72 69 50
88 98 98 99 96 100 99 99 100 99 99 97 84 94 87 86 75 77 82 86 82 95 97 84 89 85 61 54 57 67 82 100 99 91 85 98 99 95 97 85 76 68 66 50
90 97 97 97 90 100 99 98 98 95 98 98 80 75 81 83 94 79 80 95 95 97 99 93 86 80 75 63 61 81 88 99 98 95 93 95 100 92 84 84 64 69 58 68
79 97 96 97 97 100 98 92 97 91 80 90 90 86 88 80 79 92 95 97 86 94 98 75 82 79 73 62 82 86 92 98 100 97 84 95 100 97 77 72 60 63 75 67
90 98 96 95 98 99 99 98 70 85 89 85 92 93 85 81 79 88 80 93 96 96 87 73 74 72 75 73 76 91 96 99 100 98 99 97 100 95 78 76 65 59 90 67
90 98 99 91 100 99 100 99 99 88 95 83 80 84 77 84 80 92 85 85 92 81 79 80 84 84 84 79 71 74 90 97 99 100 89 97 71 78 78 79 78 77 78 72
92 98 98 86 98 99 98 100 100 82 93 82 82 84 85 81 84 93 88 88 84 83 86 92 90 85 77 82 79 79 71 83 97 100 98 66 52 87 93 95 91 82 80 77
91 94 86 87 98 100 100 92 99 80 89 88 80 81 84 93 95 93 94 90 94 91 88 89 95 97 84 81 75 80 84 88 93 94 98 79 49 43 43 54 80 64 68 65
90 98 95 93 98 99 100 100 94 80 83 88 80 89 90 88 92 96 92 92 100 98 90 93 94 89 83 95 71 83 94 90 94 94 84 79 55 50 42 51 49 51 50 58
91 73 100 90 97 100 100 98 94 86 85 88 82 84 86 94 95 97 91 97 100 98 99 97 93 94 90 88 79 73 79 91 94 88 97 74 54 40 40 45 61 65 64 58
87 36 99 91 95 100 100 99 93 88 92 92 88 89 88 86 90 93 96 96 98 83 90 92 91 91 90 88 90 81 90 80 88 86 79 61 53 54 55 56 59 66 70 70
39 68 100 90 91 100 100 99 98 99 99 93 93 85 83 88 94 95 97 97 91 99 96 90 88 86 89 92 90 84 79 77 82 74 62 62 53 51 54 54 59 68 70 68
97 99 89 91 88 100 100 100 100 99 91 98 87 90 92 92 94 98 98 93 99 98 98 96 90 88 79 85 80 83 78 76 76 78 65 60 53 52 55 56 59 66 75 71
87 88 92 72 72 99 100 98 99 94 94 99 96 96 95 96 97 95 95 95 100 100 100 98 94 93 86 88 81 85 72 77 77 74 58 54 52 52 56 55 62 64 65 74
90 94 90 86 84 99 100 100 97 98 100 97 99 97 94 93 95 97 94 98 100 100 100 96 97 86 83 92 92 65 56 52 52 56 49 50 52 57 57 56 62 64 63 64
87 86 88 92 92 99 100 98 98 97 98 99 100 99 96 92 90 91 90 96 100 100 98 97 92 90 84 87 90 67 57 57 50 51 50 64 63 64 61 56 62 63 62 60
96 81 91 94 92 100 100 100 97 99 94 96 100 100 95 97 98 98 94 94 95 94 98 93 94 93 91 94 79 68 60 58 57 56 51 50 57 63 67 59 61 58 56 54
92 83 83 88 100 99 99 98 99 100 96 100 100 100 99 94 99 95 98 97 98 95 96 96 95 93 95 75 69 66 61 59 63 62 58 63 63 67 67 60 57 49 52 48
94 99 100 98 99 100 97 100 100 90 92 96 98 93 99 96 94 96 94 98 99 100 95 94 99 98 76 73 72 68 59 56 57 63 80 74 73 67 65 58 50 42 44 47
98 100 100 100 100 100 97 100 100 100 100 100 94 93 97 91 93 93 96 100 100 98 93 94 91 95 90 78 75 71 62 57 57 54 51 60 56 62 62 59 52 48 48 47
99 100 100 100 100 97 100 98 100 97 97 98 98 96 88 93 89 92 96 97 97 93 92 97 95 93 77 76 80 74 65 61 60 58 54 59 62 62 59 56 54 48 43 42
98 100 100 100 99 100 98 96 99 100 100 100 100 100 92 95 88 96 93 98 98 87 98 97 92 82 74 74 78 79 73 70 66 63 64 63 65 64 56 52 46 41 39 41
100 100 99 99 99 98 94 94 94 86 95 98 85 94 93 90 97 95 95 92 88 99 100 85 91 75 74 78 84 83 80 76 69 70 70 70 68 64 54 44 40 34 35 43
100 100 98 97 99 96 95 99 99 99 100 87 81 85 78 96 97 88 94 98 98 92 82 88 68 74 83 87 90 87 82 78 78 77 74 72 66 57 50 44 40 38 39 46
100 100 99 99 99 97 96 100 98 98 95 77 66 90 89 88 92 96 90 89 84 76 92 71 74 82 88 89 90 88 85 83 80 78 73 66 56 48 44 44 45 42 45 50
100 98 100 100 100 97 93 99 99 98 88 94 92 84 79 90 95 99 89 83 84 80 83 76 81 82 86 89 88 87 86 84 82 74 64 54 47 43 44 46 54 53 58 57

GFSNW_850_rhum_036.txt.gz
RH
89 91 95 100 98 100 90 99 98 99 100 99 100 100 81 76 87 80 81 73 76 81 77 75 83 94 70 63 78 91 75 96 96 82 58 67 62 90 80 97 92 87 88 57
92 87 86 98 99 99 100 99 98 98 100 98 99 90 83 79 90 86 81 84 75 73 80 97 85 77 62 64 79 88 74 98 98 84 92 78 100 96 96 84 92 81 82 55
91 85 83 98 97 94 98 100 100 100 100 99 91 94 86 94 75 83 78 78 71 85 96 87 92 86 69 63 65 67 71 91 94 85 70 78 100 98 98 97 96 79 74 52
88 90 84 99 97 93 100 99 99 99 97 99 89 76 74 91 95 81 81 92 81 76 98 93 97 93 76 67 63 69 82 99 98 94 85 87 96 100 98 98 86 90 59 55
88 94 93 99 97 87 99 97 99 98 80 92 94 81 93 79 91 84 87 93 70 78 97 91 88 74 74 74 83 89 87 100 100 96 83 96 99 98 100 95 92 79 62 59
84 91 94 97 98 98 99 99 99 97 92 95 98 92 86 81 72 84 74 78 83 91 87 89 86 78 72 80 81 87 96 100 100 92 91 100 100 99 98 95 75 70 79 56
83 92 94 98 97 99 100 98 100 97 98 91 92 83 76 81 78 78 86 83 89 79 78 88 87 81 86 86 84 78 90 98 100 98 99 96 76 79 85 92 70 64 57 57
77 92 93 100 96 98 100 100 99 97 95 78 78 85 82 76 78 82 77 87 84 90 93 94 96 95 90 86 92 89 76 88 100 100 98 86 60 89 90 97 90 76 72 59
77 92 88 93 98 99 100 97 87 99 90 85 70 78 86 94 95 95 92 88 93 99 90 97 99 92 79 81 71 85 86 83 98 94 99 97 58 52 73 72 87 79 75 75
83 80 30 99 99 98 100 99 100 94 89 86 81 85 88 82 90 96 92 91 99 100 97 100 99 79 74 95 66 96 99 99 98 99 97 81 56 55 65 76 51 60 77 76
82 74 36 100 98 98 100 98 90 90 86 89 84 78 87 92 88 97 90 97 96 98 98 98 95 95 88 90 74 70 84 91 87 89 96 80 54 49 54 51 56 59 58 63
81 63 93 100 93 98 100 100 95 98 88 88 85 83 81 83 78 88 96 94 95 88 92 92 94 93 94 89 91 81 85 79 87 84 82 61 58 54 57 58 62 67 71 66
33 95 85 84 93 97 100 98 95 99 94 88 85 79 83 91 88 92 95 98 92 98 98 92 92 93 89 94 90 84 78 78 86 80 64 63 57 55 58 59 68 73 76 71
58 97 94 89 88 84 99 100 100 99 87 95 86 87 89 92 90 91 95 97 97 97 100 98 95 92 82 88 82 86 78 82 80 80 72 64 56 56 59 60 67 74 76 70
76 92 89 90 89 92 96 96 99 100 99 99 95 91 97 100 100 100 100 99 98 98 100 99 96 94 85 90 85 89 81 78 81 76 59 56 55 60 65 63 66 71 66 72
90 89 75 63 91 96 98 99 99 98 100 91 98 89 99 98 100 100 100 100 100 99 100 97 94 86 84 92 92 73 60 56 60 63 53 53 59 68 66 64 66 70 67 68
98 100 99 68 83 99 100 100 100 100 100 96 99 98 96 97 98 98 99 100 100 100 99 99 96 93 88 90 94 64 62 58 59 55 54 65 61 65 68 65 70 70 70 70
95 99 96 67 78 92 98 100 99 100 96 96 100 99 96 98 100 99 99 99 100 98 99 96 96 93 90 97 81 69 66 60 60 60 55 53 59 60 66 66 64 68 70 69
97 94 77 86 94 97 100 99 99 100 98 99 100 100 100 94 100 98 98 99 99 94 97 96 96 94 98 83 77 65 65 60 64 65 59 62 60 66 67 66 62 56 61 57
97 98 97 100 97 100 100 100 99 98 93 98 99 92 99 96 95 96 95 99 99 100 95 93 100 94 79 72 68 71 62 58 62 66 78 75 75 68 68 66 55 48 49 49
90 98 100 100 98 100 98 98 100 98 100 99 96 92 97 90 93 91 95 100 100 98 92 97 87 94 90 82 77 73 63 59 61 57 53 58 59 64 63 60 51 47 47 48
99 100 99 100 99 99 100 100 100 92 95 98 99 95 87 92 90 94 95 93 96 97 92 96 94 91 80 78 81 77 68 64 64 59 57 61 63 62 58 53 50 47 47 50
96 100 100 100 100 99 95 96 100 100 100 99 99 100 91 93 88 96 96 99 97 88 98 96 94 81 77 77 82 81 74 71 67 63 65 64 66 65 56 52 52 50 51 51
100 100 98 99 99 98 98 97 95 94 100 100 88 95 95 93 98 94 100 95 87 99 100 86 90 72 77 79 82 85 80 76 70 68 70 70 68 66 60 54 52 49 51 56
100 100 98 100 100 100 96 99 100 99 99 94 82 86 79 97 97 88 94 97 99 95 85 86 67 75 80 81 86 86 83 78 74 73 74 75 70 64 63 55 49 39 36 39
100 100 99 99 98 96 90 92 98 97 100 86 71 92 92 94 94 95 97 95 90 80 92 66 76 82 86 87 90 88 84 81 78 79 77 73 67 58 50 49 41 37 36 39
100 98 99 99 100 99 94 96 97 100 99 97 94 86 80 90 97 99 89 86 84 74 68 77 82 86 86 90 90 88 85 83 82 79 76 67 57 47 42 41 47 46 46 50

GFSNW_850_rhum_039.txt.gz
RH
78 88 90 92 95 99 98 99 100 91 99 99 100 100 82 81 87 74 80 73 74 76 79 80 76 77 79 65 80 88 77 92 98 82 68 66 64 72 79 96 93 92 81 62
78 84 90 85 96 99 99 100 100 100 96 97 100 94 87 86 85 81 76 84 76 75 83 89 75 74 62 69 79 87 78 97 95 80 80 78 94 79 70 94 94 95 93 58
74 74 90 79 96 97 100 100 100 100 98 99 83 98 96 95 80 84 77 82 70 80 86 79 83 79 67 68 72 70 65 96 87 85 61 62 98 97 99 98 96 76 88 60
73 84 90 79 98 95 100 100 100 100 100 98 82 84 76 93 93 84 78 89 75 77 86 86 90 74 77 74 67 67 85 100 90 78 76 82 96 97 96 98 88 94 59 67
89 84 83 77 89 98 98 99 99 98 84 98 87 87 82 79 90 88 95 84 84 76 87 74 90 81 79 76 77 75 88 98 98 96 82 82 99 95 100 97 88 94 80 76
82 75 92 95 84 98 98 98 99 100 91 96 99 95 88 80 80 79 71 79 80 78 78 73 74 77 76 78 82 88 89 97 100 95 78 84 94 97 99 96 88 80 94 69
77 78 91 98 97 99 100 100 100 99 100 96 91 83 80 81 78 88 86 74 81 77 76 78 89 88 88 85 81 78 86 92 100 96 93 93 65 83 87 96 84 78 69 59
89 78 82 53 98 98 98 100 100 98 96 92 87 82 80 76 77 81 78 83 77 77 90 94 91 92 98 93 86 87 85 87 100 100 98 78 59 64 88 95 82 80 70 63
75 81 77 23 99 97 98 99 94 98 97 92 80 89 85 89 90 90 82 83 87 96 92 97 100 95 81 83 92 92 93 84 90 99 99 97 65 62 72 78 86 74 69 68
79 80 53 82 92 87 98 98 100 98 100 82 76 84 90 81 89 92 92 96 99 96 97 100 100 89 74 94 69 99 99 91 95 96 99 86 61 63 73 75 73 63 74 73
80 39 80 80 85 84 99 100 99 100 98 91 80 78 82 86 84 96 93 95 99 98 99 100 98 93 89 92 77 68 86 96 94 89 96 92 56 54 57 51 58 60 62 76
59 32 93 95 86 85 98 98 99 98 94 88 84 81 78 76 73 81 94 92 92 90 97 97 92 95 96 91 91 83 83 78 85 78 77 60 61 59 54 62 68 66 66 61
33 35 61 96 98 93 99 98 100 99 92 86 82 79 84 85 84 82 92 95 90 93 97 93 91 99 92 98 95 82 78 79 86 81 64 75 58 55 61 63 69 74 77 73
90 95 90 78 76 84 100 98 100 100 99 94 84 88 89 88 94 95 98 96 97 96 99 99 96 92 83 89 81 86 80 84 81 82 72 66 61 62 63 70 79 74 75 71
95 95 87 87 53 66 90 92 99 100 100 98 93 90 92 98 99 98 98 98 99 99 98 99 97 94 86 91 88 91 85 81 82 76 60 60 58 60 66 69 74 72 66 71
97 98 95 93 92 75 98 98 98 99 100 95 99 92 95 97 100 94 100 98 100 99 100 96 90 83 84 96 95 73 64 62 60 65 56 56 66 66 67 69 71 70 68 71
97 97 95 99 87 88 99 99 100 98 100 99 99 96 98 100 100 99 100 100 100 100 97 98 98 94 88 95 94 66 57 60 57 58 56 66 67 66 65 70 78 67 68 72
98 99 97 68 60 77 96 99 98 97 95 99 100 99 95 99 100 100 98 100 100 100 99 99 98 96 95 98 83 67 65 65 63 60 58 59 59 68 66 74 71 73 72 71
93 99 70 75 88 98 99 100 98 100 99 100 100 100 100 94 98 100 100 100 99 94 98 97 98 96 99 83 78 70 68 67 63 67 66 68 68 75 73 73 77 69 73 71
82 84 99 98 100 99 100 100 100 99 96 95 99 93 98 93 96 96 96 98 99 100 96 95 99 98 76 76 74 72 67 66 64 70 86 80 76 75 71 72 73 62 66 63
80 86 99 99 100 100 100 100 99 99 100 96 95 96 98 91 95 92 95 100 100 98 91 97 95 95 88 81 83 77 67 63 67 62 61 63 61 66 71 71 69 57 54 53
99 98 98 100 100 99 100 100 100 100 96 96 98 95 90 91 93 94 96 93 97 95 90 96 93 88 77 79 85 82 69 66 66 60 58 63 67 68 66 62 58 52 51 52
98 100 99 100 100 99 99 98 100 100 99 99 99 99 94 92 87 95 96 92 91 90 98 94 94 80 74 78 84 84 76 73 67 63 67 68 69 69 58 55 54 51 51 53
98 99 98 99 99 99 100 99 97 99 100 100 96 96 97 94 97 96 100 96 89 98 99 90 92 68 76 80 83 84 78 74 67 66 68 69 67 64 58 50 48 47 49 54
100 100 97 100 99 100 100 96 100 95 100 99 85 88 81 98 98 90 94 96 98 97 87 89 66 74 83 84 86 87 82 77 72 70 71 72 67 60 57 54 53 48 44 45
100 100 99 98 98 95 89 87 89 92 100 99 84 95 93 95 94 96 99 100 96 82 92 70 75 82 84 86 90 90 85 79 75 76 76 74 68 61 59 62 55 44 36 39
99 99 98 98 99 98 97 96 97 100 100 100 97 91 89 92 99 100 93 89 85 68 64 72 78 85 83 88 90 89 86 84 82 82 80 73 69 62 55 52 51 43 46 42

GFSNW_850_rhum_045.txt.gz
RH
71 74 91 93 71 79 98 100 98 99 91 93 100 88 92 80 58 62 52 45 47 52 51 57 56 55 48 43 43 58 52 68 82 70 45 41 43 56 59 85 65 70 71 58
74 71 74 94 54 93 100 100 100 97 91 99 100 82 94 80 64 60 55 57 46 41 51 60 50 48 46 47 47 51 53 79 82 79 63 47 58 52 49 66 79 92 90 58
79 72 82 74 57 100 99 99 100 98 98 92 85 94 96 89 70 63 53 54 45 48 55 48 56 56 56 53 47 55 49 65 84 71 59 53 98 71 66 98 96 69 70 56
77 82 81 63 71 100 99 99 100 98 99 81 89 68 92 73 71 61 55 57 50 50 60 60 59 52 66 61 62 57 60 92 69 68 58 56 62 68 68 96 96 97 68 70
79 67 81 50 62 91 98 98 100 98 68 63 78 68 91 74 71 62 58 54 49 45 52 46 56 55 59 64 62 64 70 86 74 92 62 57 68 54 55 73 95 93 95 93
77 81 71 48 75 84 98 98 99 100 79 59 58 56 50 53 57 59 50 48 54 56 53 48 49 50 52 64 65 75 84 97 98 78 55 51 76 69 75 92 90 93 90 58
80 84 48 77 78 81 90 97 99 98 97 79 58 54 49 50 51 56 58 51 50 66 68 64 63 62 69 74 69 70 78 90 90 77 56 75 42 48 60 74 80 69 72 62
77 80 42 82 78 86 88 98 99 99 100 79 71 59 52 51 58 59 60 60 63 73 76 77 71 74 81 72 80 73 73 95 83 78 65 49 40 49 57 80 86 67 70 59
91 80 38 69 94 88 98 100 100 99 98 77 59 58 54 57 56 64 65 79 76 80 78 88 95 75 56 60 78 69 71 78 96 74 84 73 49 49 58 65 97 58 77 74
94 72 41 29 59 75 97 100 100 100 99 90 72 62 61 60 56 64 66 86 88 86 93 97 97 79 46 58 60 93 93 98 95 84 85 55 36 44 67 65 81 61 80 79
92 88 82 86 88 50 86 100 99 99 99 94 80 78 66 60 63 62 84 86 92 98 94 96 95 78 56 52 45 68 82 90 92 98 98 81 42 47 60 52 64 62 85 77
94 95 97 94 90 71 78 99 100 100 99 99 89 82 77 75 73 76 79 74 82 80 92 98 86 75 55 49 52 43 61 59 82 63 55 36 46 49 51 58 58 61 70 85
92 95 99 99 93 79 85 82 96 99 100 83 79 85 82 77 78 74 74 92 86 92 86 90 87 91 61 60 53 47 48 43 55 53 41 43 44 49 61 71 68 74 76 77
91 94 96 98 94 88 55 78 89 98 100 95 76 76 82 76 78 80 80 87 87 88 93 96 89 84 64 57 62 60 50 55 54 51 44 44 54 62 68 74 74 73 77 81
84 94 96 97 90 87 51 73 86 95 99 97 87 82 77 83 86 90 90 94 92 98 99 95 84 77 88 68 71 65 51 50 56 48 49 50 53 69 73 73 75 74 76 78
88 91 99 95 98 95 100 100 98 99 99 100 90 89 89 89 93 98 100 99 100 98 94 82 76 72 69 76 73 47 44 49 51 48 58 61 67 68 74 74 73 75 75 77
39 97 97 98 98 98 100 98 100 100 100 97 97 88 89 92 100 100 100 95 98 100 88 88 80 94 84 67 66 42 48 54 55 60 63 63 70 68 72 71 72 76 76 75
66 92 99 99 98 92 90 100 100 99 94 100 100 96 89 98 99 99 100 97 98 97 94 92 96 88 86 92 65 56 55 56 55 61 63 64 65 68 74 77 72 74 74 77
76 88 99 92 93 95 97 100 100 100 100 97 99 100 98 99 97 100 100 99 98 95 97 96 99 93 98 76 62 62 65 68 67 72 76 70 68 72 78 78 72 76 77 78
75 79 100 98 96 99 100 100 99 99 98 99 98 93 79 91 94 94 96 100 99 100 97 96 99 85 71 65 73 74 71 72 76 78 90 86 79 82 74 80 76 81 82 80
77 87 89 96 100 100 100 99 99 99 100 96 93 89 77 91 92 94 94 96 99 100 92 89 89 74 65 76 75 78 73 71 70 71 70 67 69 77 82 85 90 75 73 72
94 93 99 99 100 98 100 97 100 100 93 93 90 90 92 95 93 100 98 100 96 98 76 88 91 65 72 74 82 90 84 76 75 69 78 90 72 80 84 85 77 70 68 67
99 99 100 99 99 99 100 99 99 100 99 99 100 99 98 95 92 95 94 100 98 79 92 87 74 74 65 78 85 90 82 78 72 71 67 71 73 79 78 82 72 66 64 63
97 98 97 94 100 100 100 98 100 99 99 100 100 99 98 94 98 87 100 87 86 96 95 91 59 68 68 81 85 89 84 77 72 70 71 74 76 78 78 79 70 64 60 58
98 98 95 97 97 99 98 97 94 96 94 100 98 94 91 99 98 88 94 96 96 87 86 81 76 67 79 83 85 90 88 80 76 75 79 82 81 79 80 79 69 60 53 52
99 100 99 96 97 98 99 97 97 99 99 100 100 100 100 100 94 97 98 87 92 90 97 83 74 78 86 87 88 90 90 84 79 79 82 85 84 80 78 75 63 55 49 47
86 99 94 98 99 98 96 100 98 95 99 100 100 100 100 98 98 98 86 93 96 92 92 83 83 87 86 86 90 90 90 89 86 83 84 84 82 78 73 65 59 55 53 51

GFSNW_850_rhum_048.txt.gz
RH
62 61 90 96 82 98 97 99 100 97 83 94 99 98 80 95 85 57 45 42 47 55 53 60 53 60 50 43 44 56 50 70 94 79 54 53 55 62 66 89 82 85 97 71
72 73 70 83 59 98 99 98 100 94 95 94 96 83 94 93 91 59 52 49 42 41 53 66 52 51 44 43 47 58 57 84 80 71 63 50 62 58 58 64 80 85 90 67
85 54 68 44 62 100 98 98 98 98 97 97 76 85 99 96 73 59 49 47 41 48 52 47 55 61 52 48 47 48 49 70 90 95 74 71 91 70 64 80 98 74 75 66
64 56 65 44 57 97 99 98 96 99 95 98 76 83 90 85 72 57 50 54 45 48 55 53 54 63 65 56 64 51 61 90 77 76 66 60 67 73 76 88 84 95 67 69
66 63 51 69 73 86 98 98 100 98 94 90 75 78 95 78 67 65 53 55 47 43 52 51 54 54 60 68 64 64 64 92 82 92 65 62 77 67 66 66 70 95 94 95
74 84 47 80 76 89 96 96 99 100 81 82 79 77 81 65 60 57 46 49 54 57 59 50 49 51 46 54 68 68 84 90 97 86 63 60 76 65 63 83 85 90 97 78
84 87 52 74 91 95 100 99 99 98 87 81 58 50 50 61 64 60 51 47 53 67 63 60 57 57 64 66 67 58 74 84 88 95 72 89 48 54 62 73 77 76 80 67
92 74 54 36 57 79 98 100 99 98 97 73 65 54 50 60 59 59 57 64 69 70 69 70 74 82 76 72 68 69 69 92 100 85 66 58 52 55 57 70 84 76 79 80
92 58 34 42 82 49 85 100 100 100 100 80 75 61 59 67 67 66 75 74 75 74 79 79 83 88 61 84 79 69 73 87 100 95 91 81 49 54 54 70 98 68 85 83
93 93 93 78 88 75 70 100 100 100 100 93 80 69 64 64 59 70 78 83 82 79 90 88 94 76 51 65 83 94 98 100 100 95 93 70 41 61 69 92 79 64 84 88
89 94 95 92 91 91 73 96 100 100 99 88 83 84 78 57 61 74 86 86 86 95 94 92 91 88 63 60 70 78 82 92 92 92 96 92 44 51 66 61 58 66 76 81
90 93 90 96 98 97 90 98 100 100 100 92 84 81 76 76 75 77 79 77 79 80 91 96 91 83 67 66 66 57 76 69 74 78 72 45 45 48 51 55 60 61 66 75
94 91 91 94 95 93 97 92 96 100 100 94 88 79 76 76 74 72 78 84 78 84 83 89 90 86 76 78 69 61 51 49 66 68 52 52 52 52 60 63 68 70 69 76
94 91 93 94 97 97 92 82 96 100 100 99 83 76 80 75 77 78 75 82 83 85 85 89 94 93 74 76 74 73 63 55 61 63 55 51 57 60 66 66 68 70 71 79
92 93 90 75 98 98 90 52 75 94 100 98 88 82 85 80 80 83 84 86 87 91 99 96 87 77 88 83 83 86 57 66 70 65 54 54 64 66 68 69 69 70 74 81
95 92 97 93 96 98 99 100 100 100 100 99 96 92 85 84 85 90 90 99 99 96 94 80 81 68 78 94 87 56 49 50 48 57 56 60 64 65 69 67 69 71 76 80
87 88 90 97 98 96 99 100 100 100 100 100 98 94 89 94 93 95 99 98 95 100 93 86 81 80 81 87 81 52 48 50 52 55 59 65 65 69 66 66 70 70 73 76
43 77 95 98 98 89 93 100 99 100 99 100 100 99 92 96 100 96 100 97 99 96 94 87 89 87 91 98 77 63 61 60 60 59 60 60 63 66 69 77 77 74 74 74
70 83 94 98 95 96 96 100 100 100 99 97 98 100 99 98 98 99 100 97 98 96 98 94 96 92 98 84 71 69 67 67 68 66 65 69 69 71 73 73 79 73 75 75
77 79 97 99 99 99 100 99 100 100 100 98 97 86 91 89 94 93 99 99 98 100 96 99 99 94 73 65 71 74 74 74 72 75 83 82 79 77 81 76 73 73 77 76
79 92 96 96 98 100 100 100 96 99 100 96 93 87 91 91 95 96 98 99 100 100 96 96 97 92 79 68 66 71 76 78 79 75 74 72 74 76 74 79 79 80 78 75
96 93 98 99 100 99 100 98 100 100 99 95 96 94 92 94 92 100 99 100 99 100 81 91 96 85 69 66 78 87 90 84 82 79 71 74 76 81 86 85 91 86 77 74
100 100 99 100 99 100 100 99 100 100 100 100 99 99 97 94 92 96 97 100 99 92 100 98 92 72 67 76 86 90 88 83 79 74 70 92 84 89 85 92 87 77 74 73
98 98 98 92 99 99 100 99 100 99 98 99 100 100 98 94 100 95 100 96 90 99 99 95 87 78 79 85 87 93 96 84 78 75 72 75 80 86 89 86 75 70 69 67
98 98 95 99 98 100 99 96 95 97 95 100 100 98 93 100 100 95 99 98 98 94 95 100 89 80 87 88 90 92 93 89 84 79 77 79 81 84 86 84 72 67 63 61
94 100 100 97 97 100 97 98 99 99 96 99 100 100 100 99 99 100 96 91 87 99 98 94 90 87 90 89 90 94 95 93 88 86 85 84 83 82 82 81 73 69 61 57
81 94 100 96 96 98 100 97 100 96 98 100 100 96 86 98 100 99 91 94 99 100 100 87 86 92 90 91 94 93 93 94 92 89 87 87 86 84 82 78 72 66 59 55

GFSNW_850_rhum_051.txt.gz
RH
70 74 91 50 75 98 96 98 99 100 94 91 99 100 86 99 94 90 78 59 59 62 68 71 62 75 59 46 51 64 54 75 94 84 62 58 66 73 65 91 76 94 94 83
70 65 51 45 66 98 91 98 98 95 98 98 95 92 96 97 89 77 56 54 48 52 59 69 57 57 48 45 49 55 60 80 80 82 68 64 78 67 68 70 87 93 94 74
76 64 41 58 74 92 89 94 98 86 82 99 98 98 100 98 82 78 52 48 45 51 61 64 69 66 58 49 54 49 49 75 82 89 78 77 84 71 72 78 98 79 83 63
78 71 39 63 76 92 94 94 99 100 99 96 96 94 96 92 77 63 51 51 52 54 62 64 69 69 68 64 57 56 65 91 81 80 76 74 76 79 76 84 71 90 61 62
85 82 48 52 74 90 90 98 99 98 98 95 84 97 97 95 68 71 58 57 51 57 65 58 69 70 69 72 65 64 71 90 80 93 72 75 83 72 73 73 70 67 66 74
88 83 64 34 69 84 98 98 99 100 95 88 97 97 92 81 66 56 51 57 71 76 71 59 55 51 54 65 75 69 82 82 96 94 66 69 85 73 73 72 75 67 91 76
90 70 53 30 34 64 94 100 99 99 93 87 77 65 64 69 67 63 62 63 74 68 59 54 57 63 70 70 69 68 85 75 93 98 82 88 54 51 59 70 72 77 76 74
91 93 59 40 67 50 78 100 100 98 95 91 76 66 67 67 62 71 77 73 71 69 68 72 82 84 77 82 76 74 67 80 95 89 89 65 55 61 60 74 79 73 78 69
89 98 97 50 63 61 66 100 100 99 99 86 95 78 65 74 75 74 79 77 73 70 83 81 82 91 71 92 89 69 76 78 97 95 94 88 58 54 58 72 94 73 75 83
88 92 98 98 69 53 54 99 100 100 99 94 96 81 76 71 67 78 79 79 75 75 87 90 96 86 61 92 93 96 96 97 99 83 96 76 53 58 70 85 74 66 77 92
91 91 96 99 100 75 70 90 100 99 99 90 87 86 86 70 66 82 83 82 87 90 91 89 86 92 79 68 80 82 85 93 95 88 97 92 45 70 70 60 57 64 74 81
97 93 92 97 96 88 97 82 100 100 100 95 89 76 80 81 79 78 80 80 81 80 91 92 91 84 82 78 82 71 80 76 86 80 74 48 43 51 56 60 63 66 68 80
99 95 90 95 97 94 88 86 92 100 100 96 93 76 79 76 74 72 73 81 72 74 79 86 90 96 81 92 81 72 64 55 72 74 59 58 50 57 59 61 64 66 67 78
97 96 90 92 88 94 88 82 85 100 100 98 89 83 82 78 78 76 76 79 77 77 79 84 92 94 80 90 85 84 72 61 65 68 61 60 61 62 62 61 65 68 67 74
98 94 95 84 96 97 89 46 47 86 99 98 94 78 77 80 82 80 80 83 85 88 97 98 95 83 84 88 90 95 70 73 76 75 56 59 61 61 60 63 64 68 74 85
95 95 93 95 98 98 92 97 94 88 100 100 99 92 92 89 88 87 88 94 98 91 95 93 81 76 80 96 93 66 56 56 53 57 54 56 59 61 60 61 63 67 76 83
40 78 78 88 97 97 96 99 100 100 100 100 99 97 98 97 96 91 94 98 100 98 97 92 88 80 78 92 84 59 52 56 56 56 58 65 63 60 61 63 64 68 73 81
38 76 82 95 95 89 87 94 99 99 100 100 99 98 93 97 99 98 100 100 99 100 97 89 91 85 82 93 78 70 68 67 67 61 61 58 59 65 65 69 71 72 74 78
78 80 83 94 88 81 94 99 100 100 100 98 99 99 93 99 96 99 100 97 99 98 98 92 95 90 99 83 79 78 74 72 71 68 66 68 68 69 71 76 74 71 73 74
80 80 99 98 98 100 100 100 100 100 100 100 99 90 95 90 94 92 98 99 98 100 96 100 99 96 76 77 72 74 75 78 76 74 78 79 77 75 74 72 76 74 74 74
84 85 99 97 100 100 99 100 100 99 100 96 92 90 90 93 96 94 98 99 100 100 99 100 100 98 81 63 66 77 83 84 81 83 79 76 76 76 78 80 74 74 75 75
97 94 98 100 99 100 95 100 100 100 99 99 96 96 93 91 94 99 99 100 100 99 97 100 99 94 74 81 86 91 94 90 85 84 81 75 76 79 79 77 81 78 79 76
100 99 100 100 99 100 100 99 100 100 100 99 99 99 96 96 94 99 98 100 99 99 100 99 100 85 82 91 92 94 98 89 84 80 78 86 86 82 86 91 90 91 77 78
95 98 95 90 99 99 98 100 100 100 100 100 100 99 99 96 100 98 100 97 93 99 98 99 97 98 93 94 93 96 99 96 88 82 86 97 87 89 87 89 92 84 75 73
96 97 95 99 99 99 100 93 98 98 100 99 100 100 99 100 100 96 98 98 98 97 99 99 100 94 95 91 94 98 98 98 93 88 85 84 84 85 88 92 89 79 73 73
97 96 100 98 97 100 99 92 99 99 94 96 100 100 100 97 100 99 95 92 92 100 98 99 86 89 91 89 93 95 96 95 92 88 86 86 86 85 87 88 82 74 70 68
94 86 87 100 99 100 100 96 100 96 94 99 100 99 94 98 99 99 94 95 100 100 94 89 90 89 87 85 88 92 94 95 94 91 88 88 88 86 85 84 84 87 76 64

GFSNW_850_rhum_054.txt.gz
RH
77 84 64 71 97 78 80 78 97 93 90 86 97 100 100 99 97 95 86 62 67 75 73 72 72 76 66 50 55 68 58 81 94 88 65 60 67 75 71 90 73 95 88 74
82 92 50 53 87 80 79 89 92 90 85 99 98 90 99 99 96 86 67 58 53 57 68 72 65 65 50 50 55 66 59 77 92 85 69 68 78 76 71 72 86 94 92 71
87 90 56 41 86 82 82 90 95 86 84 94 99 100 100 98 83 88 54 55 51 58 68 65 71 65 67 51 50 49 54 73 79 86 74 80 87 80 79 81 97 87 86 65
94 96 52 32 78 89 84 95 99 99 92 91 96 94 96 77 78 58 56 57 60 63 79 70 79 71 66 62 60 61 63 87 86 82 76 74 73 76 80 87 72 87 64 68
95 45 43 29 59 87 85 97 99 98 98 95 96 94 96 84 71 70 70 83 63 66 72 67 77 75 74 68 62 68 69 84 76 89 74 80 89 80 79 76 71 70 67 68
96 79 45 76 67 76 86 96 98 99 83 88 96 96 89 86 72 66 65 64 73 77 74 64 56 53 56 65 72 79 74 86 91 92 71 72 90 80 77 73 72 64 78 59
93 95 73 92 92 63 87 99 100 94 92 92 83 75 79 73 72 77 75 68 74 69 60 57 59 64 69 66 69 65 87 76 92 97 83 93 56 59 62 68 62 63 62 68
93 90 100 91 96 62 80 98 99 99 94 93 83 87 74 70 72 82 83 79 76 67 64 76 84 82 73 83 70 72 68 76 91 86 99 71 56 63 67 77 72 70 73 70
98 94 92 98 98 79 74 98 99 99 99 86 95 94 70 79 80 83 82 77 68 62 85 83 82 81 78 86 92 73 79 81 94 94 97 85 59 55 62 68 93 71 73 74
98 91 95 94 99 88 76 100 98 99 99 98 99 90 82 72 72 86 83 76 71 71 88 92 95 85 69 92 84 99 100 99 100 91 87 82 55 51 68 83 70 62 68 79
100 98 91 94 98 96 92 88 99 98 99 85 84 89 90 76 72 84 82 78 81 88 85 80 86 90 82 77 76 88 92 96 94 90 96 93 48 74 72 61 60 64 74 81
100 100 94 95 90 88 93 83 100 99 99 92 94 83 83 86 84 81 81 79 80 77 89 89 89 80 85 81 90 72 88 76 88 79 75 50 47 49 51 60 65 66 72 79
96 100 94 97 94 92 94 96 86 99 100 97 93 74 69 75 76 83 77 78 69 74 78 84 89 92 86 88 88 78 72 60 74 73 62 63 51 48 52 58 63 66 69 78
100 100 96 97 97 70 96 93 91 100 100 99 88 93 91 89 84 83 81 77 74 73 77 82 90 96 79 86 83 88 77 63 66 78 62 54 60 60 59 61 64 65 68 78
99 99 98 100 92 94 98 98 63 84 99 98 94 86 77 85 89 85 85 83 82 84 91 93 93 83 86 88 93 96 74 77 84 82 57 56 56 57 59 60 61 64 71 83
97 95 92 99 90 93 98 98 67 54 90 100 99 90 94 92 88 86 86 87 93 90 91 92 84 78 81 92 92 61 61 61 59 64 58 58 59 57 57 56 59 62 71 87
55 32 92 80 89 92 97 100 100 97 99 100 99 96 100 99 99 82 78 88 95 99 99 97 88 83 81 92 95 60 50 59 59 68 63 64 58 56 58 59 60 65 74 90
27 77 81 89 88 95 89 100 100 100 99 100 100 98 87 98 99 98 97 100 100 100 96 97 96 86 90 98 84 70 71 74 72 69 68 65 63 62 64 64 66 71 75 83
74 79 82 90 94 82 92 99 100 100 100 98 100 99 94 100 97 97 100 98 99 99 98 95 94 94 98 90 84 78 77 85 87 77 70 67 67 68 68 69 71 74 76 81
78 90 86 98 92 100 100 100 100 100 100 100 99 94 95 94 94 90 95 100 98 100 98 99 98 98 90 75 70 77 79 77 80 89 82 76 74 73 73 72 74 74 72 74
80 81 97 95 100 100 100 100 100 99 100 94 93 90 88 91 94 94 95 99 100 99 100 100 100 100 92 82 87 88 95 97 93 89 82 86 82 78 76 75 72 75 74 73
83 92 90 96 99 100 100 100 99 96 98 98 97 93 89 88 95 99 100 100 100 99 99 100 99 100 87 89 91 92 99 98 90 90 87 84 84 79 78 77 77 76 75 78
99 98 99 100 99 99 97 96 97 99 100 100 100 99 97 98 97 100 99 100 99 99 100 99 99 92 92 94 93 92 98 97 89 86 83 84 83 77 78 80 78 82 85 83
98 95 98 98 99 99 97 99 100 100 99 100 100 99 100 98 100 98 100 98 96 99 98 99 98 92 92 91 97 98 99 100 93 92 95 100 99 87 83 85 93 95 88 86
98 99 96 98 94 100 99 98 100 99 99 100 100 100 99 100 100 98 98 98 98 98 99 99 97 89 92 93 96 99 100 98 97 92 90 94 93 93 96 94 100 100 79 77
98 98 100 98 98 100 100 98 100 99 96 99 99 100 100 95 99 100 96 92 92 99 99 97 90 89 91 92 93 100 100 100 97 92 90 91 93 92 93 94 96 92 81 73
99 92 92 97 100 100 100 100 100 100 99 100 100 99 91 99 99 98 97 93 98 95 93 92 91 92 90 87 91 87 95 98 96 93 90 89 88 87 87 88 91 93 91 87

GFSNW_850_rhum_057.txt.gz
RH
92 89 98 34 88 71 71 76 93 83 95 86 98 99 100 100 97 89 90 61 68 78 70 68 72 70 63 53 58 64 61 80 97 84 65 62 68 74 74 86 78 97 91 73
93 88 83 31 90 93 88 85 85 81 86 99 99 98 98 98 96 88 77 60 58 56 65 71 67 66 52 52 57 65 58 78 95 85 68 70 75 75 70 76 84 98 95 63
95 86 41 27 86 90 90 90 95 82 87 94 99 100 100 93 90 90 65 59 56 61 75 69 73 72 70 56 51 53 53 74 78 86 68 81 92 85 80 82 95 88 86 69
93 95 86 30 77 87 86 93 97 100 98 92 94 88 80 79 79 65 64 60 63 70 77 74 82 72 68 63 63 62 64 85 82 75 74 74 76 76 88 84 79 85 70 72
92 97 93 42 68 85 86 87 99 99 99 90 82 84 91 80 81 80 79 81 75 74 70 67 80 73 68 66 62 69 68 88 82 88 73 80 88 80 77 83 77 78 71 72
98 91 99 76 68 87 85 88 96 99 82 93 87 94 90 84 76 68 70 69 75 81 82 65 59 56 61 63 71 80 72 88 90 94 74 75 87 83 81 75 74 66 79 58
98 94 99 99 66 94 100 98 94 98 94 94 90 88 78 85 74 81 82 76 76 68 66 61 59 64 66 66 76 65 81 82 86 95 85 94 59 55 64 70 62 63 54 51
100 99 97 99 98 52 94 100 94 99 90 93 84 91 76 74 78 85 89 81 77 67 61 77 79 77 72 81 70 74 67 75 89 94 96 75 58 72 73 74 71 62 58 55
96 100 94 98 100 85 79 98 99 94 99 84 96 98 84 85 82 83 80 76 65 60 84 81 78 80 76 92 93 75 72 84 95 94 94 88 54 61 63 64 83 62 68 69
97 99 100 96 99 99 81 98 100 100 99 90 98 98 95 80 79 88 86 78 71 67 88 90 93 83 74 89 87 98 100 99 99 83 85 75 58 50 68 74 68 60 65 72
98 98 97 96 98 96 80 84 98 100 100 88 83 90 99 90 78 80 75 77 77 86 82 83 87 86 82 84 76 90 84 92 96 97 97 91 48 70 73 59 60 64 67 75
98 98 98 100 95 98 98 81 99 99 99 91 89 82 80 92 95 90 84 78 79 76 86 87 86 80 84 85 92 74 90 78 84 77 76 51 47 56 44 51 60 64 67 72
98 98 98 99 98 99 84 100 97 89 99 97 96 76 75 77 78 90 89 79 74 76 73 83 89 84 88 90 89 80 74 63 78 75 62 61 52 54 56 60 60 62 64 69
98 98 99 98 96 100 82 78 95 98 99 98 89 94 95 90 83 83 86 86 79 74 76 80 85 88 79 88 85 90 78 67 66 70 69 56 54 54 56 58 61 62 64 68
100 100 98 99 100 98 95 92 98 98 99 99 95 87 86 90 92 87 88 87 86 82 86 89 91 82 85 87 93 98 79 81 88 84 62 65 61 58 60 59 58 60 63 70
94 98 99 92 100 91 94 97 55 71 98 100 100 90 92 92 89 89 89 90 92 87 90 89 80 72 74 97 94 71 64 62 63 66 60 66 64 63 59 60 58 60 63 71
98 83 85 95 84 89 98 93 100 97 94 100 98 97 97 100 98 95 85 88 96 95 92 97 91 87 81 94 90 67 65 72 69 66 71 72 65 63 62 62 60 61 66 74
36 56 81 91 88 85 88 79 100 100 99 100 100 98 85 100 98 94 92 93 100 100 95 96 95 87 93 99 85 85 81 76 80 80 81 78 73 69 67 66 65 65 71 78
25 82 85 84 86 90 87 100 100 100 100 100 100 100 93 98 98 93 99 97 98 98 99 90 96 96 98 83 76 76 81 84 78 66 69 80 75 72 70 70 70 70 72 78
55 94 99 89 85 94 100 100 100 100 100 100 99 91 96 98 96 93 98 98 99 100 98 98 99 96 90 92 87 85 87 88 90 89 73 73 82 78 75 73 74 73 74 75
88 89 93 94 97 100 100 100 100 99 100 99 92 93 88 88 95 93 91 99 100 99 100 100 100 100 98 80 80 85 92 98 100 98 93 90 84 86 87 82 78 76 74 73
84 93 100 97 99 100 98 95 98 94 97 96 98 95 90 86 93 98 99 100 100 99 100 100 97 100 90 89 88 90 97 99 99 95 92 89 87 82 87 88 83 75 74 78
99 100 100 99 99 99 98 98 99 99 99 100 100 100 97 97 97 99 100 100 99 100 100 99 100 94 88 91 95 94 100 100 99 94 93 98 91 87 84 83 80 76 84 82
98 93 98 98 98 99 100 99 98 99 100 100 100 100 100 100 100 98 100 97 98 99 98 98 98 94 92 90 94 98 100 100 100 97 99 100 100 94 86 85 83 84 87 92
99 100 97 99 92 100 100 100 99 98 100 100 100 100 100 100 100 99 99 99 98 95 98 100 96 91 92 91 89 95 99 100 100 99 96 99 100 99 95 94 96 98 98 92
99 99 99 95 98 99 100 98 100 100 100 100 100 100 100 97 99 100 97 96 91 98 98 93 91 92 89 83 89 87 92 96 100 99 97 96 100 97 94 96 100 100 94 77
100 98 96 99 96 99 100 100 100 100 100 100 100 99 99 99 99 99 91 93 96 89 90 89 91 91 87 74 75 91 86 86 97 99 94 89 89 91 94 88 96 100 97 87

GFSNW_850_rhum_060.txt.gz
RH
87 98 34 26 90 86 68 80 87 67 83 86 98 99 100 99 93 91 68 62 72 77 69 73 72 72 62 55 55 66 63 82 95 86 66 62 66 76 72 85 83 97 92 62
93 98 45 28 81 86 83 90 83 70 85 99 98 96 95 93 90 89 62 62 58 56 67 68 66 64 58 54 55 63 62 79 96 89 71 67 77 75 70 75 84 97 84 49
96 94 76 27 75 86 86 90 96 80 82 95 97 92 94 85 85 72 61 63 60 68 76 71 73 72 70 56 52 54 54 74 78 86 67 80 92 87 76 78 94 88 90 67
95 90 92 28 76 86 88 89 96 100 98 94 96 84 84 87 94 70 65 71 68 68 76 76 83 75 68 65 66 64 63 87 78 71 71 74 78 82 86 83 80 85 69 76
93 96 89 86 72 84 84 92 96 92 95 86 92 86 90 89 84 78 82 86 78 70 71 68 81 74 69 69 66 68 68 93 84 87 71 81 89 80 83 84 78 81 73 77
100 99 90 98 80 87 84 91 98 97 81 92 88 96 89 86 74 72 79 73 77 83 82 71 62 60 65 65 73 80 75 87 93 91 80 81 88 84 81 82 80 73 88 61
95 98 93 96 98 94 95 100 100 96 95 92 91 91 85 93 87 88 86 77 75 71 66 63 58 60 66 69 78 64 79 83 88 92 84 92 53 56 65 71 63 69 61 51
99 98 100 93 99 86 90 97 99 97 91 92 82 95 84 75 76 88 89 81 77 70 63 74 75 76 71 78 77 71 61 76 82 90 90 73 64 71 74 70 68 62 61 53
98 98 98 99 97 99 78 99 96 97 99 82 93 97 91 90 84 80 79 73 65 62 82 78 76 80 72 87 90 77 82 85 85 95 87 89 52 62 62 60 94 57 61 59
98 93 99 99 100 99 78 94 98 100 99 83 95 91 97 93 82 87 85 80 72 65 86 88 92 86 74 91 90 95 98 98 96 85 91 72 55 57 59 90 74 57 67 69
97 95 95 95 98 96 91 74 95 99 100 91 84 91 99 98 91 77 76 75 75 83 80 82 87 85 81 85 78 88 90 92 96 94 99 93 48 70 73 60 56 59 64 67
90 98 94 98 98 98 99 70 99 100 99 88 82 79 82 86 96 99 89 77 81 76 87 88 84 83 88 85 90 78 90 82 78 80 76 52 47 55 47 48 55 59 64 64
84 98 98 98 97 97 98 100 95 100 99 97 95 71 70 74 80 86 95 83 83 77 78 82 89 77 87 92 92 80 74 68 75 74 60 64 52 51 55 56 61 62 61 62
89 96 99 96 95 98 97 99 73 99 100 97 91 96 98 88 76 80 88 93 86 77 77 80 80 78 79 88 82 90 80 72 72 74 70 59 61 58 60 61 61 61 59 60
86 98 98 97 99 96 91 95 90 97 98 99 97 83 81 93 99 95 96 96 91 84 83 88 86 82 83 91 94 99 84 83 88 86 61 68 64 62 64 63 60 58 58 63
91 98 97 92 80 86 87 95 91 86 100 99 100 94 92 87 89 99 94 95 95 88 85 82 79 70 69 95 96 66 66 69 70 66 63 68 64 64 68 67 64 60 60 66
76 100 64 78 76 82 84 82 99 93 96 99 99 98 94 100 99 96 96 96 97 93 88 88 81 79 78 90 90 62 77 82 78 84 77 74 72 72 71 68 65 62 62 68
93 37 71 75 90 98 94 68 90 99 99 100 100 98 85 99 99 99 96 96 96 96 89 94 96 95 90 98 82 84 75 74 74 85 72 76 81 75 74 72 69 68 67 70
39 44 78 81 81 83 90 91 98 99 99 99 99 100 94 100 99 95 99 91 94 97 99 96 96 95 95 84 78 78 77 82 83 75 72 67 63 75 77 74 72 71 71 72
29 78 98 80 89 81 100 99 99 99 100 100 99 94 96 100 99 100 94 98 96 100 93 94 98 81 92 92 85 88 88 88 95 97 87 83 79 80 86 82 80 76 75 74
86 94 97 97 98 100 100 100 100 99 100 99 95 89 92 90 97 93 96 99 100 99 99 100 97 100 97 82 81 84 87 93 97 99 100 96 93 90 89 80 84 86 81 75
80 94 100 99 100 100 100 96 100 100 96 94 99 98 94 92 94 94 99 100 100 98 99 100 99 100 85 86 84 89 97 99 100 100 100 95 93 94 91 87 82 89 85 75
98 100 100 100 99 99 98 96 99 99 99 100 100 93 100 97 99 100 100 100 99 99 100 98 98 99 97 89 91 94 99 100 100 100 99 100 100 98 92 91 89 87 80 75
98 99 98 98 98 91 98 98 99 100 98 98 100 100 99 100 100 97 100 97 98 99 100 96 98 98 92 93 96 99 99 99 100 100 100 100 100 97 88 84 82 80 78 84
99 98 97 99 93 99 100 100 100 99 99 99 100 100 98 100 100 99 99 99 96 95 95 98 94 91 90 89 93 98 99 99 99 100 100 100 100 99 99 96 95 92 93 93
97 98 99 92 99 93 98 100 100 100 100 100 100 98 100 97 98 99 98 97 93 92 99 87 88 90 81 71 82 96 99 99 100 99 98 99 100 100 100 100 100 100 100 94
98 98 95 96 97 94 96 100 100 100 100 99 100 98 88 95 99 99 92 93 92 92 86 86 88 88 85 69 64 68 81 86 93 98 99 96 92 90 97 94 96 100 100 88

GFSNW_850_rhum_063.txt.gz
RH
100 87 94 83 76 76 62 62 83 69 77 92 99 99 98 99 93 94 85 62 71 76 70 72 74 73 65 56 54 71 64 82 95 88 66 62 63 74 68 82 81 90 85 48
98 93 86 74 81 83 82 79 73 68 83 99 99 87 85 90 90 80 60 63 59 61 69 70 69 68 63 54 54 62 58 80 92 85 74 67 76 73 68 73 81 94 69 42
99 98 82 50 81 83 83 81 94 78 79 96 97 100 94 87 73 73 65 63 61 68 77 73 71 79 70 56 63 57 54 73 76 82 65 79 92 86 74 77 87 81 84 57
99 99 76 58 81 83 83 86 97 99 98 94 92 88 90 89 95 70 70 70 73 66 75 75 85 74 70 69 67 63 61 86 78 67 73 74 77 85 80 81 78 79 64 72
94 99 91 70 77 81 80 96 98 97 94 87 90 89 91 92 88 82 84 85 82 69 76 72 82 74 71 69 68 66 68 97 82 85 72 80 88 78 83 74 74 74 72 72
96 97 98 91 91 86 85 90 93 100 82 93 90 96 91 91 77 78 83 77 80 84 83 75 62 60 64 66 73 78 74 86 87 88 79 83 92 84 81 82 79 70 86 64
96 96 98 87 97 89 97 98 99 97 93 88 88 91 91 92 90 85 84 79 76 70 71 66 61 61 68 69 76 64 78 81 85 92 82 94 52 57 66 70 67 72 66 55
96 100 100 98 87 90 83 96 97 98 92 90 82 91 92 77 78 88 88 80 77 72 65 73 73 75 67 81 85 70 60 75 86 87 95 69 73 72 76 73 73 62 61 53
83 98 98 97 99 71 74 96 95 97 99 84 91 95 97 95 87 79 77 72 67 66 82 76 74 76 68 90 91 76 80 75 80 97 90 79 51 64 62 63 96 58 57 61
82 98 84 96 100 91 48 88 95 100 99 79 90 88 99 99 88 88 84 80 72 64 83 85 92 81 73 87 88 95 94 96 88 94 96 74 52 53 57 90 83 56 64 68
79 90 97 90 99 100 78 68 98 99 100 94 84 80 91 98 94 91 78 74 75 82 80 81 87 85 82 83 79 85 89 93 92 92 98 88 49 60 76 63 55 54 60 67
55 81 98 95 87 94 92 92 81 88 100 94 88 81 72 74 85 99 94 78 83 76 88 90 88 84 87 86 83 79 89 77 73 72 71 51 50 52 48 49 52 63 67 67
55 79 98 98 99 94 97 97 100 80 97 96 99 67 70 62 72 85 98 85 88 82 83 82 87 71 86 92 88 81 75 71 75 74 60 65 50 57 56 57 61 63 66 65
41 78 98 100 95 96 95 95 95 94 91 98 93 99 98 86 71 80 85 91 89 83 80 81 82 71 79 88 79 87 79 77 78 79 70 60 61 63 64 71 62 61 61 63
53 48 85 99 96 96 88 88 89 89 93 97 96 74 82 88 92 85 89 95 96 86 81 86 84 82 85 94 94 95 86 82 89 87 63 64 61 59 60 62 65 65 62 62
65 65 50 94 85 87 97 88 93 91 89 97 100 99 97 83 87 98 100 100 100 92 84 79 76 70 70 96 94 71 68 71 73 70 74 73 69 69 71 67 68 68 64 64
66 47 81 67 71 92 96 84 98 99 97 97 98 98 93 100 96 99 100 100 98 94 86 86 80 78 76 92 92 66 73 80 77 76 77 74 79 78 77 75 72 68 65 66
66 46 31 72 86 97 99 91 86 90 98 100 99 99 98 98 100 100 99 99 98 89 87 90 93 88 85 98 83 79 78 76 74 84 86 80 75 71 76 76 74 71 70 70
73 33 54 85 88 85 83 90 86 94 99 98 100 100 98 100 99 96 100 94 99 94 99 96 88 92 98 89 77 77 80 83 83 76 72 75 78 78 74 75 80 74 72 72
55 45 97 83 86 76 95 100 99 99 99 99 100 99 100 100 98 97 91 99 98 100 93 92 98 98 90 89 87 85 85 86 87 92 95 93 86 88 80 77 79 83 79 78
50 94 99 92 98 100 100 99 99 98 100 99 98 95 97 97 97 97 93 92 99 99 98 99 99 100 97 89 81 81 84 90 96 97 99 98 100 97 89 84 83 82 85 86
68 94 98 96 100 100 100 99 100 95 89 99 98 95 87 94 97 94 98 99 100 96 99 100 94 98 86 83 83 89 94 95 96 100 100 99 98 100 99 90 90 88 82 86
97 97 99 99 97 99 99 96 99 94 99 100 100 100 97 94 97 95 99 100 98 99 99 94 96 100 96 87 91 96 97 100 100 100 100 100 100 100 99 94 94 95 95 92
96 99 92 99 98 97 95 97 97 99 100 100 100 99 98 96 100 94 100 98 99 99 98 96 99 98 98 93 96 99 98 100 99 99 99 100 100 100 96 86 85 85 84 79
97 98 91 98 92 99 100 100 100 99 100 100 99 97 95 99 100 99 92 100 93 92 94 96 95 90 86 91 99 99 99 99 98 99 99 100 100 100 100 100 95 88 84 85
95 91 99 89 99 94 95 99 100 100 100 100 100 100 95 93 99 99 94 98 95 88 99 83 85 84 75 72 87 94 96 97 99 100 100 98 99 100 100 100 100 100 100 100
94 91 95 98 96 89 92 98 100 99 99 99 100 99 88 98 98 94 96 95 90 85 81 77 82 77 78 64 57 54 54 52 61 79 92 99 96 92 93 99 99 100 100 92

GFSNW_850_rhum_066.txt.gz
RH
91 100 91 80 67 67 58 53 92 76 72 91 98 98 94 90 79 88 80 58 57 60 54 56 57 64 56 53 48 52 56 61 84 79 59 54 52 54 47 65 73 66 60 32
98 98 88 72 78 78 74 68 64 67 74 99 90 74 74 75 68 63 56 55 50 50 54 58 57 59 55 53 50 48 48 64 85 82 64 60 66 59 53 57 71 79 49 34
86 89 89 47 78 80 78 79 94 80 84 95 86 94 93 74 73 62 60 55 50 52 56 52 62 62 59 59 56 57 45 58 72 60 56 64 93 71 60 89 81 58 52 39
92 92 95 40 74 80 79 87 97 97 94 80 80 75 75 71 79 62 61 56 61 53 58 60 67 64 59 58 60 52 47 74 68 61 62 63 68 75 69 82 67 77 45 43
88 97 86 62 71 76 81 96 98 97 85 80 73 78 80 78 76 72 68 68 65 56 58 59 61 57 56 53 54 52 54 84 71 79 65 68 78 67 68 65 57 56 53 53
90 97 97 91 73 82 84 92 98 99 76 76 73 94 89 86 76 75 74 65 62 65 68 68 57 57 55 54 55 60 58 69 73 80 68 70 76 68 66 66 59 55 66 46
80 96 97 98 88 88 94 86 98 95 78 73 80 81 83 78 83 76 77 73 61 64 71 70 57 57 57 55 57 52 60 62 68 72 65 74 50 49 54 58 54 55 50 46
69 82 84 89 98 73 88 85 87 98 84 76 74 78 84 73 71 77 78 78 78 74 69 56 61 61 58 68 62 56 50 56 74 74 69 55 69 64 60 64 74 49 49 46
44 81 80 81 99 76 71 95 92 98 94 71 86 85 88 88 75 64 73 72 70 67 66 63 67 69 58 73 78 65 62 55 59 83 81 64 58 64 61 54 96 58 51 52
26 59 87 81 95 99 59 87 90 99 99 89 86 87 90 98 87 81 76 80 72 64 69 70 72 64 60 64 64 74 72 77 72 67 71 52 40 44 53 82 84 59 58 61
26 36 77 93 81 92 94 72 86 93 93 95 90 88 88 90 98 86 80 73 72 71 69 68 70 66 66 67 66 66 66 72 74 71 73 73 44 65 67 62 58 55 62 65
34 32 58 91 96 83 95 97 85 79 94 74 72 91 76 76 84 93 99 82 80 70 69 73 71 64 68 64 67 67 70 54 52 52 52 45 48 53 52 54 58 62 68 70
46 36 70 90 92 94 88 93 93 99 98 85 93 57 36 50 63 72 92 89 91 89 87 73 73 59 61 61 59 66 63 63 58 60 49 49 47 53 62 58 63 64 64 62
55 36 77 92 98 84 91 95 91 91 86 88 70 87 96 93 80 67 76 85 96 92 86 80 72 62 68 61 61 64 57 63 61 60 53 52 60 64 66 62 72 71 67 63
51 39 69 84 88 92 88 88 84 89 91 91 88 63 68 83 97 81 77 84 89 96 82 80 73 78 72 77 80 77 67 54 57 51 46 56 52 64 63 64 61 63 68 66
50 43 85 74 94 89 91 90 92 96 100 94 86 92 80 89 96 100 96 90 97 98 88 74 76 69 63 77 75 56 70 70 64 57 74 72 70 67 70 74 74 70 70 66
56 44 84 93 87 82 92 81 81 89 97 88 88 91 97 99 98 100 100 99 100 98 78 76 75 80 77 76 76 54 66 71 79 76 76 75 77 77 76 77 76 74 69 65
83 69 91 70 61 93 99 97 98 96 93 93 97 91 100 99 99 100 98 100 98 99 84 91 87 86 78 91 66 69 73 77 77 78 80 81 80 76 72 70 77 75 72 70
72 84 62 59 97 87 81 84 94 96 94 98 99 100 100 99 98 90 99 95 98 96 96 83 81 78 94 80 78 80 80 77 80 83 81 78 78 79 76 76 76 80 78 73
90 74 93 94 83 81 91 99 99 99 99 99 99 99 100 99 98 99 97 91 91 100 86 91 99 99 88 89 85 84 86 85 84 84 88 92 86 90 87 81 79 78 76 81
96 94 97 96 90 99 99 99 99 98 100 99 98 99 99 100 100 98 94 98 98 99 86 98 99 87 92 93 87 84 82 82 86 92 94 96 98 98 99 89 86 84 81 79
92 95 96 94 98 99 100 100 99 100 94 97 98 98 98 98 100 90 97 99 94 95 98 100 91 87 92 84 82 83 90 92 94 98 99 99 99 100 100 99 98 91 90 90
77 79 100 99 98 99 95 94 100 99 97 98 100 100 100 91 92 90 94 100 100 99 100 90 81 98 98 87 88 95 94 97 98 99 100 100 100 100 100 99 92 91 95 97
99 98 95 97 95 93 91 94 94 100 100 100 100 99 97 97 97 91 100 99 99 100 96 90 94 99 98 95 98 99 98 98 98 99 99 100 100 100 100 100 89 85 90 95
100 99 88 92 93 98 99 99 100 100 100 100 100 99 95 98 100 98 100 100 95 88 84 83 96 91 96 99 99 99 99 99 99 99 99 99 100 100 100 100 100 96 85 80
97 91 92 85 96 86 86 99 99 100 100 100 100 100 100 94 94 98 88 94 88 82 95 86 83 81 77 96 99 99 85 67 71 92 98 99 99 99 99 99 99 100 100 99
89 92 90 86 91 82 92 98 100 99 99 98 99 99 91 98 98 94 92 93 84 79 82 80 76 67 63 60 57 53 45 41 40 42 63 77 88 96 99 100 99 99 99 99

GFSNW_850_rhum_069.txt.gz
RH
74 49 53 27 48 48 52 75 91 67 67 87 92 80 76 79 65 77 71 53 44 45 42 46 49 53 49 47 40 45 47 57 80 71 52 49 46 48 42 67 65 58 61 36
71 31 11 25 68 71 64 81 78 68 88 96 80 65 62 62 56 53 49 47 43 39 44 52 48 51 47 47 44 42 43 60 83 74 58 53 60 50 43 49 76 77 47 38
57 35 11 17 66 72 67 88 95 73 74 77 76 84 83 60 60 49 48 44 40 40 44 40 53 55 52 53 48 50 40 50 70 61 58 58 91 59 53 86 80 49 46 34
35 46 16 10 42 69 81 91 90 92 83 73 68 61 57 55 61 49 47 46 46 44 47 48 57 54 52 49 51 44 40 67 62 52 52 54 64 68 61 88 65 76 38 34
34 56 23 11 23 59 95 99 99 98 77 66 59 67 70 65 61 61 54 52 48 42 46 53 52 48 46 46 44 44 44 75 62 80 54 56 70 58 59 60 53 47 43 43
25 51 54 31 17 42 99 99 97 99 68 61 62 81 81 76 64 62 62 58 50 54 60 52 46 46 44 43 46 47 47 58 66 72 60 60 72 60 57 57 50 46 58 41
22 32 29 28 31 60 87 100 99 94 73 58 64 70 69 68 70 69 63 60 51 58 64 57 48 47 47 45 46 44 50 52 57 60 58 74 52 43 47 52 48 45 43 39
28 23 32 52 60 27 61 91 98 100 87 63 60 63 67 62 60 64 64 68 68 73 63 53 53 53 52 55 50 46 42 46 59 67 56 46 61 57 54 59 64 44 46 40
39 23 36 37 54 58 36 63 84 98 97 62 73 70 68 79 61 56 63 69 71 70 56 55 62 68 51 61 69 54 51 46 54 70 75 60 62 60 52 50 86 51 46 48
52 29 27 54 58 64 70 47 46 95 88 69 79 70 75 80 77 70 62 66 65 67 58 65 63 54 45 56 56 66 62 60 65 60 63 49 42 45 48 82 86 56 52 53
74 49 28 43 84 78 81 92 61 66 84 68 65 78 84 75 87 77 77 69 70 64 68 62 58 57 48 53 48 51 54 57 61 58 63 67 54 59 55 62 54 55 58 60
82 61 37 42 71 91 86 100 99 93 99 60 36 52 49 86 88 97 92 82 67 58 61 61 57 55 53 48 61 50 60 46 49 47 50 44 41 48 46 51 55 61 66 65
85 82 58 44 63 82 85 99 99 99 90 71 71 72 68 41 53 79 88 79 86 79 84 66 58 56 49 53 51 49 49 49 49 54 40 39 41 44 60 58 63 62 64 64
93 89 71 45 64 76 86 98 98 97 95 90 60 69 90 95 79 65 73 83 100 98 94 71 58 54 52 49 54 54 50 52 49 48 42 45 47 49 63 62 61 67 72 70
100 92 64 56 79 74 90 88 92 100 98 79 76 64 29 50 91 100 86 74 96 98 84 73 60 61 58 53 62 52 46 47 54 46 42 42 49 60 68 68 65 68 68 68
100 97 75 85 75 82 95 97 84 94 99 99 80 65 67 91 78 97 100 90 98 98 94 67 66 68 58 63 62 44 47 52 48 42 63 62 67 70 66 66 69 72 70 71
100 92 90 85 91 91 100 86 95 84 87 96 80 75 81 89 100 100 100 100 98 98 81 73 66 68 71 62 64 42 48 54 59 69 72 66 66 66 76 72 70 73 74 70
100 98 97 97 98 87 78 78 95 98 96 91 92 78 94 99 99 96 99 100 100 99 77 86 71 66 71 74 53 52 51 62 73 74 73 75 74 74 78 77 74 73 77 76
100 98 99 97 87 95 99 86 97 100 95 97 99 98 100 100 99 90 98 97 99 97 93 79 77 66 80 60 59 59 70 71 72 81 82 78 75 76 86 83 78 82 79 78
99 98 97 98 92 81 87 97 100 99 99 98 98 94 100 99 99 90 99 95 97 100 86 89 96 85 60 74 79 79 82 81 80 84 86 88 89 87 86 90 93 93 85 81
99 97 98 98 94 96 99 99 98 98 97 100 95 93 94 100 100 100 98 100 97 100 85 90 89 82 84 89 90 87 85 84 83 86 89 91 97 98 99 100 100 99 99 92
96 97 99 100 98 99 100 97 99 99 86 94 98 99 99 100 99 99 98 100 99 96 91 99 87 74 84 86 88 82 82 86 92 98 99 99 97 99 99 99 99 99 100 98
98 88 98 98 97 100 96 90 100 97 91 98 100 100 100 98 99 95 95 100 96 98 100 87 71 89 94 89 89 95 98 98 98 97 98 100 100 100 100 99 99 98 90 89
96 98 96 94 89 85 84 92 100 99 99 100 100 100 98 99 95 91 100 94 100 99 95 88 97 100 99 99 99 100 100 97 97 98 99 99 99 99 100 100 99 99 89 85
99 97 88 80 73 97 100 98 99 100 100 100 99 100 100 99 100 99 99 100 96 86 80 82 96 97 98 99 99 98 97 94 96 97 98 99 99 98 99 99 99 100 100 91
95 94 92 78 92 84 86 98 98 100 99 98 100 100 100 99 97 98 90 88 83 85 96 93 92 91 95 97 99 99 84 63 71 60 65 74 87 97 99 99 99 99 99 100
92 85 89 83 92 80 82 97 99 99 99 93 99 100 99 99 94 92 88 90 93 99 91 88 79 73 80 88 69 57 47 41 38 34 33 36 45 72 87 93 97 99 99 99

GFSNW_850_rhum_072.txt.gz
RH
15 20 10 10 18 39 45 76 93 68 81 92 95 80 69 71 62 74 69 57 46 45 43 51 50 62 54 44 44 50 53 68 93 76 54 49 52 60 56 91 76 81 83 53
18 19 9 8 22 52 59 84 77 77 78 94 95 71 72 58 57 51 50 47 43 38 44 54 52 57 45 47 52 53 47 74 89 74 66 55 63 54 48 68 87 86 85 54
18 14 9 7 14 50 77 86 96 78 69 70 77 82 73 57 54 51 44 43 40 38 45 44 53 57 55 49 46 46 46 59 83 88 72 74 84 63 61 87 91 72 70 43
18 17 11 8 9 32 81 90 87 94 82 79 67 69 64 55 63 53 43 44 45 44 47 46 57 54 55 48 46 42 53 72 67 54 53 55 76 72 73 87 74 80 55 42
24 20 15 9 8 25 68 95 98 93 86 60 58 62 64 72 62 62 54 54 46 47 57 58 52 47 46 48 44 44 46 78 69 87 52 55 69 62 64 71 65 58 48 48
40 22 21 14 9 13 72 94 97 98 78 58 61 76 66 75 63 59 58 62 59 58 60 50 46 43 44 46 47 50 52 69 78 85 58 62 81 67 64 64 57 55 66 50
51 29 23 27 15 11 43 91 98 98 85 67 60 62 62 62 62 74 56 62 54 60 63 55 46 46 45 44 46 47 53 56 65 80 61 88 58 45 50 57 52 51 48 42
67 41 24 31 40 22 40 46 86 97 84 69 66 64 64 65 59 63 60 66 68 70 66 62 57 60 52 51 49 46 47 54 68 83 69 51 68 58 55 62 64 49 50 44
80 64 35 28 43 36 31 47 55 90 93 69 65 67 67 76 77 69 62 68 63 66 66 65 68 73 52 61 55 51 52 54 66 82 87 74 72 56 46 46 88 49 46 48
85 79 61 34 42 47 48 63 56 85 92 68 71 68 78 76 77 75 67 65 66 62 72 72 77 64 47 60 59 76 68 63 78 74 78 61 62 57 49 88 91 54 54 54
89 82 80 57 41 75 66 81 85 76 84 62 45 52 70 71 78 85 84 81 77 75 80 73 66 63 52 55 48 53 62 66 62 62 72 78 53 54 64 69 55 58 61 63
86 83 82 79 50 54 82 80 98 99 97 68 51 44 43 35 74 89 90 88 80 69 78 73 67 62 60 58 64 49 71 54 58 56 62 46 52 47 47 50 56 62 62 64
99 96 98 90 73 65 92 87 88 96 95 73 68 67 63 64 38 73 97 80 80 83 92 88 74 69 58 65 63 52 53 48 59 60 47 49 44 50 56 56 57 63 63 63
100 100 100 99 78 64 89 90 91 100 96 91 66 64 64 89 90 70 80 85 91 88 93 87 80 72 50 61 62 66 61 57 59 55 47 46 45 47 66 63 62 64 64 67
87 100 100 100 77 75 86 82 88 89 96 84 80 72 50 57 54 91 74 68 87 83 95 90 83 63 64 62 73 71 52 60 66 62 51 50 62 65 64 64 67 65 63 63
90 99 100 100 88 94 94 93 84 87 95 98 92 63 48 48 89 65 96 98 92 88 96 83 68 62 60 77 79 48 44 43 45 54 54 53 62 62 65 65 68 71 72 71
88 100 100 100 97 97 98 94 98 95 89 97 85 79 66 88 92 75 100 99 98 94 88 85 81 70 68 78 77 47 45 48 53 58 60 60 62 74 75 72 70 66 68 74
95 99 100 100 98 100 99 93 88 96 98 95 94 85 73 98 94 94 98 99 98 97 88 76 82 71 78 90 59 52 50 50 56 63 63 67 70 72 72 71 73 74 72 76
100 100 98 100 99 96 94 94 96 99 99 96 91 95 93 98 98 90 99 97 98 97 95 79 79 81 86 73 59 56 62 67 70 72 73 73 74 75 78 80 81 80 81 81
100 100 98 98 96 95 90 95 99 99 98 98 94 79 96 94 99 100 98 99 100 100 97 93 97 91 58 70 71 73 74 73 75 78 81 83 85 87 86 86 87 88 89 87
99 96 97 99 96 97 99 98 99 98 98 98 93 86 90 97 100 100 97 100 100 98 98 99 99 86 84 84 81 83 82 84 84 85 85 87 89 91 91 89 95 100 100 98
96 94 98 98 97 98 100 99 98 98 82 91 98 99 99 100 100 100 99 99 100 99 92 99 94 89 85 85 86 85 85 87 91 92 91 93 90 93 93 90 91 94 99 99
96 96 99 99 97 99 98 95 98 98 99 100 99 99 100 100 100 98 100 99 99 99 99 91 80 91 88 86 85 92 95 95 94 91 90 92 95 99 99 99 99 99 99 98
86 84 96 97 98 94 95 96 97 99 100 100 100 100 99 99 100 100 100 100 99 98 99 93 99 99 99 98 93 99 100 97 94 94 96 97 99 99 99 99 99 99 99 100
98 98 96 97 78 88 96 100 98 99 99 100 98 99 100 100 100 100 100 99 98 93 92 96 94 100 100 100 100 99 99 99 99 98 91 85 95 98 99 99 99 98 99 99
93 99 96 76 84 83 96 89 91 98 99 99 100 99 98 99 100 98 99 97 98 99 100 96 95 99 97 98 99 99 100 98 76 50 46 46 48 65 80 94 100 99 99 99
88 89 85 90 79 78 79 78 96 97 98 99 99 99 100 99 97 95 92 99 100 100 100 94 89 83 90 93 97 93 88 53 41 36 32 27 24 28 42 46 73 92 99 99

GFSNW_850_rhum_078.txt.gz
RH
31 27 19 9 11 37 58 67 89 70 67 71 95 93 75 72 69 78 82 84 87 58 55 70 72 79 64 54 52 63 62 77 93 83 76 63 78 82 82 93 98 92 87 68
36 34 27 16 12 30 66 65 76 68 71 92 90 66 72 69 66 62 60 62 51 50 55 67 66 61 52 50 52 55 57 83 98 99 94 84 99 87 73 75 83 86 86 64
38 36 33 24 16 13 71 74 87 65 70 74 76 79 73 67 57 66 63 58 54 54 56 61 66 64 57 53 46 54 54 74 74 85 68 82 87 89 90 78 87 76 81 51
42 37 35 35 27 14 51 62 96 96 97 86 83 70 67 64 69 58 62 59 74 73 59 60 64 60 60 50 46 46 52 73 67 62 72 71 74 78 82 77 64 76 55 58
53 43 38 36 37 27 18 69 85 86 99 89 93 74 70 68 67 72 75 77 76 67 71 68 68 61 58 56 48 51 65 84 67 84 58 62 71 75 78 70 60 62 63 60
62 57 53 46 39 40 25 32 86 99 83 90 87 81 72 74 69 70 71 69 78 74 64 63 64 66 55 51 53 61 65 79 83 88 65 68 81 75 82 76 67 60 67 51
68 74 70 68 53 40 45 41 75 92 87 89 84 76 73 75 68 75 66 67 72 61 64 64 62 54 51 50 53 56 70 76 80 88 72 95 50 53 60 69 66 62 53 49
74 86 83 77 73 61 44 50 46 95 93 86 68 70 70 69 68 75 72 66 67 67 66 70 63 67 60 58 58 62 61 73 82 87 88 63 61 60 69 73 70 62 61 52
82 96 93 93 81 76 61 54 70 63 98 74 80 74 68 86 91 83 74 68 69 68 81 88 81 82 59 67 58 63 66 70 78 89 90 86 62 56 51 58 87 60 56 56
80 93 93 86 76 74 81 63 62 82 91 60 75 70 71 51 80 87 81 84 78 70 84 99 98 79 56 71 65 75 75 72 82 82 90 75 56 60 54 84 71 56 54 49
86 92 96 93 89 98 95 81 72 78 96 85 74 64 62 68 74 85 87 89 88 89 91 92 85 83 67 64 61 71 70 81 83 78 73 80 58 53 69 65 62 60 58 59
83 80 91 96 97 100 98 92 94 96 99 95 85 94 86 78 76 80 74 94 94 92 91 89 89 84 74 71 72 59 67 62 67 66 66 47 52 53 51 59 60 63 61 63
44 73 86 90 99 98 99 98 96 95 98 92 82 64 64 62 54 64 77 57 83 94 100 99 96 94 76 80 77 61 57 57 61 59 51 53 52 52 55 55 59 63 62 61
8 10 23 51 87 98 99 98 96 98 98 98 74 59 56 65 69 76 77 67 80 87 94 97 91 94 63 72 66 71 62 60 65 66 57 50 50 53 54 57 60 65 69 71
17 20 33 53 74 100 100 96 95 98 98 98 95 71 54 50 57 66 60 73 73 72 95 98 94 82 76 78 78 76 62 66 73 73 55 55 61 54 65 63 64 62 61 62
45 55 56 64 64 83 97 93 91 76 100 98 98 69 48 48 76 78 69 68 74 78 95 97 84 76 71 88 89 63 52 47 45 53 52 57 64 69 66 64 64 62 64 63
48 55 74 88 100 97 87 81 90 94 99 97 96 89 52 86 98 72 79 80 81 76 72 75 86 81 77 92 92 58 47 47 48 51 54 71 70 67 67 66 67 68 67 66
56 69 90 96 97 94 98 100 100 100 98 96 98 91 73 97 100 88 73 86 95 97 85 84 95 82 82 99 87 66 58 54 54 59 61 56 60 68 71 74 74 72 69 69
69 94 90 96 98 98 97 95 98 98 98 98 87 99 98 78 87 99 93 100 99 93 94 91 83 90 98 85 72 66 61 58 57 64 70 68 72 76 78 78 77 78 77 76
94 96 90 93 89 100 100 99 98 99 100 99 94 86 96 92 97 98 99 99 99 99 87 84 94 91 67 73 73 69 67 67 69 72 79 78 79 83 85 84 85 85 85 85
96 87 95 98 98 99 99 92 94 98 96 99 94 95 96 97 99 99 99 100 99 96 98 88 86 85 96 90 83 81 80 80 80 78 79 81 82 84 86 86 86 89 90 91
85 85 94 98 98 92 91 92 95 93 95 86 98 98 100 99 99 99 99 100 100 99 96 100 90 88 94 92 90 89 88 88 87 87 86 87 86 86 87 87 90 94 93 88
86 83 97 96 94 94 88 96 96 94 99 99 99 92 99 100 100 98 100 99 98 99 99 98 95 92 96 94 95 97 97 92 91 88 86 84 84 88 89 93 97 98 99 99
82 81 98 94 96 91 93 95 96 93 94 90 98 97 98 99 99 100 100 100 100 98 98 95 99 100 100 100 99 99 99 99 96 95 93 91 90 87 88 94 96 96 96 96
76 97 97 100 82 94 96 89 88 85 88 90 98 94 99 96 99 99 99 99 97 97 98 100 100 100 99 100 99 99 99 99 99 98 83 75 49 32 43 58 60 66 85 97
95 96 91 96 90 79 96 94 87 79 90 83 100 97 99 96 99 98 99 97 98 98 99 99 100 100 100 99 99 99 99 99 99 97 60 41 30 22 22 25 24 28 44 72
86 90 93 96 90 79 75 74 77 87 82 87 98 96 88 96 97 100 98 99 99 99 99 100 95 98 100 100 98 98 99 99 73 48 41 30 22 19 21 23 25 26 27 33

GFSNW_850_rhum_081.txt.gz
RH
34 34 30 24 17 16 50 62 84 69 76 73 97 90 71 70 74 84 86 87 90 72 58 71 79 87 83 63 70 86 69 83 98 96 82 71 73 81 86 94 97 89 89 70
28 32 30 27 21 15 35 60 68 68 66 88 92 70 69 73 73 71 75 73 74 56 58 67 67 68 61 54 52 65 68 85 98 92 83 85 89 78 69 77 87 97 86 69
29 32 31 30 29 19 32 58 88 57 69 80 84 85 80 69 63 69 64 69 62 66 54 60 67 66 68 54 47 53 53 76 75 84 65 87 100 95 84 83 92 82 87 65
28 31 32 26 26 24 21 44 99 97 92 88 94 90 79 75 72 61 65 71 76 75 72 64 65 61 59 51 48 55 54 78 73 66 73 73 79 84 94 90 79 81 62 63
23 21 17 20 25 20 24 45 64 72 91 92 93 84 79 76 73 75 75 79 77 74 72 68 68 64 59 57 49 54 64 85 68 82 63 67 73 76 88 88 81 75 65 65
24 21 26 31 43 41 39 45 63 95 80 91 86 86 72 72 65 87 74 81 81 82 71 61 61 66 67 60 56 64 67 82 78 78 68 68 74 75 83 76 69 66 70 53
27 38 46 59 68 63 56 52 53 81 75 70 62 69 69 76 68 77 87 88 79 65 63 66 69 69 62 56 56 59 72 73 78 91 72 83 47 56 62 69 67 67 55 49
42 74 79 74 71 71 73 61 58 62 82 80 73 76 66 70 75 78 81 85 82 71 66 73 68 69 62 61 60 62 64 78 85 89 90 66 56 61 71 75 68 64 61 53
66 83 93 91 85 75 76 78 67 69 90 74 69 80 79 88 77 73 90 81 95 75 84 97 88 94 72 77 66 67 70 73 79 91 90 81 57 60 53 56 81 61 60 60
76 97 88 85 84 83 90 93 80 82 86 69 78 78 78 74 76 81 67 95 91 81 88 100 99 84 59 72 69 83 78 75 79 84 92 76 56 62 57 81 68 58 56 53
69 86 90 86 99 100 99 98 94 89 92 85 77 72 83 80 79 90 80 67 99 94 98 98 95 91 72 66 62 73 74 85 87 81 81 81 56 56 68 63 64 62 58 54
18 57 70 84 88 99 100 100 98 98 100 88 82 70 72 84 81 94 86 89 70 96 96 94 93 88 78 73 77 63 70 64 73 66 65 45 51 54 51 61 62 64 62 64
5 7 10 31 67 89 98 100 99 99 100 91 70 58 61 58 61 64 92 70 66 92 100 99 97 98 80 86 78 63 58 58 61 60 51 53 49 53 62 61 61 63 61 61
9 12 13 14 22 49 98 95 97 99 100 98 81 62 68 67 62 70 68 74 76 72 76 96 98 100 70 76 70 73 62 61 65 67 58 52 50 52 54 55 59 64 64 66
16 30 39 42 62 90 100 98 100 100 100 96 94 69 53 58 61 70 74 79 80 79 73 95 99 92 81 83 83 78 63 67 73 73 54 53 52 51 59 60 65 68 66 63
28 52 63 88 67 100 95 92 84 76 84 99 95 72 45 58 98 80 75 68 73 75 95 95 84 76 79 90 90 64 55 51 51 54 50 58 60 64 68 64 63 64 63 62
46 52 69 87 96 98 91 84 93 98 95 98 87 88 55 73 94 74 74 78 80 77 79 78 79 85 80 98 96 61 50 51 49 52 59 67 64 66 69 69 66 66 68 68
56 71 94 99 98 92 98 94 90 90 98 97 94 93 67 80 94 95 80 85 84 97 86 78 90 77 80 99 83 66 64 68 58 56 61 57 58 69 70 70 72 73 73 71
79 96 95 93 96 92 93 87 89 100 98 98 97 99 95 70 81 98 91 98 100 89 99 97 85 94 97 82 69 60 64 65 62 64 69 67 68 75 78 79 79 77 76 76
99 99 91 89 93 98 93 96 95 96 98 98 96 82 98 86 96 99 99 100 99 99 92 83 95 94 68 81 80 80 77 70 71 74 80 78 76 77 80 82 84 85 85 84
97 88 96 94 97 94 92 96 95 89 89 96 88 92 95 96 95 96 96 97 99 99 92 98 96 91 92 91 88 86 85 83 82 80 79 81 83 87 88 89 89 89 90 89
82 80 96 95 93 86 91 93 94 91 92 86 98 98 97 99 100 99 98 99 100 97 99 100 97 81 93 95 94 94 94 91 87 88 87 86 86 86 86 87 87 87 88 89
83 82 93 86 90 92 86 96 87 90 98 99 88 93 84 99 100 98 100 99 98 99 100 98 99 99 100 100 99 100 99 96 92 88 86 85 85 88 89 91 93 92 92 93
80 81 100 91 99 87 94 93 94 88 95 90 90 98 85 93 98 99 100 99 100 98 98 95 100 99 100 99 99 99 99 100 100 100 92 76 59 52 52 52 56 60 68 88
74 79 89 99 85 83 95 91 87 82 87 83 90 95 99 99 100 100 99 98 97 98 98 99 100 99 99 100 100 100 99 99 99 99 98 95 81 35 23 26 26 25 30 47
87 94 94 94 95 89 95 99 86 80 87 83 97 98 99 97 99 98 96 98 97 98 99 99 99 99 99 99 99 99 99 99 99 99 84 50 32 23 20 20 20 22 24 30
98 94 90 90 92 81 81 78 78 89 82 87 96 91 94 95 98 94 96 93 99 99 99 99 99 95 99 100 100 100 100 100 88 54 48 36 28 20 20 19 21 24 28 32

GFSNW_850_rhum_084.txt.gz
RH
24 20 16 18 14 14 17 52 83 78 76 81 98 92 70 68 78 84 88 90 90 87 66 94 100 100 94 90 76 91 82 85 98 97 90 79 77 83 83 92 94 89 91 77
21 15 10 10 6 6 10 36 62 75 74 88 92 80 73 72 74 74 84 88 85 64 63 71 72 84 62 69 82 78 70 86 98 98 84 85 91 83 81 81 89 95 92 74
14 9 5 5 5 5 11 33 79 50 72 89 91 98 90 79 58 77 69 78 71 70 61 62 72 98 76 63 60 63 56 76 77 84 66 82 99 94 82 81 98 85 89 72
10 6 6 5 5 5 14 32 98 97 88 84 98 97 90 86 76 67 66 79 92 85 79 72 69 65 81 64 52 58 60 82 72 68 69 84 86 91 91 88 75 81 70 72
10 8 8 7 8 10 19 42 51 68 91 81 96 88 90 78 76 83 94 86 96 81 84 71 71 65 62 61 53 56 66 83 69 82 73 72 78 84 91 85 75 85 75 74
10 12 10 22 25 33 52 55 55 79 71 76 78 84 67 68 70 62 77 73 98 98 80 65 62 66 71 64 59 65 69 80 76 74 70 66 69 73 86 84 82 80 88 62
20 17 28 58 51 56 66 66 59 66 67 73 58 68 71 70 72 81 67 73 94 98 97 82 74 74 69 60 59 62 71 72 77 93 71 76 45 58 64 74 72 74 68 53
20 32 67 85 82 74 69 76 71 63 80 72 71 73 74 74 70 72 61 87 90 99 99 84 80 77 64 64 65 64 67 79 88 90 88 65 57 65 70 75 64 66 68 60
23 35 85 80 79 76 74 83 86 77 82 76 74 84 83 90 88 84 65 70 89 99 90 98 96 98 77 82 71 68 72 74 80 91 89 75 52 64 57 57 80 57 65 63
28 82 93 84 82 89 86 96 98 90 85 72 75 84 86 75 87 96 81 85 94 97 92 100 98 83 61 76 76 84 80 76 87 79 88 78 56 56 60 82 67 62 59 62
34 91 82 84 92 93 100 94 99 97 89 86 77 76 80 83 87 92 85 80 89 97 99 100 100 96 77 67 63 74 79 86 88 81 91 86 47 60 69 60 66 66 62 59
14 32 26 47 62 91 99 98 100 99 100 95 92 74 72 75 78 95 89 92 87 98 100 99 100 98 100 79 79 64 70 66 74 74 75 49 45 58 54 58 64 66 65 64
11 5 8 12 29 65 72 100 99 97 100 86 70 62 60 62 67 76 91 79 87 98 82 96 100 97 87 97 90 65 60 58 64 63 52 54 49 51 56 64 63 64 64 64
5 10 15 22 26 48 64 99 99 92 99 98 71 66 60 59 58 65 77 78 79 80 73 81 98 100 86 80 74 78 62 62 67 69 60 53 48 53 58 59 61 64 64 65
12 18 36 46 48 92 97 97 95 98 93 95 83 60 51 54 69 74 80 82 90 86 78 94 94 93 91 86 87 84 65 66 70 71 55 54 53 53 59 60 63 68 70 66
16 39 49 64 64 98 95 96 78 84 91 99 97 73 48 48 92 80 86 86 88 83 86 89 83 70 94 90 93 66 58 56 56 55 53 57 61 62 65 68 67 66 65 64
26 49 52 70 95 92 87 83 88 91 96 96 92 87 54 62 94 82 77 81 84 77 79 87 77 81 78 91 82 64 59 64 64 55 56 65 65 68 72 71 71 70 68 69
50 48 60 100 99 96 96 94 96 97 95 94 92 91 69 73 80 96 84 84 91 94 83 82 89 75 80 97 80 66 63 64 62 66 65 65 62 71 74 75 74 74 75 74
54 50 90 90 93 92 94 91 96 99 89 93 97 100 96 71 79 93 94 96 98 93 97 94 88 92 96 81 81 74 78 76 69 66 71 72 70 76 79 79 79 79 77 77
54 74 90 88 92 92 96 90 95 99 99 95 91 87 95 88 96 93 96 99 94 97 89 86 98 96 79 87 89 83 81 80 78 77 79 79 79 81 83 83 84 84 84 85
80 86 99 98 98 91 87 89 90 88 84 91 89 87 96 92 97 94 91 98 95 99 92 98 98 93 92 94 95 95 92 90 87 82 81 82 82 83 86 88 88 88 87 86
74 72 93 95 90 86 76 95 97 83 92 86 95 93 95 98 99 97 98 99 98 92 99 99 98 89 100 100 99 99 98 96 93 91 87 87 86 85 84 82 84 86 88 87
75 77 92 83 90 89 90 100 84 94 88 96 98 93 77 92 100 98 100 99 93 99 99 98 99 99 99 100 100 100 100 100 99 98 96 88 85 86 88 89 89 87 80 81
74 77 100 90 99 86 93 91 90 80 94 90 86 80 86 87 99 99 99 89 98 98 97 97 98 100 99 99 100 100 99 99 99 99 93 71 50 38 35 34 32 29 26 33
72 72 86 99 82 82 94 81 92 87 84 82 85 84 96 98 100 100 99 96 97 98 98 99 99 98 99 99 99 99 99 99 99 99 99 98 96 64 23 22 22 21 23 25
84 87 95 94 96 95 100 98 96 82 81 82 85 96 99 97 98 98 94 97 96 97 99 98 99 99 99 99 99 99 99 99 99 99 98 72 35 26 20 20 19 19 21 24
99 100 91 86 88 81 85 88 80 86 83 94 94 95 92 95 92 91 93 96 98 99 96 95 99 100 99 99 99 99 99 100 96 59 54 45 39 29 27 21 18 17 19 24

GFSNW_850_rhum_087.txt.gz
RH
17 10 5 5 4 4 5 20 85 89 93 93 98 94 76 66 77 86 82 92 88 98 88 94 100 100 100 76 72 91 83 88 96 93 88 83 86 84 76 86 94 87 83 58
10 7 5 4 4 4 4 17 67 84 90 95 97 85 84 76 74 75 88 90 88 78 71 96 92 99 76 85 75 84 76 87 96 96 84 89 100 84 77 81 86 92 84 65
8 6 6 5 5 5 7 21 74 54 79 80 90 93 87 92 67 78 85 84 86 81 71 66 89 100 83 84 81 77 67 78 76 83 66 81 99 91 79 79 94 90 85 65
9 8 7 6 6 7 13 22 93 80 83 75 93 87 85 70 72 65 68 89 97 99 94 71 79 100 98 86 75 70 68 94 71 73 69 83 84 89 91 88 77 80 66 69
10 10 8 8 6 14 23 36 51 74 81 81 83 78 77 71 64 72 72 90 81 95 99 100 100 84 100 98 75 75 66 81 69 82 78 75 80 84 88 86 80 79 79 78
10 12 10 10 14 24 44 54 58 66 67 68 65 75 66 72 72 64 68 71 82 91 99 99 99 82 72 68 77 75 70 78 77 79 73 68 66 70 87 86 83 73 83 59
12 13 18 21 29 51 61 66 61 59 66 69 63 68 72 77 74 83 70 73 86 96 77 85 88 89 75 65 65 62 70 70 75 90 70 75 43 59 65 79 76 80 75 66
13 16 26 43 59 73 69 76 73 69 79 72 67 73 81 79 74 75 69 69 79 94 100 98 81 82 66 72 80 69 66 75 87 83 84 60 60 65 68 68 60 64 73 68
14 19 36 54 72 82 78 78 91 79 78 74 72 84 85 91 96 87 71 76 90 99 99 97 93 96 76 84 77 68 73 73 76 87 86 69 50 65 58 58 74 57 66 67
21 20 42 78 83 80 95 86 93 86 84 77 78 82 86 82 87 96 84 84 94 99 100 99 97 84 64 79 77 81 81 78 84 74 77 73 57 56 62 74 66 67 65 63
19 35 69 83 95 100 100 77 88 92 90 88 80 88 89 89 90 95 77 82 86 89 97 100 99 94 86 72 67 74 78 84 88 83 83 83 46 62 68 60 65 68 68 59
12 21 28 48 75 77 99 91 92 95 95 86 81 68 75 75 85 95 88 81 91 94 91 94 98 96 100 89 81 66 72 68 74 74 73 51 44 60 56 60 66 66 66 63
9 14 10 12 43 65 76 96 93 91 98 83 64 64 68 68 70 79 79 79 92 88 82 95 96 99 88 97 98 70 60 60 66 64 53 55 51 50 51 64 66 64 66 67
8 6 12 17 24 68 43 87 96 90 91 93 69 67 60 59 62 65 69 76 81 83 82 83 95 95 98 91 80 82 66 65 69 71 60 53 49 51 58 66 64 65 65 71
6 12 21 38 61 63 93 95 96 98 79 82 73 58 56 55 65 97 91 74 86 91 81 92 98 88 92 91 89 92 69 68 72 68 58 59 56 62 60 64 67 71 72 69
11 16 37 52 75 95 87 88 78 85 84 96 96 66 55 48 77 94 76 85 90 90 87 86 77 68 96 88 94 69 61 60 60 58 56 57 59 67 67 71 73 69 67 66
20 34 66 72 96 86 86 76 80 90 89 92 88 80 52 63 84 94 80 83 86 83 78 91 81 71 85 85 80 59 64 67 63 62 66 63 67 71 74 74 73 72 69 70
38 88 94 87 98 95 92 95 97 97 88 88 96 89 64 69 74 96 89 85 90 97 89 87 88 73 82 94 75 69 66 63 62 67 72 70 68 76 78 78 77 76 77 76
73 98 90 99 96 90 94 96 97 96 85 90 90 98 93 74 82 88 100 96 98 90 96 94 91 94 93 84 92 87 88 89 83 80 77 76 76 79 82 82 82 82 82 83
79 94 87 91 92 92 94 93 82 92 90 92 87 90 96 82 94 84 99 99 99 100 86 89 96 95 86 95 95 94 87 83 88 86 83 83 83 83 83 82 82 85 85 85
91 87 99 95 96 89 83 84 88 86 83 88 86 87 95 94 99 96 91 100 99 99 94 98 97 95 97 99 100 100 99 98 96 91 88 85 84 86 87 88 87 88 86 83
68 61 95 96 88 82 83 95 94 77 90 87 91 93 92 90 100 97 97 100 99 94 99 100 91 99 99 99 99 99 100 100 100 98 95 93 92 91 88 87 87 86 86 85
67 80 90 87 90 97 91 99 90 86 86 88 98 94 77 92 100 98 99 99 95 98 99 96 98 99 100 100 100 100 99 99 99 100 100 99 95 91 86 78 72 56 40 32
79 79 99 89 97 92 90 87 89 81 95 97 85 82 87 93 100 98 100 89 100 98 97 97 99 100 100 100 99 98 99 99 98 99 99 97 64 36 29 24 22 18 18 20
78 71 86 99 77 86 79 86 96 90 84 80 90 80 85 94 99 94 99 98 97 97 96 98 97 98 100 100 99 99 98 98 98 98 98 99 98 79 40 20 19 17 17 18
77 76 90 96 90 100 100 100 97 86 83 83 77 88 99 93 98 98 94 97 94 94 99 92 93 96 99 100 100 98 98 98 98 98 97 78 47 30 25 24 19 16 15 16
95 99 82 82 83 81 97 100 92 86 82 95 97 92 90 93 94 95 90 96 93 91 85 57 58 59 63 87 100 100 99 99 99 98 97 86 78 78 63 35 26 22 20 18

GFSNW_850_rhum_090.txt.gz
RH
13 6 4 4 4 4 8 31 75 93 99 89 92 68 59 70 62 74 77 86 98 99 90 88 100 100 96 53 54 67 62 93 93 97 76 61 90 69 56 68 81 70 60 39
11 6 4 4 5 5 7 24 76 79 84 82 67 56 62 71 53 64 64 89 91 96 100 81 84 100 91 63 60 68 67 88 94 98 92 88 94 81 61 63 73 79 49 38
8 6 5 5 5 6 10 20 76 54 72 72 64 77 64 54 47 62 50 93 73 76 96 64 78 100 94 78 66 78 76 70 73 64 57 69 99 78 63 87 85 63 56 42
8 7 6 6 6 8 13 19 75 51 52 53 60 70 58 55 60 54 57 56 58 98 91 94 97 99 97 91 87 84 69 86 67 67 64 66 72 75 74 86 67 77 47 53
10 7 7 6 6 9 17 32 64 63 64 70 54 54 52 60 62 62 60 67 66 88 95 100 100 100 100 100 90 95 76 81 64 75 64 66 71 69 69 67 62 58 56 53
13 9 8 6 7 12 25 43 51 56 63 53 50 59 60 62 64 56 60 62 75 81 93 81 84 92 99 79 91 74 68 71 70 77 64 58 58 52 67 68 66 58 71 48
14 10 8 7 8 17 28 45 54 56 50 48 53 60 66 65 66 74 64 64 67 74 87 95 87 92 88 68 58 58 59 57 61 64 58 53 44 49 54 58 58 60 56 53
15 12 9 8 10 31 45 56 60 61 56 57 58 65 67 70 69 69 66 65 77 96 100 95 73 67 64 65 63 58 54 56 65 63 56 48 60 59 56 56 56 52 55 50
14 12 9 13 24 42 61 64 64 65 60 56 69 70 75 71 64 58 66 73 81 100 98 87 80 77 60 68 69 58 58 56 58 69 68 52 54 54 55 51 67 56 57 52
13 12 11 22 40 49 83 73 69 71 76 76 78 69 71 80 74 71 70 70 92 86 85 90 83 66 58 63 61 66 64 65 69 61 64 49 44 53 60 66 66 60 66 60
13 12 12 23 47 39 75 78 72 76 84 83 81 88 87 85 83 63 63 69 75 82 82 87 92 80 70 64 55 59 56 59 62 63 64 66 45 60 63 54 61 69 71 61
15 11 10 31 36 93 72 72 83 81 81 81 82 70 68 75 82 83 86 77 84 98 79 77 85 80 97 75 63 57 60 50 50 50 46 43 45 56 58 60 64 68 71 60
16 9 16 18 16 69 60 69 85 82 90 74 66 66 66 69 71 74 72 81 93 86 89 85 84 98 92 78 76 69 52 52 49 54 47 46 50 53 52 58 70 66 69 67
16 12 16 11 26 51 50 62 82 78 76 68 68 65 63 66 71 76 68 75 78 80 86 76 76 91 98 91 73 68 55 56 54 52 49 49 55 60 60 68 71 67 70 73
16 16 12 16 80 41 45 90 84 76 76 67 73 60 60 60 64 86 89 78 81 91 78 75 75 79 88 87 78 69 58 54 53 52 54 56 52 63 63 68 70 74 74 71
21 11 20 50 50 46 86 86 80 74 76 86 62 66 61 58 96 83 76 87 84 95 85 74 76 66 76 78 75 60 65 66 66 61 64 64 62 68 70 73 73 72 68 67
13 20 50 91 63 80 86 68 62 83 79 87 72 60 53 71 98 91 80 89 90 90 83 81 76 69 86 76 62 65 71 72 65 64 69 66 73 76 75 76 75 73 70 71
26 56 99 96 92 98 92 97 86 86 82 75 80 67 63 73 85 97 87 94 96 90 84 90 80 72 74 69 61 66 75 75 69 71 76 79 74 79 81 80 78 77 77 78
65 95 100 97 97 85 92 97 96 91 75 87 83 80 80 75 86 90 98 98 88 89 87 83 86 79 87 64 87 88 89 94 89 83 84 83 84 83 84 84 83 82 82 82
97 96 90 95 88 88 95 95 84 89 86 82 78 87 80 82 92 82 83 99 88 94 76 91 96 78 90 98 100 99 97 98 95 92 87 89 91 90 89 87 84 82 83 85
77 81 98 95 92 88 85 92 90 88 83 89 86 86 80 87 86 86 93 94 92 94 83 90 85 82 96 98 100 100 99 99 100 100 98 90 89 90 90 92 92 92 86 82
64 54 97 98 93 87 82 88 90 79 79 89 87 88 88 93 99 92 93 93 97 82 98 100 79 89 99 98 99 100 100 100 99 100 100 99 98 98 96 92 89 89 83 76
47 87 93 93 94 92 93 96 92 91 88 90 98 92 93 97 99 96 87 92 86 98 99 84 82 96 100 98 97 100 100 99 99 99 99 99 99 99 99 81 61 41 29 24
72 89 98 92 95 87 83 74 80 80 88 98 94 88 84 92 89 90 93 78 97 91 94 86 86 94 100 100 99 100 100 100 98 98 98 98 89 53 41 31 22 20 19 18
89 88 88 96 82 88 73 79 98 100 98 86 86 79 84 92 88 84 88 93 91 84 85 84 90 91 97 100 100 100 99 100 98 98 98 98 98 98 93 65 22 18 17 16
90 92 94 96 88 100 94 100 100 90 81 77 76 82 85 81 84 95 90 90 88 81 92 81 81 74 78 92 100 100 99 98 99 98 98 96 56 42 42 58 48 28 26 22
96 97 84 81 78 93 98 100 90 81 76 87 98 98 98 88 92 90 78 86 81 81 79 67 57 58 60 60 61 88 99 99 99 98 98 98 96 69 59 56 43 37 36 32

GFSNW_850_rhum_093.txt.gz
RH
17 10 5 4 5 5 14 57 68 64 80 78 66 56 47 56 43 49 60 84 96 99 100 91 100 95 75 42 37 57 79 92 93 98 72 52 66 74 54 68 64 60 62 41
17 8 5 5 5 6 12 39 75 53 73 66 60 41 47 40 42 53 45 75 75 57 99 96 97 100 84 56 45 76 79 87 95 99 91 86 86 76 72 52 76 74 59 42
17 7 5 5 6 7 12 40 79 54 51 50 47 55 53 46 44 46 50 52 55 59 64 82 94 100 86 60 56 84 78 95 97 76 66 64 95 76 55 85 77 46 46 38
16 7 6 6 6 7 12 33 66 44 40 42 42 46 47 50 54 47 45 47 52 98 77 59 80 100 98 84 84 84 85 99 61 56 55 56 70 68 61 91 61 71 44 43
16 8 7 6 6 7 16 40 56 49 41 49 41 41 44 53 56 53 50 57 59 73 81 92 95 94 100 100 90 96 69 81 59 70 57 57 65 58 60 59 55 51 49 49
16 8 7 6 6 9 14 28 33 50 45 41 41 46 50 55 55 50 52 58 60 72 71 64 69 75 82 93 95 82 61 60 64 74 56 52 66 58 59 58 54 53 65 48
18 9 8 6 6 9 14 18 47 43 35 33 41 50 54 53 56 64 56 57 56 60 79 90 84 76 73 66 57 53 53 50 52 52 49 57 44 40 45 52 46 48 50 46
20 11 11 7 6 11 14 20 44 46 32 38 49 52 54 54 55 57 57 56 65 84 97 72 59 61 59 55 52 49 48 48 52 57 45 46 57 54 49 53 54 48 50 46
23 12 10 7 6 14 16 26 39 67 36 42 55 54 58 54 49 49 56 64 78 96 90 68 67 65 52 55 58 50 50 49 54 56 61 47 50 47 48 45 63 51 53 49
23 15 10 7 8 15 20 32 44 73 48 65 66 51 54 64 57 55 53 64 82 79 74 76 81 60 50 55 52 54 54 54 60 51 56 43 40 48 52 69 84 58 61 53
31 15 9 8 13 20 27 37 51 72 60 76 74 76 68 67 64 52 55 65 74 76 71 71 74 78 60 60 47 50 50 52 53 52 58 58 40 56 60 52 54 62 63 55
38 27 10 9 17 20 28 49 48 54 79 84 64 64 62 76 83 76 65 67 74 81 72 70 73 78 86 65 67 47 55 46 54 48 47 40 40 44 47 54 54 64 65 63
50 17 10 10 17 24 30 49 53 60 80 75 69 71 60 64 66 80 74 71 85 77 84 71 74 84 76 65 79 64 45 44 46 48 43 41 45 48 52 52 65 70 73 72
40 22 15 22 16 38 42 53 56 75 77 52 65 60 66 72 73 76 84 88 78 83 75 68 65 79 94 80 85 68 53 49 47 45 42 44 52 60 58 66 74 74 76 78
40 26 32 48 43 38 44 61 60 64 81 53 63 59 58 57 62 77 96 95 89 79 68 68 65 63 73 80 72 62 49 52 54 79 52 52 48 55 72 70 76 78 78 74
40 29 26 21 30 46 53 68 62 64 60 77 57 69 57 55 90 86 93 99 93 84 72 64 63 62 60 63 64 53 58 60 66 60 61 61 60 68 72 79 76 75 73 71
48 28 19 31 83 51 69 70 65 65 61 81 66 55 60 68 98 92 96 94 92 86 73 71 66 59 75 64 57 66 60 64 66 69 74 59 75 77 78 81 77 75 74 72
52 21 31 82 89 88 75 72 80 68 66 64 77 60 64 73 83 90 92 89 89 84 71 74 69 62 58 63 45 64 75 79 72 83 83 85 84 82 83 82 81 79 77 76
30 55 97 92 99 85 81 81 77 76 71 78 76 82 84 72 80 89 95 96 88 88 76 69 71 65 76 54 68 80 90 94 96 87 77 89 90 91 90 88 86 85 82 81
74 98 90 100 96 84 84 89 92 94 86 89 72 78 78 81 78 78 84 99 86 93 72 83 90 70 60 95 99 99 100 99 100 100 91 94 95 97 95 94 91 91 89 88
97 86 99 99 96 85 84 95 86 85 85 83 73 72 71 83 78 75 80 86 86 86 85 84 72 68 78 99 100 99 98 100 100 100 100 100 99 100 97 96 94 92 89 84
65 61 98 98 94 93 82 84 87 83 72 80 76 79 85 96 97 87 85 80 94 78 95 98 75 65 89 96 98 99 99 99 98 99 99 100 100 100 100 100 98 91 87 79
74 70 89 91 96 89 89 90 88 86 79 88 97 90 86 96 94 90 83 93 77 87 94 73 67 91 94 100 99 99 97 99 100 100 99 99 99 99 99 99 99 82 42 24
46 67 85 85 92 81 82 72 81 86 86 96 85 83 76 82 90 80 84 66 86 89 89 76 76 89 93 99 99 97 97 100 100 97 98 98 98 98 84 39 30 25 24 24
57 67 78 92 90 94 93 87 100 98 98 91 84 82 76 86 85 73 84 91 80 69 73 76 89 84 88 94 100 98 99 96 94 96 97 98 98 98 98 98 82 29 22 22
79 84 94 96 91 97 99 100 99 100 92 85 82 78 78 80 78 87 83 79 81 74 89 90 79 74 67 66 73 88 92 93 95 96 95 97 98 98 96 94 92 96 79 43
94 98 95 94 94 92 94 96 99 97 76 83 88 95 82 80 85 83 70 80 77 94 91 80 68 59 61 63 65 62 60 83 96 98 98 98 98 98 98 89 52 46 41 42

GFSNW_850_rhum_096.txt.gz
RH
27 17 9 5 5 8 24 71 92 54 74 89 76 79 46 44 40 46 51 80 89 74 88 98 100 90 70 39 34 55 85 98 96 87 62 55 65 71 73 96 73 93 88 57
27 17 7 5 6 9 22 49 76 44 65 87 81 43 44 38 43 49 48 63 54 56 88 99 94 99 75 64 42 95 85 96 99 99 95 81 83 72 72 72 85 82 94 57
27 16 6 5 6 11 19 47 91 57 55 45 47 61 51 46 44 43 43 45 52 71 64 68 94 100 82 69 71 81 82 95 99 98 75 79 94 75 68 90 93 61 95 48
29 14 6 6 8 12 18 47 79 55 65 51 40 41 44 49 54 44 42 48 59 91 80 71 84 93 96 74 81 78 81 100 97 58 55 63 75 82 72 83 72 79 55 46
30 13 6 6 10 13 28 44 49 38 38 44 44 46 50 52 55 50 48 57 59 72 81 85 92 85 90 98 78 86 80 96 63 82 55 58 70 66 64 66 62 58 55 57
33 10 7 7 9 14 31 26 35 38 43 42 44 52 50 52 52 48 49 55 62 67 66 64 63 70 74 82 90 88 70 93 78 91 56 54 78 64 65 60 54 56 70 53
35 13 7 7 8 11 16 19 28 45 47 40 42 46 50 51 52 60 53 53 56 66 73 87 87 80 72 71 73 80 66 60 60 73 56 76 51 43 52 56 50 48 51 50
44 14 8 8 7 9 14 21 28 44 42 40 46 50 50 51 52 60 52 53 64 76 87 89 70 73 65 60 51 52 52 64 67 77 58 56 59 54 51 58 59 50 53 52
32 12 10 19 8 7 13 19 23 44 41 49 47 50 53 55 51 58 56 61 72 85 86 77 72 80 52 71 66 51 52 58 71 75 77 63 61 50 48 47 78 54 57 58
40 17 20 11 9 7 17 21 25 47 55 62 57 54 57 59 59 63 52 63 79 79 84 69 75 69 48 62 55 64 66 63 76 72 74 57 48 50 51 80 91 61 62 54
50 16 15 10 9 8 18 25 31 50 62 71 69 62 62 64 62 65 61 70 79 84 80 73 66 76 75 78 48 52 54 65 67 66 66 72 49 58 69 59 59 62 64 57
40 40 22 11 10 11 24 25 34 46 63 77 63 59 60 72 79 74 64 69 73 76 74 80 75 80 86 65 72 48 64 56 66 59 62 43 42 42 44 48 51 66 67 63
62 61 26 14 13 15 22 29 39 38 59 63 68 70 60 61 63 74 80 75 79 74 80 72 78 90 86 74 82 70 50 45 56 52 49 46 50 50 53 54 67 69 72 72
79 60 33 29 19 22 29 32 40 50 63 56 72 62 71 70 74 71 73 85 78 79 76 68 66 81 80 80 89 83 62 56 55 53 56 55 55 58 65 65 73 71 70 78
88 62 50 37 44 36 33 38 43 43 60 62 71 67 63 61 63 77 84 85 86 74 70 75 73 62 78 74 74 82 54 66 79 92 63 60 54 58 66 71 76 78 73 74
88 65 80 63 75 44 38 45 48 47 51 56 76 73 63 56 82 85 88 94 85 79 70 64 63 59 63 81 67 63 62 63 64 64 65 58 67 67 76 79 81 79 78 74
84 88 95 88 80 51 54 62 58 48 44 64 76 72 67 79 92 92 96 93 87 82 71 73 65 61 73 75 72 65 67 68 65 74 67 68 72 80 76 82 81 79 77 78
79 87 89 70 82 58 58 59 58 50 47 61 93 84 67 73 88 88 86 84 86 83 74 70 73 63 65 77 51 69 77 72 75 79 76 79 86 85 85 85 84 83 83 82
87 88 85 91 75 74 73 69 60 52 60 79 85 92 97 74 80 82 90 82 93 82 81 69 71 68 77 66 73 84 94 98 99 90 82 90 90 92 92 91 88 89 88 87
74 68 69 92 90 86 77 75 69 68 64 77 86 71 97 80 76 79 89 96 91 98 83 76 90 74 65 79 97 100 100 98 98 99 97 97 94 96 95 95 93 91 90 90
57 80 98 100 92 84 82 94 91 89 94 86 74 73 89 89 78 78 74 86 93 90 93 91 86 68 84 83 92 100 98 98 99 98 100 100 99 99 100 100 100 100 99 96
64 69 99 96 97 89 88 92 90 90 86 78 83 83 86 95 93 78 89 81 93 84 90 97 73 78 86 87 91 100 99 98 99 100 100 99 99 100 100 100 99 99 99 89
72 77 92 94 98 95 96 93 95 94 79 83 91 89 89 88 82 79 76 80 93 78 94 87 70 88 87 86 100 98 98 99 98 97 100 98 97 98 100 100 99 99 96 84
64 81 98 92 99 90 88 87 93 85 88 94 87 85 76 77 78 70 86 68 84 97 98 82 95 86 82 90 99 97 98 97 98 100 96 96 99 99 98 96 96 67 45 84
63 61 78 96 95 98 99 95 94 93 90 84 86 83 77 76 79 71 79 96 75 67 84 95 80 76 78 81 98 99 99 100 100 96 96 93 92 91 95 96 96 96 80 69
71 79 96 93 90 100 98 99 100 93 85 76 72 90 94 89 81 85 75 71 87 87 98 86 77 75 62 58 61 63 78 94 98 95 95 97 95 94 93 96 98 97 95 72
96 98 90 94 90 95 97 100 99 92 74 97 91 91 86 91 79 78 81 88 92 92 92 86 71 58 58 62 65 68 70 67 85 100 100 100 100 97 91 91 95 91 73 55

GFSNW_850_rhum_099.txt.gz
RH
60 33 22 11 6 9 37 78 95 54 74 69 89 80 49 44 46 46 61 77 84 78 80 100 90 85 83 68 38 86 93 91 85 85 89 65 74 72 83 95 90 97 89 65
73 33 20 8 6 12 35 69 70 59 72 81 88 47 48 43 49 52 53 60 64 60 88 100 81 99 79 69 75 94 84 96 95 91 86 78 82 78 75 83 86 95 97 66
62 33 19 6 7 10 40 50 88 66 63 44 61 66 57 57 45 46 47 54 68 76 83 78 89 99 85 80 78 87 89 86 98 91 72 82 95 80 77 86 93 98 94 57
59 33 18 6 8 10 32 49 80 59 81 62 54 58 48 58 59 47 47 57 79 74 89 76 89 92 93 73 77 78 86 98 93 83 68 73 80 82 81 85 68 82 73 55
51 31 17 6 10 12 28 40 43 44 46 42 48 53 53 61 59 54 56 66 63 70 84 87 90 83 98 95 78 85 86 94 75 87 57 66 81 79 78 72 65 64 59 57
45 29 14 7 12 12 28 51 33 31 50 50 59 59 56 60 56 51 51 59 66 65 73 71 68 73 73 78 92 84 81 93 90 96 60 60 79 67 72 66 57 58 72 60
47 28 10 10 16 11 20 23 32 37 53 54 55 56 53 56 56 64 57 55 59 69 65 77 88 86 82 77 75 85 85 76 76 85 61 78 55 46 53 62 53 51 51 51
40 27 9 9 9 13 17 25 24 38 55 50 54 57 56 55 59 62 59 58 61 70 81 93 91 94 88 79 83 72 87 73 86 80 76 58 61 57 56 57 67 54 58 60
67 38 14 9 9 15 20 27 27 38 48 56 49 57 55 70 71 63 60 62 68 82 88 95 74 90 76 78 69 55 58 66 81 86 82 70 65 53 50 50 88 66 63 59
73 53 16 14 30 13 28 28 29 38 58 58 50 62 67 57 65 75 60 64 77 81 90 67 90 80 55 71 72 78 77 74 83 80 84 64 52 53 52 72 80 66 60 56
81 38 15 28 36 13 34 26 32 34 59 69 63 60 56 62 63 76 64 77 78 88 84 70 65 80 81 84 56 56 63 77 77 79 74 76 53 57 71 66 61 67 66 58
50 22 35 36 33 18 36 26 34 38 37 76 61 65 64 59 63 62 69 77 77 78 86 82 79 79 87 70 77 61 68 64 71 69 73 46 43 45 48 48 50 69 68 64
50 35 60 39 21 28 28 24 34 33 60 70 66 64 60 59 55 64 66 77 76 75 80 77 84 89 86 82 92 81 69 56 63 58 66 64 61 58 61 64 68 72 73 72
66 46 57 48 34 33 28 23 33 32 48 72 77 76 70 70 67 61 68 77 80 77 75 74 78 84 80 78 90 88 74 63 66 75 69 61 58 62 62 69 75 75 77 81
59 61 77 56 35 31 31 28 34 39 46 78 75 78 72 67 70 76 69 74 76 75 76 85 78 67 76 76 78 90 68 75 87 94 80 80 72 63 68 75 78 79 79 80
78 83 77 57 45 36 32 35 42 42 40 48 85 78 69 67 88 82 88 82 79 73 69 72 62 61 62 90 67 69 67 65 68 71 69 64 69 83 74 80 80 79 80 79
99 92 87 78 52 32 33 46 44 45 44 49 83 82 73 91 88 94 94 90 86 75 70 75 67 65 68 89 89 71 68 65 69 72 63 77 71 72 75 79 84 82 82 79
100 98 95 92 50 44 44 47 44 42 39 53 90 93 72 92 85 87 88 86 83 81 73 70 78 70 71 86 66 79 75 75 81 81 79 78 78 83 85 86 87 86 84 84
100 99 99 84 54 46 52 52 49 43 45 68 83 90 95 88 77 80 86 81 92 80 80 73 69 80 85 74 67 82 84 87 97 98 96 98 93 96 97 95 92 93 90 89
100 86 63 76 64 57 55 56 50 46 49 66 91 80 96 81 77 78 94 92 89 95 85 73 89 91 59 71 72 72 91 98 98 99 97 100 100 92 89 95 95 94 96 98
86 85 98 94 77 79 77 78 82 82 92 75 80 78 95 91 80 83 70 94 94 80 94 90 87 86 84 85 82 83 95 99 99 100 99 100 99 99 98 100 100 100 100 100
84 77 92 92 96 94 90 94 94 93 85 88 84 88 89 91 83 74 83 73 90 78 86 95 88 73 82 87 83 84 96 99 99 99 97 97 100 100 100 100 99 99 99 99
87 88 97 96 99 97 88 89 99 97 88 90 93 98 91 90 77 72 70 77 91 91 88 87 86 78 84 82 81 94 99 97 99 99 98 99 100 98 100 100 99 98 98 97
95 97 98 95 99 95 88 83 91 80 80 90 78 87 79 78 77 70 80 74 86 86 99 90 91 80 79 80 84 99 99 99 97 96 98 100 100 100 98 98 95 88 58 73
98 92 87 99 91 99 100 94 95 92 89 80 84 86 75 81 76 76 87 86 84 82 85 89 78 78 77 74 79 98 99 98 100 100 100 100 100 100 97 94 94 93 97 96
97 89 97 94 93 100 99 98 100 94 82 70 68 95 94 87 84 80 87 88 85 83 90 77 78 73 68 59 58 59 66 71 94 100 100 100 100 99 100 100 100 98 96 70
98 98 89 90 84 92 98 99 94 86 69 96 89 86 82 91 91 91 84 88 88 93 81 79 72 64 56 58 62 67 71 73 71 77 99 100 99 100 99 98 99 98 97 98

GFSNW_850_rhum_102.txt.gz
RH
100 100 41 27 18 12 63 87 97 63 82 72 87 83 56 46 46 47 75 75 76 85 88 89 85 97 85 78 62 96 86 81 98 85 78 70 70 73 88 90 89 98 88 70
100 94 37 26 12 9 52 84 63 82 87 86 88 51 49 45 53 51 54 57 67 63 85 96 68 88 71 83 78 85 83 92 90 84 79 74 85 79 77 83 86 98 90 72
100 80 36 23 9 17 48 57 89 78 71 53 68 70 54 59 47 49 49 61 69 74 84 80 90 97 81 79 83 86 88 91 91 81 67 79 95 85 81 82 92 97 96 81
100 58 33 20 9 23 49 54 73 58 81 65 64 60 55 61 60 49 52 69 70 78 85 76 88 92 92 67 75 78 85 93 94 82 78 78 79 82 84 84 86 96 82 75
100 64 30 15 10 24 39 54 58 46 53 50 59 59 57 65 61 55 60 71 64 74 86 89 89 82 93 86 83 85 87 94 83 87 62 76 84 79 81 78 68 83 80 72
99 43 28 10 9 18 22 44 31 27 56 58 63 66 66 63 61 53 54 62 65 77 77 73 68 70 77 76 90 87 82 92 92 90 66 62 82 78 81 72 61 62 76 60
99 45 26 8 13 28 15 33 28 32 61 57 58 59 55 65 62 64 58 56 60 67 65 80 87 85 88 81 77 81 95 83 82 87 64 77 55 47 56 62 56 56 55 52
96 45 22 9 13 25 16 19 29 32 64 58 61 62 62 62 62 59 58 58 58 66 82 92 94 96 90 80 85 83 91 84 85 84 80 61 63 64 59 58 73 60 65 62
86 51 15 13 15 21 17 22 33 31 55 57 50 62 60 77 76 67 62 63 73 82 74 96 83 90 76 80 71 72 78 77 83 87 85 74 66 54 52 51 89 68 62 58
66 41 18 13 14 20 19 23 39 32 56 64 52 60 68 58 70 80 66 64 79 82 93 81 91 70 72 77 76 78 80 80 84 83 86 67 53 55 54 64 72 67 59 57
70 40 17 14 24 20 22 28 44 32 62 70 59 58 57 64 62 76 65 81 81 92 85 71 70 83 82 82 67 60 70 80 82 83 84 83 55 58 70 65 64 69 64 60
83 60 23 21 33 21 30 32 48 33 33 74 66 61 60 57 60 60 72 77 80 82 91 85 80 76 88 79 68 70 69 68 76 69 71 53 58 57 58 53 52 72 68 63
98 62 33 38 45 30 30 33 38 28 60 68 59 64 60 55 59 62 68 77 76 75 77 76 86 70 78 86 90 90 71 63 66 64 74 72 66 62 66 74 73 75 75 73
98 53 54 50 40 30 23 34 32 28 48 73 82 76 68 66 58 55 61 66 76 76 71 73 78 78 77 74 87 88 76 73 74 81 70 67 63 68 75 73 79 77 80 80
77 67 66 55 34 23 30 38 32 33 36 84 86 77 79 75 77 58 64 70 73 73 74 84 85 71 74 68 77 90 75 79 86 90 80 82 79 80 76 78 82 83 81 81
67 76 76 73 33 32 41 39 40 38 34 53 88 81 70 85 82 77 73 74 73 73 72 77 65 63 66 89 69 72 72 68 72 71 70 68 63 64 77 70 82 81 84 80
72 87 96 74 43 42 36 35 44 38 34 47 86 85 84 93 90 95 90 85 80 74 73 75 77 70 70 92 94 70 74 67 70 75 68 70 80 75 71 76 78 84 86 86
87 97 98 58 54 46 44 48 53 43 32 45 93 96 92 95 82 83 87 81 78 76 74 78 78 75 79 90 71 76 77 72 76 82 86 89 89 86 85 89 91 87 88 89
97 100 92 66 46 44 50 47 44 36 32 73 75 91 92 88 78 79 81 73 95 80 87 81 77 84 92 74 64 78 74 71 75 81 98 99 96 94 95 95 96 95 94 91
100 94 53 58 56 51 48 42 39 37 43 63 91 81 96 78 75 77 86 86 87 99 87 73 89 91 62 60 63 65 74 78 100 98 98 96 98 99 97 98 93 90 96 98
99 72 94 74 55 65 58 59 64 70 77 75 86 82 93 85 85 84 69 95 92 96 86 88 96 94 76 62 67 74 80 83 98 99 98 99 98 99 99 100 100 100 100 100
79 70 75 76 85 90 90 90 96 92 74 90 91 90 90 88 77 73 78 85 88 85 86 79 86 77 68 75 80 83 82 88 98 98 98 99 99 98 99 100 100 100 99 98
84 88 91 90 96 97 99 88 95 99 91 93 93 98 88 83 74 72 78 74 94 86 81 83 90 68 78 82 83 83 90 99 98 98 98 98 98 100 100 100 100 99 97 98
96 97 98 97 99 96 90 82 87 78 84 91 76 96 86 76 85 72 84 80 93 92 96 97 90 63 73 79 79 82 94 100 98 96 99 98 99 100 96 99 98 97 90 72
99 98 96 99 93 100 99 91 91 91 85 73 80 81 72 90 87 82 90 89 80 90 94 89 57 62 74 76 77 77 94 99 100 100 100 100 100 100 97 95 95 95 95 98
98 98 98 97 94 100 100 96 100 90 74 61 66 95 93 92 91 88 87 89 91 83 88 68 69 74 76 72 64 57 58 62 80 96 99 99 99 100 99 99 99 97 95 96
98 99 91 85 84 95 100 96 94 82 64 94 88 80 79 90 95 96 89 89 86 56 62 71 72 65 64 59 59 61 64 65 70 70 76 99 99 98 99 97 100 98 98 96

GFSNW_850_rhum_105.txt.gz
RH
96 94 97 100 74 34 60 78 98 94 94 85 89 87 61 50 50 58 74 74 68 79 85 84 78 98 87 76 78 85 84 82 98 82 70 76 69 74 87 90 90 94 89 75
94 98 100 100 51 25 59 78 98 100 100 88 88 54 53 47 55 52 58 60 65 65 83 84 60 88 70 84 77 86 83 87 92 79 78 72 87 79 79 84 86 94 88 77
97 98 100 98 42 22 49 45 94 97 98 58 68 68 59 59 49 52 54 67 70 75 84 82 95 98 75 78 82 84 86 96 88 84 67 75 94 87 83 82 93 92 94 75
99 92 100 60 31 33 54 52 71 63 84 71 68 59 61 66 60 50 56 71 73 84 88 83 88 93 78 70 77 78 86 99 100 84 74 80 78 81 84 86 86 90 89 74
100 100 98 46 25 56 51 54 66 53 61 61 67 58 63 65 62 58 61 75 65 68 84 88 88 80 88 92 79 79 83 92 90 85 68 78 86 80 81 78 87 85 82 75
97 99 81 46 23 52 47 44 37 32 60 63 63 70 67 65 62 56 56 66 75 78 74 71 70 72 77 78 86 86 82 89 92 83 68 67 81 69 81 75 64 80 80 66
100 100 64 39 19 49 30 28 29 35 63 60 58 63 59 70 61 66 60 58 66 68 64 76 85 84 85 83 80 80 93 87 86 88 64 79 59 53 63 67 64 57 57 56
100 98 58 35 21 38 32 29 30 32 70 61 63 63 70 66 63 63 61 60 59 62 83 89 83 89 83 75 83 90 90 90 85 83 81 60 69 66 74 65 76 70 66 62
98 96 75 35 21 47 38 30 28 29 58 61 54 68 64 79 76 69 67 66 80 84 72 94 85 90 76 82 74 83 91 87 85 88 84 78 64 55 52 54 89 69 61 58
90 70 62 38 28 56 42 23 33 30 61 67 54 65 66 58 71 81 71 70 81 84 96 86 91 80 72 81 80 85 84 84 84 85 90 72 52 58 56 66 66 68 59 58
96 77 56 37 35 41 40 22 38 32 69 71 59 58 56 64 62 78 70 82 83 94 80 83 85 85 84 81 68 65 74 82 86 86 87 84 56 60 70 65 67 74 66 61
92 63 49 31 32 46 31 29 45 34 46 81 67 66 62 56 59 59 77 74 84 80 88 87 84 83 94 82 79 70 73 70 79 72 73 68 77 76 78 73 60 71 72 66
75 48 39 29 26 39 30 34 40 30 72 71 62 67 65 66 61 60 65 77 76 76 74 81 89 74 86 89 86 88 76 71 70 75 76 78 71 69 69 77 76 78 76 75
81 72 41 36 32 33 32 35 31 28 45 72 84 76 69 63 57 56 55 57 71 73 70 76 86 86 78 87 85 87 78 75 79 83 71 71 74 77 73 79 82 80 81 82
84 56 58 58 50 35 34 38 29 32 34 88 84 80 81 79 62 64 70 69 73 70 72 83 84 79 76 76 81 88 75 79 87 84 78 78 78 76 80 69 79 84 84 83
95 68 78 76 53 32 48 37 38 36 34 52 90 77 81 84 73 68 69 72 70 71 72 79 73 67 69 87 84 67 72 72 75 73 73 71 71 76 80 75 70 79 84 86
85 95 99 81 43 45 35 31 41 37 32 45 89 86 92 90 84 82 77 73 74 71 76 78 79 73 73 89 93 65 73 72 68 67 64 67 72 78 76 72 80 83 87 88
89 100 85 52 56 46 38 48 46 36 30 40 93 95 95 91 81 86 82 80 77 74 79 81 80 78 85 96 74 71 76 74 74 71 72 73 76 80 86 88 94 94 93 92
94 97 92 50 48 38 55 56 45 32 30 65 77 95 98 88 85 81 80 78 94 80 86 84 78 86 94 75 65 71 77 69 68 81 82 82 93 94 93 89 87 90 91 90
99 99 46 45 43 48 52 41 34 31 41 62 83 81 94 84 72 82 87 87 95 97 85 78 91 92 62 57 56 52 69 71 71 77 89 96 92 97 99 97 96 94 90 96
98 65 86 62 52 48 46 49 54 61 71 81 89 86 92 83 88 93 73 97 96 96 84 89 95 98 81 55 61 65 72 75 77 85 97 98 99 99 97 97 100 99 100 100
66 50 59 71 84 86 85 90 94 85 67 96 94 89 86 83 72 74 76 90 88 94 84 83 88 78 61 62 62 68 74 76 78 87 99 98 98 99 98 98 99 100 99 99
53 62 78 72 80 97 98 97 92 98 92 98 97 98 84 82 71 71 81 84 98 80 90 92 88 67 71 73 73 78 78 80 83 93 99 98 98 98 97 97 100 100 98 96
95 99 98 96 99 97 93 90 90 72 81 94 80 100 84 78 86 76 89 81 92 95 98 98 92 55 67 77 78 75 73 78 88 98 99 99 99 98 100 100 99 94 93 90
99 97 97 99 94 100 97 88 90 90 88 72 77 81 72 94 91 85 90 94 90 87 95 90 54 52 65 75 74 71 69 68 71 94 100 98 98 97 99 100 97 91 90 90
99 98 97 99 95 100 99 95 99 88 70 56 60 93 94 94 91 95 91 90 91 84 89 53 60 56 64 68 69 68 59 53 56 62 97 99 99 98 99 99 99 100 96 90
98 98 91 86 88 97 98 94 90 79 63 86 87 76 73 91 96 96 89 90 85 55 52 69 61 59 65 70 70 59 57 60 59 61 63 72 94 99 99 98 100 99 99 94

GFSNW_850_rhum_108.txt.gz
RH
87 72 84 90 99 100 70 82 98 100 100 93 91 89 67 52 55 68 72 74 75 65 80 82 87 96 88 76 86 84 85 82 98 83 68 80 73 78 90 90 89 94 90 80
92 88 83 100 98 93 86 95 100 100 100 91 91 58 56 49 56 55 63 66 64 67 73 78 71 95 70 86 86 94 89 89 91 72 64 68 86 85 85 82 86 93 88 76
89 93 97 99 97 88 75 62 98 100 100 87 67 68 60 61 51 53 62 73 70 72 79 85 91 97 72 78 80 83 82 90 86 95 86 76 90 85 90 82 93 95 92 67
85 98 98 91 98 76 65 45 87 87 97 81 72 58 62 65 61 52 62 74 74 85 94 88 88 96 72 69 70 74 85 96 88 83 75 80 83 83 86 92 87 83 78 70
94 97 96 72 96 74 66 52 73 58 65 68 67 61 66 63 62 60 60 73 74 75 85 82 90 72 80 92 76 83 81 92 89 83 71 79 91 87 83 83 84 84 78 74
98 100 100 93 93 95 52 47 45 35 65 66 66 70 70 63 62 57 56 70 79 78 75 68 70 72 77 78 82 85 83 88 90 80 68 73 81 69 81 76 69 77 72 64
98 85 80 100 76 88 42 35 31 38 62 61 58 66 61 69 58 66 65 62 70 72 66 72 81 84 83 84 81 81 90 88 86 88 61 85 61 59 60 70 70 62 59 63
100 90 89 87 72 72 42 33 28 33 70 63 65 66 75 69 64 65 63 61 65 65 83 84 81 86 80 77 81 90 88 90 86 83 82 61 72 69 85 83 84 75 67 62
99 100 92 53 57 66 37 35 33 30 61 64 58 74 69 80 78 70 72 68 75 84 72 85 88 90 78 86 82 88 95 86 86 90 84 81 68 56 54 62 88 70 60 59
98 94 97 65 44 60 42 45 33 32 63 70 55 67 64 56 67 79 75 78 84 87 94 87 92 84 73 86 85 89 85 86 83 86 91 72 54 62 61 67 63 76 62 61
100 98 86 64 47 59 49 40 37 33 69 74 61 58 52 62 62 81 72 84 86 95 80 84 88 85 84 82 70 71 76 84 87 88 89 86 68 62 65 65 67 78 72 65
100 94 79 54 40 57 45 43 42 31 44 82 72 64 60 56 58 59 84 74 85 79 89 88 86 84 96 81 85 73 76 72 81 73 74 75 83 83 84 82 75 79 76 74
100 96 62 36 45 52 39 40 39 32 72 74 66 69 72 69 61 62 66 75 76 76 73 82 88 78 87 90 86 87 79 74 75 81 80 78 76 75 80 82 81 82 84 80
100 71 63 46 44 46 48 40 34 32 45 73 85 77 64 62 60 57 54 56 70 70 68 77 88 86 81 88 84 87 79 75 80 82 75 75 79 76 73 79 83 82 83 86
92 75 52 60 53 48 45 43 32 31 35 88 88 79 84 70 68 57 59 65 69 66 70 82 84 84 81 84 84 90 77 78 88 87 71 72 78 80 81 75 67 75 80 83
77 53 47 56 39 40 51 37 35 35 35 54 92 78 91 80 72 70 72 73 66 66 70 83 78 71 72 88 88 65 67 70 72 77 79 78 75 77 78 77 74 67 74 88
75 60 66 48 50 52 39 32 38 38 37 46 89 88 93 83 73 72 70 66 65 66 77 81 80 76 69 86 91 61 72 72 74 74 70 69 72 78 80 78 75 75 76 79
97 95 67 63 56 49 40 42 46 38 33 43 95 95 92 86 82 86 80 75 73 74 82 86 81 81 87 96 73 65 76 74 72 68 66 67 72 76 82 86 88 88 90 92
98 98 97 66 52 39 47 49 41 32 32 64 81 95 98 84 87 83 82 81 93 86 87 85 78 85 93 70 62 64 77 70 66 71 72 71 72 80 90 91 88 86 82 83
100 99 85 44 43 48 50 39 32 31 44 53 87 86 97 85 81 88 87 93 96 94 82 85 95 92 62 52 52 45 65 70 64 72 78 81 88 93 94 99 98 100 98 94
99 96 50 52 51 44 38 43 49 53 72 80 87 86 97 86 89 96 78 98 97 94 83 91 94 96 86 55 55 50 64 71 68 70 74 80 94 97 98 98 98 98 99 100
89 56 58 56 69 86 70 88 88 78 62 98 94 88 80 82 71 79 89 90 92 95 82 90 96 81 58 64 60 55 63 68 72 74 78 89 98 98 98 98 99 99 98 99
58 53 71 81 84 96 90 98 97 94 96 99 97 98 81 78 70 76 87 89 96 78 90 88 88 65 62 67 67 71 71 73 74 75 77 89 100 99 98 99 97 99 98 99
82 89 98 92 98 95 93 92 89 72 82 95 85 100 83 79 85 90 86 80 88 97 95 94 91 57 58 68 67 66 69 72 71 73 77 92 100 98 99 99 100 98 93 94
100 99 97 99 94 100 92 84 90 87 87 72 78 82 73 96 93 82 90 97 92 92 90 89 52 53 60 70 74 75 70 68 68 68 66 84 100 96 98 99 100 97 92 88
100 98 98 100 97 100 100 95 99 90 69 57 57 95 93 96 92 97 93 90 92 81 90 53 57 50 58 67 70 68 68 65 57 54 56 62 99 99 99 99 98 98 99 94
98 97 95 90 92 97 99 91 88 79 63 91 87 72 70 92 98 96 88 90 84 54 51 57 57 50 56 66 69 70 65 54 57 57 53 59 69 100 100 99 99 99 98 97

GFSNW_850_rhum_111.txt.gz
RH
86 91 75 61 89 100 100 93 98 100 99 97 93 90 66 57 60 72 72 72 75 67 84 77 94 91 87 76 89 91 86 82 96 85 73 84 75 86 90 86 88 90 84 88
86 91 86 75 97 100 98 98 99 100 99 98 94 65 59 51 58 60 65 71 67 66 71 79 76 97 68 83 90 88 88 89 87 70 60 65 84 83 87 81 84 96 88 77
92 92 91 79 92 99 85 77 99 100 100 93 68 69 62 64 53 55 63 74 70 71 75 87 85 97 70 77 77 78 76 90 88 95 88 84 90 83 88 83 87 89 87 68
94 98 95 77 98 96 75 65 98 94 96 97 73 60 62 66 63 55 68 75 75 87 96 88 86 93 73 63 68 75 80 88 96 80 79 81 87 88 87 95 87 83 77 73
94 100 100 99 98 100 94 71 86 86 75 84 74 66 69 64 62 63 65 75 78 78 86 78 86 72 79 93 78 81 82 91 84 81 82 79 81 83 82 83 80 83 76 77
98 98 99 100 86 99 91 69 57 44 70 73 68 74 72 62 63 60 58 71 80 76 75 70 72 73 77 79 83 86 87 87 84 82 69 74 80 70 80 75 78 71 82 69
99 99 98 96 94 92 61 55 40 45 73 63 60 67 61 68 56 69 68 67 72 72 66 74 78 80 81 81 83 84 90 88 85 86 60 85 61 65 60 74 81 72 70 70
99 98 72 96 92 92 58 41 30 35 74 67 67 67 77 70 66 67 66 63 70 68 85 84 82 88 82 86 90 88 90 88 89 80 84 63 72 69 81 71 91 79 72 64
100 100 82 100 91 71 50 38 31 32 61 66 59 76 68 79 80 74 78 72 69 84 80 85 88 90 78 88 86 88 93 84 83 87 82 82 71 60 60 65 94 75 60 65
100 100 99 94 83 55 47 39 32 33 66 72 60 71 66 57 66 81 78 85 86 86 93 88 93 86 75 90 89 91 86 86 82 88 90 73 56 63 64 67 68 82 65 67
100 98 99 95 81 50 45 42 35 32 70 75 61 60 53 60 57 77 74 85 88 95 83 84 91 85 85 83 72 76 78 84 87 89 88 84 73 68 64 62 70 81 75 70
99 89 82 88 80 74 54 42 37 36 44 87 73 64 56 50 54 60 86 72 85 78 88 89 89 88 96 82 85 75 77 71 78 72 72 69 85 82 84 80 81 84 82 79
100 99 72 72 61 71 60 43 39 30 71 78 71 76 71 63 58 65 66 73 75 74 70 80 87 78 88 93 86 86 80 76 78 80 80 79 81 83 85 84 82 84 85 82
99 99 83 68 49 67 44 43 36 34 46 74 88 74 66 64 61 59 55 58 68 69 68 76 87 87 83 88 81 86 81 77 81 83 80 79 81 77 81 86 84 84 83 85
98 99 81 66 42 51 42 42 36 32 33 88 88 76 72 69 60 54 54 66 67 65 68 81 82 89 86 89 86 92 80 82 88 84 70 70 71 80 80 75 70 69 77 85
100 93 78 36 43 49 44 41 37 35 32 48 90 87 84 77 75 69 70 70 64 62 70 84 80 75 75 90 89 66 66 67 66 74 70 76 76 75 75 76 75 72 68 79
93 58 47 54 50 46 41 36 39 37 38 43 89 94 87 75 68 71 69 64 61 62 76 81 80 81 74 86 90 56 62 69 72 76 76 79 80 77 76 79 78 78 79 77
82 78 61 60 43 48 46 40 44 42 35 44 96 95 89 84 80 78 73 66 67 73 83 86 82 84 89 95 72 60 74 78 76 73 68 61 65 69 72 76 78 82 82 81
88 76 67 50 54 49 47 49 44 35 33 61 84 96 98 90 87 83 84 79 92 88 86 85 80 84 89 65 60 58 76 72 69 70 67 65 66 70 75 80 86 85 84 84
96 74 59 52 46 49 48 41 33 31 44 49 88 86 94 89 86 93 87 94 96 93 82 88 98 92 57 45 45 39 60 69 67 72 80 70 69 75 85 86 97 97 100 97
98 96 86 53 51 45 39 40 47 47 74 73 88 85 97 87 90 96 82 98 97 91 82 93 94 94 83 53 48 47 57 66 66 58 56 62 67 75 86 95 98 99 98 99
97 76 58 54 44 68 63 77 79 78 62 96 92 84 79 82 73 84 93 90 91 85 84 95 97 82 58 61 53 51 60 71 66 62 64 64 66 77 91 97 98 98 99 99
75 77 77 81 87 98 89 74 90 89 96 98 97 97 77 76 70 86 87 90 92 83 90 93 88 63 60 65 59 55 68 74 69 69 70 69 72 82 96 99 98 98 99 99
84 81 99 92 97 94 89 88 89 71 88 99 82 100 83 78 84 89 88 81 91 89 99 87 90 58 57 66 63 58 69 71 69 70 69 68 70 80 91 99 99 99 100 98
99 95 86 99 91 100 94 79 85 84 80 72 78 83 74 96 93 81 92 93 90 93 87 87 50 54 58 65 70 68 66 68 70 66 65 64 66 71 90 100 99 100 100 95
100 100 98 100 99 100 100 96 95 86 70 57 57 93 90 94 91 97 90 88 88 77 91 54 55 53 58 61 60 61 67 68 67 63 58 58 56 62 79 99 99 98 98 99
98 97 94 94 94 95 97 88 85 78 67 87 86 69 65 91 97 94 87 86 81 52 49 52 56 50 55 64 66 72 70 69 59 56 57 53 56 62 65 68 74 96 95 98

GFSNW_850_rhum_114.txt.gz
RH
93 84 86 88 81 97 91 100 100 100 99 92 87 82 52 58 56 71 62 62 61 59 63 63 88 81 70 71 84 73 72 69 83 84 61 74 67 77 75 78 71 72 62 91
96 81 85 90 82 99 100 99 100 100 99 87 90 58 57 51 56 61 60 64 60 58 63 68 62 96 61 72 79 73 70 73 75 67 67 61 67 65 72 66 70 86 70 86
91 84 86 94 78 96 99 98 99 100 100 85 57 60 58 57 56 54 57 61 62 62 61 66 62 92 60 73 69 76 70 69 88 81 79 77 88 69 67 81 73 64 68 62
87 94 83 88 80 87 99 99 94 92 96 95 63 55 51 57 56 54 64 64 66 78 72 68 66 77 62 56 67 67 62 88 74 68 67 68 73 71 64 88 65 77 62 64
89 94 92 90 87 90 100 75 96 98 78 78 74 57 54 51 55 54 59 62 64 70 73 66 70 62 72 80 57 66 61 80 70 74 56 53 63 63 57 62 58 58 55 64
92 96 98 98 88 100 99 75 75 59 78 74 72 52 50 48 51 57 56 58 66 69 63 65 66 68 68 66 70 65 67 66 66 75 59 60 65 72 68 63 62 57 65 62
95 97 98 98 98 98 98 67 58 52 62 64 61 52 48 49 50 54 68 66 60 69 65 73 75 71 68 64 69 71 71 69 64 59 50 67 60 58 61 68 68 59 59 56
99 98 99 96 100 98 80 63 41 45 56 50 55 53 55 63 64 62 63 69 73 67 81 64 68 66 65 70 74 72 71 67 60 57 61 63 61 62 75 68 77 62 54 52
98 98 98 87 98 95 66 56 39 38 50 50 57 58 52 54 59 60 76 77 78 84 68 68 69 66 65 68 71 70 69 62 58 62 64 67 58 54 60 57 79 64 56 57
100 81 80 88 95 87 65 40 36 38 64 77 65 52 47 58 54 58 70 81 84 82 73 70 69 64 64 65 64 68 61 59 64 61 65 57 49 55 62 56 71 73 64 67
100 96 90 94 86 64 44 36 34 36 79 76 61 59 56 58 57 47 71 70 80 81 74 63 70 62 64 65 62 63 57 56 57 64 67 70 64 63 54 61 74 78 74 74
100 99 96 70 55 46 38 35 35 39 46 81 67 62 54 49 51 64 83 68 78 72 62 65 65 66 78 61 56 64 58 52 53 52 53 69 83 76 82 76 76 85 83 78
90 99 94 62 44 38 34 34 36 32 73 75 72 73 66 60 58 64 67 69 72 73 64 65 64 62 59 59 59 63 64 67 56 64 68 70 78 87 88 87 88 85 84 82
86 93 95 71 44 51 47 38 36 33 47 59 78 70 66 63 62 63 57 60 67 67 65 65 63 62 75 60 62 65 58 64 59 64 71 75 77 81 87 84 82 81 82 84
95 94 95 73 74 68 48 40 36 34 32 71 80 66 68 64 58 56 53 66 66 64 62 59 60 76 71 73 69 67 65 60 56 52 55 54 59 76 74 74 71 70 76 83
100 80 76 68 71 50 42 36 36 34 32 45 67 80 79 76 73 66 66 67 63 60 68 69 77 76 68 64 57 46 63 64 61 56 68 69 73 74 75 76 74 72 67 72
99 86 73 47 58 45 38 36 38 37 34 39 82 83 79 74 70 71 68 63 59 58 78 73 72 78 78 66 56 43 62 66 66 63 65 82 80 75 72 73 72 73 70 69
98 84 63 50 56 46 42 37 41 39 34 40 86 87 83 74 78 74 65 64 62 70 82 82 72 81 81 73 51 55 65 70 76 72 66 64 68 70 64 64 67 73 76 76
78 55 55 56 50 48 44 45 44 36 30 62 78 85 88 85 88 82 81 72 68 82 68 70 75 62 69 48 51 59 65 69 73 79 72 62 62 61 60 62 70 74 79 81
69 56 49 48 44 44 42 43 35 29 37 45 74 85 88 89 87 86 81 90 75 78 67 89 78 64 52 40 39 37 52 65 71 75 80 71 67 60 58 62 70 76 87 97
86 78 62 51 48 42 38 40 48 46 65 66 89 83 85 84 77 76 81 90 85 79 70 78 72 66 62 52 40 42 50 64 65 60 56 56 51 51 60 64 70 87 98 99
74 66 50 53 43 50 60 66 71 70 54 88 83 84 80 78 74 79 90 83 87 70 79 85 73 52 56 60 48 46 50 66 66 67 53 53 57 54 57 62 73 87 95 99
56 59 65 63 74 94 83 71 73 80 91 95 96 93 78 75 74 87 78 84 79 79 88 77 64 59 56 58 54 52 59 70 69 63 61 61 53 51 52 60 68 88 97 98
98 98 96 93 90 83 86 74 80 74 82 90 79 98 80 80 80 78 78 72 80 91 90 72 60 52 52 60 57 52 68 73 69 63 62 59 54 52 52 55 62 90 99 98
98 91 84 92 81 95 86 80 83 84 75 73 75 81 76 84 86 72 87 94 92 79 71 64 53 49 56 63 58 54 61 69 68 65 64 59 55 48 51 54 64 90 99 100
100 100 100 100 98 100 98 91 92 83 80 55 56 84 83 78 79 90 85 72 71 68 81 54 50 53 58 61 56 55 57 59 64 66 63 57 48 45 54 64 77 94 99 98
99 97 97 96 94 97 97 81 81 81 68 81 81 73 64 83 87 81 70 77 71 53 47 49 52 50 54 59 60 62 64 67 68 63 56 53 49 55 59 58 62 74 84 94

GFSNW_850_rhum_117.txt.gz
RH
91 94 86 82 95 84 86 99 100 100 92 87 72 74 42 51 49 61 52 52 52 50 48 52 82 80 58 62 70 71 59 70 93 75 51 56 68 70 66 93 67 69 61 96
89 92 86 89 94 96 100 99 100 100 99 85 83 50 51 46 50 53 53 55 52 47 52 62 57 90 50 57 66 80 64 70 95 75 52 50 68 54 57 57 66 71 71 94
88 89 82 93 98 97 99 98 100 99 99 80 53 50 49 53 52 50 48 51 51 50 51 49 58 91 49 60 59 72 70 64 84 80 74 73 87 54 59 87 77 75 85 78
91 86 88 93 97 97 95 98 89 91 97 75 49 43 42 48 52 48 51 55 56 66 60 52 54 73 56 48 53 55 55 77 58 54 58 53 56 56 51 69 54 79 65 66
86 89 85 92 91 80 97 82 83 86 69 63 56 47 43 43 47 47 51 58 52 58 62 62 58 54 66 70 49 53 49 67 60 62 48 49 65 58 55 54 50 53 55 64
87 91 89 95 84 79 98 86 77 59 68 63 59 43 39 40 43 51 50 45 57 60 55 53 51 52 53 56 59 57 56 56 60 66 51 50 57 71 62 58 55 52 68 57
87 90 89 88 87 86 93 74 66 46 53 51 50 42 39 39 43 48 54 54 52 65 65 66 60 54 54 53 56 57 58 56 55 50 44 60 59 54 58 62 60 50 50 49
85 81 88 95 90 100 90 70 53 43 42 42 48 42 38 48 54 53 56 64 72 68 71 55 58 56 60 59 58 58 56 54 50 52 54 57 57 56 67 81 69 49 49 45
92 89 89 97 94 96 94 79 64 50 39 43 43 42 44 44 48 58 70 79 81 86 58 56 57 55 50 53 59 57 54 50 52 52 59 59 49 51 53 50 83 54 51 50
98 92 77 91 94 90 73 63 58 50 50 72 53 41 39 42 45 51 63 70 79 80 58 55 58 48 54 50 49 51 46 45 51 49 55 54 45 49 54 63 80 59 57 58
84 80 73 84 97 82 67 48 38 50 63 81 74 58 50 53 45 46 60 60 70 71 65 52 52 48 49 51 50 49 46 45 43 48 50 65 53 55 55 62 68 63 64 66
82 69 75 88 84 77 61 40 38 43 61 85 63 57 51 50 49 60 71 62 63 57 54 52 50 50 64 47 40 50 47 46 46 49 55 62 69 66 73 64 64 73 70 75
99 99 94 81 77 58 38 32 35 39 70 76 72 79 60 55 56 66 60 66 74 71 63 53 52 52 46 42 42 44 49 50 46 53 58 61 68 78 78 76 78 84 85 81
93 81 67 51 37 33 31 29 32 34 54 45 72 64 61 58 62 62 58 60 65 66 68 52 49 52 62 45 53 52 46 52 45 50 56 63 66 69 77 82 80 81 81 88
69 56 48 38 32 32 35 33 32 33 50 52 64 62 61 58 56 55 55 67 73 62 54 49 48 56 57 54 56 49 51 43 46 37 41 42 46 66 79 79 76 69 80 84
89 63 46 42 35 38 36 32 32 31 33 60 57 74 80 67 62 62 65 66 64 66 56 52 60 73 63 52 40 28 43 45 41 42 49 52 58 72 67 73 67 69 68 67
86 87 80 59 50 44 36 37 33 35 34 50 71 65 81 69 66 65 72 62 66 65 63 58 57 65 72 56 44 28 43 55 63 60 68 76 78 73 65 69 68 68 68 66
85 92 91 75 55 47 38 35 37 36 33 40 80 76 69 62 64 63 61 66 68 69 64 72 60 67 66 65 40 42 49 60 69 68 63 61 66 71 68 70 68 67 72 74
77 78 68 65 58 47 40 41 40 35 30 68 70 80 82 70 77 78 74 75 62 73 57 55 67 49 64 43 36 44 57 68 69 72 67 65 63 67 67 63 59 63 80 79
90 73 51 50 48 44 37 40 36 32 35 42 61 71 80 80 70 69 71 75 61 86 56 74 69 55 42 41 42 42 54 64 71 80 79 75 73 68 61 56 60 71 82 84
62 56 55 49 43 38 35 47 59 52 67 65 72 66 75 83 72 66 66 82 76 81 67 67 65 54 49 54 42 45 49 56 53 57 60 62 60 54 55 52 58 65 72 81
75 66 46 44 42 46 70 73 69 69 58 78 72 76 78 84 76 70 77 83 82 74 67 75 69 43 52 52 54 44 61 57 64 66 61 58 57 51 49 54 57 61 72 81
94 56 49 60 70 90 80 72 71 77 76 89 88 87 82 81 84 78 75 86 75 66 86 72 60 61 49 53 60 51 63 65 70 68 64 56 52 52 50 47 52 64 76 83
98 96 98 93 95 76 84 69 82 71 77 89 82 85 73 74 77 73 80 64 70 84 83 67 53 59 49 49 56 54 65 70 64 64 57 52 55 48 45 45 49 51 68 81
98 99 99 97 77 90 86 74 70 71 85 84 81 80 70 77 83 65 79 88 86 68 71 63 66 42 47 52 57 54 57 67 64 60 55 56 53 49 48 44 44 50 62 71
100 100 100 95 93 95 100 96 100 84 91 60 57 85 85 79 75 81 83 68 71 78 87 74 45 46 50 57 58 54 52 60 62 62 60 60 54 51 45 44 50 56 67 73
100 99 100 96 99 94 93 91 86 79 73 89 86 81 73 74 79 75 65 78 81 65 51 46 47 50 50 57 55 53 57 64 66 63 64 58 55 45 41 46 52 57 61 64

GFSNW_850_rhum_120.txt.gz
RH
81 86 90 84 88 96 76 98 99 100 88 92 76 84 44 49 48 58 50 49 55 49 47 51 86 86 60 61 64 84 79 78 97 86 51 60 65 98 65 95 96 99 96 98
81 86 88 84 96 91 79 98 100 99 99 95 81 52 48 45 48 51 49 54 50 46 50 64 59 93 49 57 61 73 72 84 94 84 64 58 76 59 56 66 76 94 96 98
87 86 84 86 94 79 70 98 100 99 98 89 61 51 50 53 50 50 47 52 49 49 49 47 56 96 51 52 57 64 73 67 84 98 100 89 90 57 64 84 88 91 94 88
87 85 84 93 92 91 75 99 96 91 100 82 58 44 42 51 54 48 48 55 56 80 59 50 55 79 66 49 48 56 60 78 60 57 57 64 70 65 66 72 68 93 77 78
83 84 87 98 96 93 82 82 85 84 80 74 57 48 43 43 48 47 54 58 52 56 64 66 57 56 67 68 52 51 51 70 61 64 52 62 74 77 69 87 96 65 76 76
80 83 79 85 76 87 85 75 74 67 64 62 61 51 41 40 44 51 50 48 59 59 60 51 52 50 52 56 62 65 59 66 73 71 50 51 81 90 69 65 58 60 81 66
84 85 82 79 66 73 70 68 64 50 65 57 57 40 38 43 50 54 53 54 55 64 62 59 56 52 52 50 56 56 69 60 63 76 48 80 62 56 61 61 58 53 55 59
84 86 81 78 74 75 71 58 54 49 50 47 46 40 41 51 53 58 62 68 69 65 70 70 63 66 63 59 57 59 59 66 67 74 73 66 62 60 63 68 73 58 59 54
80 82 85 80 77 70 79 70 63 52 48 62 49 42 45 56 61 63 70 73 73 79 76 66 64 73 50 66 69 55 57 60 70 62 71 76 64 55 53 55 84 58 58 61
78 83 88 78 76 83 84 76 73 51 54 62 59 51 46 43 48 69 65 71 76 72 79 68 86 65 54 59 52 60 61 55 63 61 75 62 50 53 52 70 82 59 62 64
74 70 72 75 72 77 78 61 55 44 66 68 61 55 55 51 48 63 64 69 76 83 78 66 65 67 60 58 50 52 53 59 59 60 60 80 54 55 71 73 63 64 68 70
70 61 62 70 75 77 63 46 39 42 60 67 55 55 53 54 56 66 65 64 63 74 79 66 60 64 81 57 61 51 61 59 63 65 72 64 66 68 64 64 68 72 74 74
68 73 62 69 78 69 60 44 37 40 60 68 72 70 55 51 51 61 68 63 68 68 60 66 66 70 63 60 55 46 52 48 58 64 67 70 72 73 72 70 77 78 78 77
53 61 69 78 74 63 44 40 34 49 50 54 70 60 55 54 56 58 58 56 64 63 60 60 66 75 61 67 66 67 56 56 53 64 63 64 68 72 75 76 74 75 79 79
84 82 77 74 56 39 35 31 32 33 57 58 70 61 56 55 55 55 54 62 67 63 62 66 68 58 68 59 67 71 55 58 64 60 54 58 58 68 71 68 68 69 73 76
64 52 47 40 36 36 32 29 31 32 32 51 74 68 64 60 59 56 57 60 60 62 62 59 57 63 71 78 61 35 40 38 39 44 45 49 53 65 69 68 63 62 67 69
62 53 54 44 40 32 28 38 34 35 35 51 79 75 64 61 61 60 62 56 56 59 61 64 62 65 66 78 71 33 36 44 48 49 51 65 64 68 70 66 65 67 67 66
53 55 63 64 42 35 29 30 34 34 35 50 93 86 73 59 65 70 56 67 62 63 65 66 70 68 73 88 57 36 40 51 56 55 50 53 58 63 64 66 66 67 66 65
79 70 83 90 70 48 39 36 36 35 32 64 77 91 96 62 72 72 63 64 87 67 78 65 71 73 86 64 47 42 41 54 58 65 62 64 60 62 64 66 68 64 64 63
98 100 89 65 54 50 38 36 36 35 35 42 76 67 96 74 72 71 79 73 82 93 79 70 86 83 46 39 36 35 37 49 60 70 70 69 69 68 66 66 63 59 61 63
81 54 49 50 46 44 35 50 65 56 78 60 65 68 90 78 89 92 65 96 90 94 87 83 92 86 62 41 36 37 37 43 56 53 51 54 57 62 66 63 58 53 54 52
55 45 47 45 40 42 77 82 73 83 74 72 80 72 79 72 69 79 79 93 92 91 74 89 93 74 47 39 47 38 40 45 54 63 54 56 59 59 59 56 52 51 48 46
54 45 38 49 67 86 90 70 85 90 73 76 83 94 74 69 79 80 88 93 93 69 94 93 83 62 47 41 50 47 48 49 55 66 61 57 58 57 52 49 48 39 38 41
78 64 79 85 94 91 88 90 91 70 72 81 78 81 79 77 88 90 91 82 84 95 97 79 88 52 44 40 49 48 62 59 60 59 59 56 54 50 48 44 38 36 39 41
99 100 98 98 77 84 71 74 63 68 70 82 75 80 72 90 93 81 90 94 98 88 78 85 63 43 43 43 49 53 62 62 60 56 56 53 48 50 44 41 41 35 36 44
100 100 99 96 94 97 93 79 85 62 84 59 69 90 95 89 90 94 89 85 76 73 89 66 49 38 41 46 50 53 56 50 56 57 56 50 50 49 46 44 35 36 43 43
100 99 99 99 92 89 87 76 76 71 80 95 91 94 70 89 96 94 84 86 81 75 60 42 42 40 41 47 52 54 54 56 62 60 56 54 56 52 48 36 37 43 43 46

GFSNW_850_rhum_123.txt.gz
RH
76 83 84 83 94 75 82 98 98 95 97 93 85 93 54 49 50 56 53 54 56 59 55 65 93 83 67 57 64 84 85 96 98 94 60 70 70 84 77 95 93 96 98 98
79 84 79 82 85 71 71 98 100 99 96 94 91 52 54 53 53 54 53 59 53 49 52 73 85 96 56 56 62 77 72 88 93 76 63 72 97 64 66 66 78 97 97 98
81 81 77 79 80 67 63 95 99 96 96 90 84 54 54 58 49 52 50 56 57 56 53 50 78 91 57 53 59 61 74 76 94 98 100 93 93 81 79 81 94 91 98 91
78 75 77 79 70 64 75 89 96 86 99 81 76 53 46 59 56 51 50 58 68 78 65 56 74 79 69 56 52 57 72 82 86 73 64 79 91 95 96 94 98 97 95 89
73 73 68 70 68 69 66 77 81 86 96 81 66 54 46 54 49 59 57 66 62 65 74 67 71 64 72 70 64 59 59 71 65 63 62 72 95 80 77 84 70 78 85 89
68 68 69 72 71 68 72 73 72 65 67 68 71 65 44 53 52 50 53 60 65 75 68 60 56 54 56 58 65 75 71 72 80 77 57 56 84 93 70 68 66 68 92 83
63 64 71 65 69 65 61 60 58 58 75 74 67 45 48 62 59 59 65 63 67 64 63 60 56 54 54 56 60 62 76 72 73 82 59 91 69 61 63 72 67 64 66 76
60 64 64 52 66 60 54 41 48 53 68 60 49 50 58 60 61 67 73 69 71 66 70 81 71 75 66 64 60 62 67 74 74 75 86 73 71 63 62 72 80 70 71 68
58 55 57 49 50 58 58 51 54 51 57 68 66 51 52 69 72 73 73 66 66 71 89 78 70 82 55 66 65 58 61 68 76 67 79 80 67 58 54 57 89 68 70 78
63 56 51 52 52 56 62 64 67 51 53 65 57 57 55 52 66 82 71 68 70 72 88 80 88 74 57 67 58 59 63 65 67 71 80 70 56 54 54 74 83 70 69 74
66 64 57 55 53 54 65 60 60 42 54 61 56 53 52 51 59 78 68 71 77 87 81 77 77 77 70 65 54 54 60 66 68 68 69 70 56 58 69 70 66 69 72 74
68 63 59 56 59 68 62 48 41 42 51 57 57 54 53 52 56 64 65 68 71 81 86 83 77 73 87 67 66 56 60 59 62 66 64 67 67 67 69 65 70 72 73 74
64 57 59 61 60 73 60 45 39 43 51 66 66 55 51 47 50 62 63 65 67 68 61 75 79 74 75 70 68 55 56 53 65 66 64 72 72 68 70 68 73 75 73 78
75 60 58 69 73 69 58 44 41 48 57 62 59 56 53 52 53 58 60 54 60 60 60 69 80 84 67 77 66 72 61 60 64 71 70 70 72 71 73 72 69 73 75 77
70 70 64 70 75 68 41 35 36 40 52 59 62 60 53 52 53 54 54 58 61 63 66 76 76 70 71 74 75 86 59 65 70 72 63 64 59 63 72 68 66 67 68 77
70 70 78 80 54 41 40 35 35 36 47 39 66 63 61 60 56 55 57 59 60 60 61 66 63 65 67 86 80 50 45 44 38 43 41 51 46 62 67 64 66 68 69 72
59 55 49 43 45 43 40 45 39 38 41 46 80 76 61 64 63 59 56 55 55 57 62 64 69 67 66 87 87 41 34 42 44 40 46 61 61 73 70 64 64 65 68 68
59 58 54 46 41 36 34 36 40 38 40 50 92 89 71 61 65 69 57 64 61 61 61 70 71 73 78 91 66 39 37 48 50 48 45 44 57 62 72 69 65 69 69 66
58 54 65 73 50 39 39 31 32 37 37 56 75 80 81 65 72 73 60 66 89 69 76 76 76 80 86 58 42 38 45 49 53 56 53 53 56 59 66 68 70 69 67 62
70 70 67 81 66 45 45 35 34 38 41 42 70 76 89 68 75 75 81 77 88 90 82 74 87 82 45 32 28 26 32 40 44 62 67 64 64 63 64 63 64 65 58 55
99 88 83 59 42 43 39 37 56 54 57 54 64 72 86 76 87 90 71 94 94 91 80 82 90 92 74 36 24 31 34 35 34 36 38 44 41 51 58 64 65 59 51 48
88 66 58 44 40 42 58 76 70 81 66 70 70 70 65 71 76 78 78 90 92 72 79 93 90 70 39 40 35 30 33 37 38 48 44 46 51 54 56 60 57 52 48 44
62 44 42 41 60 67 68 57 80 92 72 74 83 92 62 69 77 84 91 94 90 76 98 90 75 50 45 40 37 41 34 39 44 53 54 51 54 57 58 55 53 49 46 38
63 57 67 79 90 90 84 80 80 59 65 70 68 84 76 80 91 91 92 80 88 100 100 73 81 42 37 33 36 43 42 44 50 54 57 55 56 55 54 52 47 42 36 35
97 95 96 93 74 84 80 72 66 57 59 71 70 79 69 93 91 88 91 95 98 84 71 77 46 46 43 36 39 45 45 48 53 52 55 55 54 52 49 48 42 38 38 31
100 100 99 96 95 95 85 70 66 63 64 58 66 88 94 90 91 98 96 81 73 64 87 41 51 34 31 36 38 43 48 50 50 53 55 56 54 48 46 44 42 39 30 34
100 99 99 96 94 84 76 74 64 61 73 88 87 89 69 87 96 98 85 85 77 61 56 45 37 37 33 36 40 44 52 59 59 60 61 58 54 54 50 45 42 31 33 36